[[{"header":{"parameterUnit":"m.s-1","parameterCategory":1,"la1":31.0,"la2":29.5877,"lo1":-88.7671,"lo2":-86.6584,"dy":0.0162,"dx":0.0185,"nx":115,"ny":88,"refTime":"2024-05-10T06:00:00:Z","depth":0,"parameterNumber":2,"parameterNumberName":"U-component_of_WINDS"},"data":[0.0,0.0,0.0,0.0,0.0,0.0,0.0,0.0,0.0,0.0,0.0,0.0,0.0,0.0,0.0,0.0,0.0,0.0,0.0,0.0,0.0,0.0,0.0,0.0,0.0,0.0,0.0,0.0,0.0,0.0,0.0,0.0,0.0,0.0,0.0,0.0,0.0,0.0,0.0,0.0,0.0,0.0,0.0,0.0,0.0,0.0,0.0,0.0,0.0,0.0,0.0,0.0,0.0,0.0,0.0,0.0,0.0,0.0,0.0,0.0,0.0,0.0,0.0,0.0,0.0,0.0,0.0,0.0,0.0,0.0,0.0,0.0,0.0,0.0,0.0,0.0,0.0,0.0,0.0,0.0,0.0,0.0,0.0,0.0,0.0,0.0,0.0,0.0,0.0,0.0,0.0,0.0,0.0,0.0,0.0,0.0,0.0,0.0,0.0,0.0,0.0,0.0,0.0,0.0,0.0,0.0,0.0,0.0,0.0,0.0,0.0,0.0,0.0,0.0,0.0,0.0,0.0,0.0,0.0,0.0,0.0,0.0,0.0,0.0,0.0,0.0,0.0,0.0,0.0,0.0,0.0,0.0,0.0,0.0,0.0,0.0,0.0,0.0,0.0,0.0,0.0,0.0,0.0,0.0,0.0,0.0,0.0,0.0,0.0,0.0,0.0,0.0,0.0,0.0,0.0,0.0,0.0,0.0,0.0,0.0,0.0,0.0,0.0,0.0,0.0,0.0,0.0,0.0,0.0,0.0,0.0,0.0,0.0,0.0,0.0,0.0,0.0,0.0,0.0,0.0,0.0,0.0,0.0,0.0,0.0,0.0,0.0,0.0,0.0,0.0,0.0,0.0,0.0,0.0,0.0,0.0,0.0,0.0,0.0,0.0,0.0,0.0,0.0,0.0,0.0,0.0,0.0,0.0,0.0,0.0,0.0,0.0,0.0,0.0,0.0,0.0,0.0,0.0,0.0,0.0,0.0,0.0,0.0,0.0,0.0,0.0,0.0,0.0,0.0,0.0,0.0,0.0,0.0,0.0,0.0,0.0,0.0,0.0,0.0,0.0,0.0,0.0,0.0,0.0,0.0,0.0,0.0,0.0,0.0,0.0,0.0,0.0,0.0,0.0,0.0,0.0,0.0,0.0,0.0,0.0,0.0,0.0,0.0,0.0,0.0,0.0,0.0,0.0,0.0,0.0,0.0,0.0,0.0,0.0,0.0,0.0,0.0,0.0,0.0,0.0,0.0,0.0,0.0,0.0,0.0,0.0,0.0,0.0,0.0,0.0,0.0,0.0,0.0,0.0,0.0,0.0,0.0,0.0,0.0,0.0,0.0,0.0,0.0,0.0,0.0,0.0,0.0,0.0,0.0,0.0,0.0,0.0,0.0,0.0,0.0,0.0,0.0,0.0,0.0,0.0,0.0,0.0,0.0,0.0,0.0,0.0,0.0,0.0,0.0,0.0,0.0,0.0,0.0,0.0,0.0,0.0,0.0,0.0,0.0,0.0,0.0,0.0,0.0,0.0,0.0,0.0,0.0,0.0,0.0,0.0,0.0,0.0,0.0,0.0,0.0,0.0,0.0,0.0,0.0,0.0,0.0,0.0,0.0,0.0,0.0,0.0,0.0,0.0,0.0,0.0,0.0,0.0,0.0,0.0,0.0,0.0,0.0,0.0,0.0,0.0,0.0,0.0,0.0,0.0,0.0,0.0,0.0,0.0,0.0,0.0,0.0,0.0,0.0,0.0,0.0,0.0,0.0,0.0,0.0,0.0,0.0,0.0,0.0,0.0,0.0,0.0,0.0,0.0,0.0,0.0,0.0,0.0,0.0,0.0,0.0,0.0,0.0,0.0,0.0,0.0,0.0,0.0,0.0,0.0,0.0,0.0,0.0,0.0,0.0,0.0,0.0,0.0,0.0,0.0,0.0,0.0,0.0,0.0,0.0,0.0,0.0,0.0,0.0,0.0,0.0,0.0,0.0,0.0,0.0,0.0,0.0,0.0,0.0,0.0,0.0,0.0,0.0,0.0,0.0,0.0,0.0,0.0,0.0,0.0,0.0,0.0,0.0,0.0,0.0,0.0,0.0,0.0,0.0,0.0,0.0,0.0,0.0,0.0,0.0,0.0,0.0,0.0,0.0,0.0,0.0,0.0,0.0,0.0,0.0,0.0,0.0,0.0,0.0,0.0,0.0,0.0,0.0,0.0,0.0,0.0,0.0,0.0,0.0,0.0,0.0,0.0,0.0,0.0,0.0,0.0,0.0,0.0,0.0,0.0,0.0,0.0,0.0,0.0,0.0,0.0,0.0,0.0,0.0,0.0,0.0,0.0,0.0,0.0,0.0,0.0,0.0,0.0,0.0,0.0,0.0,0.0,0.0,0.0,0.0,0.0,0.0,0.0,0.0,0.0,0.0,0.0,0.0,0.0,0.0,0.0,0.0,0.0,0.0,0.0,0.0,0.0,0.0,0.0,0.0,0.0,0.0,0.0,0.0,0.0,0.0,0.0,0.0,0.0,0.0,0.0,0.0,0.0,0.0,0.0,0.0,0.0,0.0,0.0,0.0,0.0,0.0,0.0,0.0,0.0,0.0,0.0,0.0,0.0,0.0,0.0,0.0,0.0,0.0,0.0,0.0,0.0,0.0,0.0,0.0,0.0,0.0,0.0,0.0,0.0,0.0,0.0,0.0,0.0,0.0,0.0,0.0,0.0,0.0,0.0,0.0,0.0,0.0,0.0,0.0,0.0,0.0,0.0,0.0,0.0,0.0,0.0,0.0,0.0,0.0,0.0,0.0,0.0,0.0,0.0,0.0,0.0,0.0,0.0,0.0,0.0,0.0,0.0,0.0,0.0,0.0,0.0,0.0,0.0,0.0,0.0,0.0,0.0,0.0,0.0,0.0,0.0,0.0,0.0,0.0,0.0,0.0,0.0,0.0,0.0,0.0,0.0,0.0,0.0,0.0,0.0,0.0,0.0,0.0,0.0,0.0,0.0,0.0,0.0,0.0,0.0,0.0,0.0,0.0,0.0,0.0,0.0,0.0,0.0,0.0,0.0,0.0,0.0,0.0,0.0,0.0,0.0,0.0,0.0,0.0,0.0,0.0,0.0,0.0,0.0,0.0,0.0,0.0,0.0,0.0,0.0,0.0,0.0,0.0,0.0,0.0,0.0,0.0,0.0,0.0,0.0,0.0,0.0,0.0,0.0,0.0,0.0,0.0,0.0,0.0,0.0,0.0,0.0,0.0,0.0,0.0,0.0,0.0,0.0,0.0,0.0,0.0,0.0,0.0,0.0,0.0,0.0,0.0,0.0,0.0,0.0,0.0,0.0,0.0,0.0,0.0,0.0,0.0,0.0,0.0,0.0,0.0,0.0,0.0,0.0,0.0,0.0,0.0,0.0,0.0,0.0,0.0,0.0,0.0,0.0,0.0,0.0,0.0,0.0,0.0,0.0,0.0,0.0,0.0,0.0,0.0,0.0,0.0,0.0,0.0,0.0,0.0,0.0,0.0,0.0,0.0,0.0,0.0,0.0,0.0,0.0,0.0,0.0,0.0,0.0,0.0,0.0,0.0,0.0,0.0,0.0,0.0,0.0,0.0,0.0,0.0,0.0,0.0,0.0,0.0,0.0,0.0,0.0,0.0,0.0,0.0,0.0,0.0,0.0,0.0,0.0,0.0,0.0,0.0,0.0,0.0,0.0,0.0,0.0,0.0,0.0,0.0,0.0,0.0,0.0,0.0,0.0,0.0,0.0,0.0,0.0,0.0,0.0,0.0,0.0,0.0,0.0,0.0,0.0,0.0,0.0,0.0,0.0,0.0,0.0,0.0,0.0,0.0,0.0,0.0,0.0,0.0,0.0,0.0,0.0,0.0,0.0,0.0,0.0,0.0,0.0,0.0,0.0,0.0,0.0,0.0,0.0,0.0,0.0,0.0,0.0,0.0,0.0,0.0,0.0,0.0,0.0,0.0,0.0,0.0,0.0,0.0,0.0,0.0,0.0,0.0,0.0,0.0,0.0,0.0,0.0,0.0,0.0,0.0,0.0,0.0,0.0,0.0,0.0,0.0,0.0,0.0,0.0,0.0,0.0,0.0,0.0,0.0,0.0,0.0,0.0,0.0,0.0,0.0,0.0,0.0,0.0,0.0,0.0,0.0,0.0,0.0,0.0,0.0,0.0,0.0,0.0,0.0,0.0,0.0,0.0,0.0,0.0,0.0,0.0,0.0,0.0,0.0,0.0,0.0,0.0,0.0,0.0,0.0,0.0,0.0,0.0,1.755,0.0,0.0,0.0,0.0,0.0,0.0,0.0,0.0,0.0,0.0,0.0,0.0,0.0,0.0,0.0,0.0,0.0,0.0,0.0,0.0,0.0,0.0,0.0,0.0,0.0,0.0,0.0,0.0,0.0,0.0,0.0,0.0,0.0,0.0,0.0,0.0,0.0,0.0,0.0,0.0,0.0,0.0,0.0,0.0,0.0,0.0,0.0,0.0,0.0,0.0,0.0,0.0,0.0,0.0,0.0,0.0,0.0,0.0,0.0,0.0,0.0,0.0,0.0,0.0,0.0,0.0,0.0,0.0,0.0,0.0,0.0,0.0,0.0,0.0,0.0,0.0,0.0,0.0,0.0,0.0,0.0,0.0,0.0,0.0,0.0,0.0,0.0,0.0,0.0,0.0,0.0,0.0,0.0,0.0,0.0,0.0,0.0,0.0,0.0,0.0,0.0,0.0,0.0,0.0,0.0,0.0,0.0,0.0,0.0,0.0,1.7359,1.7352,1.7695,1.7905,1.7909,0.0,0.0,0.0,0.0,0.0,0.0,0.0,0.0,0.0,0.0,0.0,0.0,0.0,0.0,0.0,0.0,0.0,0.0,0.0,0.0,0.0,0.0,0.0,0.0,0.0,0.0,0.0,0.0,0.0,0.0,0.0,0.0,0.0,0.0,0.0,0.0,0.0,0.0,0.0,0.0,0.0,0.0,0.0,0.0,0.0,0.0,0.0,0.0,0.0,0.0,0.0,0.0,0.0,0.0,0.0,0.0,0.0,0.0,0.0,0.0,0.0,0.0,0.0,0.0,0.0,0.0,0.0,0.0,0.0,0.0,0.0,0.0,0.0,0.0,0.0,0.0,0.0,0.0,0.0,0.0,0.0,0.0,0.0,0.0,0.0,0.0,0.0,0.0,0.0,0.0,0.0,0.0,0.0,0.0,0.0,0.0,0.0,0.0,0.0,0.0,0.0,0.0,0.0,0.0,0.0,0.0,0.0,0.0,0.0,0.0,0.0,0.0,1.8364,1.8472,1.8464,0.0,0.0,0.0,0.0,0.0,0.0,0.0,0.0,0.0,0.0,0.0,0.0,0.0,0.0,0.0,0.0,0.0,0.0,0.0,0.0,0.0,0.0,0.0,0.0,0.0,0.0,0.0,0.0,0.0,0.0,0.0,0.0,0.0,0.0,0.0,0.0,0.0,0.0,0.0,0.0,0.0,0.0,0.0,0.0,0.0,0.0,0.0,0.0,0.0,0.0,0.0,0.0,0.0,0.0,0.0,0.0,0.0,0.0,0.0,0.0,0.0,0.0,0.0,0.0,0.0,0.0,0.0,0.0,0.0,0.0,0.0,0.0,0.0,0.0,0.0,0.0,0.0,0.0,0.0,0.0,0.0,0.0,0.0,0.0,0.0,0.0,0.0,0.0,0.0,0.0,0.0,0.0,0.0,0.0,0.0,0.0,0.0,0.0,0.0,0.0,0.0,0.0,0.0,0.0,0.0,0.0,0.0,0.0,0.0,0.0,1.9079,1.91,1.9799,0.0,2.0125,0.0,0.0,0.0,0.0,0.0,0.0,0.0,0.0,0.0,0.0,0.0,0.0,0.0,0.0,0.0,0.0,0.0,0.0,0.0,0.0,0.0,0.0,0.0,0.0,0.0,0.0,0.0,0.0,0.0,0.0,0.0,0.0,0.0,0.0,0.0,0.0,0.0,0.0,0.0,0.0,0.0,0.0,0.0,0.0,0.0,0.0,0.0,0.0,0.0,0.0,0.0,0.0,0.0,0.0,0.0,0.0,0.0,0.0,0.0,0.0,0.0,0.0,0.0,0.0,0.0,0.0,0.0,0.0,0.0,0.0,0.0,0.0,0.0,0.0,0.0,0.0,0.0,0.0,0.0,0.0,0.0,0.0,0.0,0.0,0.0,0.0,0.0,0.0,0.0,0.0,0.0,0.0,0.0,0.0,0.0,0.0,0.0,0.0,0.0,0.0,0.0,0.0,0.0,0.0,0.0,0.0,0.0,0.0,0.0,0.0,1.99,1.991,2.0214,2.0379,0.0,0.0,0.0,0.0,0.0,0.0,0.0,0.0,0.0,0.0,0.0,0.0,0.0,0.0,0.0,0.0,0.0,0.0,0.0,0.0,0.0,0.0,0.0,0.0,0.0,0.0,0.0,0.0,0.0,0.0,0.0,0.0,0.0,0.0,0.0,0.0,0.0,0.0,0.0,0.0,0.0,0.0,0.0,0.0,0.0,0.0,0.0,0.0,0.0,0.0,0.0,0.0,0.0,0.0,0.0,0.0,0.0,0.0,0.0,0.0,0.0,0.0,0.0,0.0,0.0,0.0,0.0,0.0,0.0,0.0,0.0,0.0,0.0,0.0,0.0,0.0,0.0,0.0,0.0,0.0,0.0,0.0,0.0,0.0,0.0,0.0,0.0,0.0,0.0,0.0,0.0,0.0,0.0,0.0,0.0,0.0,0.0,0.0,0.0,0.0,0.0,0.0,0.0,0.0,0.0,0.0,0.0,0.0,0.0,0.0,2.0653,2.0734,2.0712,2.0489,2.0352,2.0272,0.0,0.0,0.0,0.0,0.0,0.0,0.0,0.0,0.0,0.0,0.0,0.0,0.0,0.0,0.0,0.0,0.0,0.0,0.0,0.0,0.0,0.0,0.0,0.0,0.0,0.0,0.0,0.0,0.0,0.0,0.0,0.0,0.0,0.0,0.0,0.0,0.0,0.0,0.0,0.0,0.0,0.0,0.0,0.0,0.0,0.0,0.0,0.0,0.0,0.0,0.0,0.0,0.0,0.0,0.0,0.0,0.0,0.0,0.0,0.0,0.0,0.0,0.0,0.0,0.0,0.0,0.0,0.0,0.0,0.0,0.0,0.0,0.0,0.0,0.0,0.0,0.0,0.0,0.0,0.0,0.0,0.0,0.0,0.0,0.0,0.0,0.0,0.0,0.0,0.0,0.0,0.0,0.0,0.0,0.0,0.0,0.0,0.0,0.0,0.0,0.0,0.0,0.0,0.0,0.0,0.0,0.0,0.0,2.0362,2.1194,2.1604,2.1524,2.0743,2.026,0.0,0.0,0.0,0.0,0.0,0.0,0.0,0.0,0.0,0.0,0.0,0.0,0.0,0.0,0.0,0.0,0.0,0.0,0.0,0.0,0.0,0.0,0.0,0.0,0.0,0.0,0.0,0.0,0.0,0.0,0.0,0.0,0.0,0.0,0.0,0.0,0.0,0.0,0.0,0.0,0.0,0.0,0.0,0.0,0.0,0.0,0.0,0.0,0.0,0.0,0.0,0.0,0.0,0.0,0.0,0.0,0.0,0.0,0.0,0.0,0.0,0.0,0.0,0.0,0.0,0.0,0.0,0.0,0.0,0.0,0.0,0.0,0.0,0.0,0.0,0.0,0.0,0.0,0.0,0.0,0.0,0.0,0.0,0.0,0.0,0.0,0.0,0.0,0.0,0.0,0.0,0.0,0.0,0.0,0.0,0.0,0.0,0.0,0.0,0.0,0.0,0.0,0.0,0.0,0.0,0.0,0.0,0.0,0.0,2.0341,2.1217,2.1608,2.1529,2.1238,2.0551,0.0,0.0,0.0,0.0,0.0,0.0,0.0,0.0,0.0,0.0,0.0,0.0,0.0,0.0,0.0,0.0,0.0,0.0,0.0,0.0,0.0,0.0,0.0,0.0,0.0,0.0,0.0,0.0,0.0,0.0,0.0,0.0,0.0,0.0,0.0,0.0,0.0,0.0,0.0,0.0,0.0,0.0,0.0,0.0,0.0,0.0,0.0,0.0,0.0,0.0,0.0,0.0,0.0,0.0,0.0,0.0,0.0,0.0,0.0,0.0,0.0,0.0,0.0,0.0,0.0,0.0,0.0,0.0,0.0,0.0,0.0,0.0,0.0,0.0,0.0,0.0,0.0,0.0,0.0,0.0,0.0,0.0,0.0,0.0,0.0,0.0,0.0,0.0,0.0,0.0,0.0,0.0,0.0,0.0,0.0,0.0,0.0,0.0,0.0,0.0,0.0,0.0,0.0,0.0,0.0,0.0,0.0,0.0,0.0,2.1082,0.0,2.2145,2.1865,2.1703,2.0737,0.0,0.0,0.0,0.0,0.0,0.0,0.0,0.0,0.0,0.0,0.0,0.0,0.0,0.0,0.0,0.0,0.0,0.0,0.0,0.0,0.0,0.0,0.0,0.0,0.0,0.0,0.0,0.0,0.0,0.0,0.0,0.0,0.0,0.0,0.0,0.0,0.0,0.0,0.0,0.0,0.0,0.0,0.0,0.0,0.0,0.0,0.0,0.0,0.0,0.0,0.0,0.0,0.0,0.0,0.0,0.0,0.0,0.0,0.0,0.0,0.0,0.0,0.0,0.0,0.0,0.0,0.0,0.0,0.0,0.0,0.0,0.0,0.0,0.0,0.0,0.0,0.0,0.0,0.0,0.0,0.0,0.0,0.0,0.0,0.0,0.0,0.0,0.0,0.0,0.0,0.0,0.0,0.0,0.0,0.0,0.0,0.0,0.0,0.0,0.0,0.0,0.0,0.0,0.0,0.0,0.0,0.0,0.0,1.9503,2.2618,2.3284,2.3228,2.263,2.2083,2.087,0.0,0.0,0.0,0.0,0.0,0.0,0.0,0.0,0.0,0.0,0.0,0.0,0.0,0.0,0.0,0.0,0.0,0.0,0.0,0.0,0.0,0.0,0.0,0.0,0.0,0.0,0.0,0.0,0.0,0.0,0.0,0.0,0.0,0.0,0.0,0.0,0.0,0.0,0.0,0.0,0.0,0.0,0.0,0.0,0.0,0.0,0.0,0.0,0.0,0.0,0.0,0.0,0.0,0.0,0.0,0.0,0.0,0.0,0.0,0.0,0.0,0.0,0.0,0.0,0.0,0.0,0.0,0.0,0.0,0.0,0.0,0.0,0.0,0.0,0.0,0.0,0.0,0.0,0.0,0.0,0.0,0.0,0.0,0.0,0.0,0.0,0.0,0.0,0.0,0.0,0.0,0.0,0.0,0.0,0.0,0.0,0.0,0.0,0.0,0.0,0.0,0.0,0.0,0.0,0.0,0.0,0.0,0.0,0.0,2.2719,2.3448,2.3684,2.3408,2.2677,2.1453,0.0,0.0,0.0,0.0,0.0,0.0,0.0,0.0,0.0,0.0,0.0,0.0,0.0,0.0,0.0,0.0,0.0,0.0,0.0,0.0,0.0,0.0,0.0,0.0,0.0,0.0,0.0,0.0,0.0,0.0,0.0,0.0,0.0,0.0,0.0,0.0,0.0,0.0,0.0,0.0,0.0,0.0,0.0,0.0,0.0,0.0,0.0,0.0,0.0,0.0,0.0,0.0,0.0,0.0,0.0,0.0,0.0,0.0,0.0,0.0,0.0,0.0,0.0,0.0,0.0,0.0,0.0,0.0,0.0,0.0,0.0,0.0,0.0,0.0,0.0,0.0,0.0,0.0,0.0,0.0,0.0,0.0,0.0,0.0,0.0,0.0,0.0,0.0,0.0,0.0,0.0,0.0,0.0,0.0,0.0,0.0,0.0,0.0,0.0,0.0,0.0,0.0,0.0,0.0,0.0,0.0,0.0,0.0,0.0,2.3947,2.4771,2.4854,2.4138,2.3587,2.2224,1.999,0.0,0.0,0.0,0.0,0.0,0.0,0.0,0.0,0.0,0.0,0.0,0.0,0.0,0.0,0.0,0.0,0.0,0.0,0.0,0.0,0.0,0.0,0.0,0.0,0.0,0.0,0.0,0.0,0.0,0.0,0.0,0.0,0.0,0.0,0.0,0.0,0.0,0.0,0.0,0.0,0.0,0.0,0.0,0.0,0.0,0.0,0.0,0.0,0.0,0.0,0.0,0.0,0.0,0.0,0.0,0.0,0.0,0.0,0.0,0.0,0.0,0.0,0.0,0.0,0.0,0.0,0.0,0.0,0.0,0.0,0.0,0.0,0.0,0.0,0.0,0.0,0.0,0.0,0.0,0.0,0.0,0.0,0.0,0.0,0.0,0.0,0.0,0.0,0.0,0.0,0.0,0.0,0.0,0.0,0.0,0.0,0.0,0.0,0.0,0.0,0.0,0.0,0.0,0.0,0.0,0.0,0.0,0.0,2.6097,2.7056,2.6714,2.5001,2.4817,2.321,0.0,0.0,0.0,0.0,0.0,0.0,0.0,0.0,0.0,0.0,0.0,0.0,0.0,0.0,0.0,0.0,0.0,0.0,0.0,0.0,0.0,0.0,0.0,0.0,0.0,0.0,0.0,0.0,0.0,0.0,0.0,0.0,0.0,0.0,0.0,0.0,0.0,0.0,0.0,0.0,0.0,0.0,0.0,0.0,0.0,0.0,0.0,0.0,0.0,0.0,0.0,0.0,0.0,0.0,0.0,0.0,0.0,0.0,0.0,0.0,0.0,0.0,0.0,0.0,0.0,0.0,0.0,0.0,0.0,0.0,0.0,0.0,0.0,0.0,0.0,0.0,0.0,0.0,0.0,0.0,0.0,0.0,0.0,0.0,0.0,0.0,0.0,0.0,0.0,0.0,0.0,0.0,0.0,0.0,0.0,0.0,0.0,0.0,0.0,0.0,0.0,0.0,0.0,0.0,0.0,0.0,0.0,0.0,0.0,2.7587,2.8945,2.8891,2.738,2.613,2.4456,0.0,0.0,0.0,0.0,0.0,0.0,0.0,0.0,0.0,0.0,0.0,0.0,0.0,0.0,0.0,0.0,0.0,0.0,0.0,0.0,0.0,0.0,0.0,0.0,0.0,0.0,0.0,0.0,0.0,0.0,0.0,0.0,0.0,0.0,0.0,0.0,0.0,0.0,0.0,0.0,0.0,0.0,0.0,0.0,0.0,0.0,0.0,0.0,0.0,0.0,0.0,0.0,0.0,0.0,0.0,0.0,0.0,0.0,0.0,0.0,0.0,0.0,0.0,0.0,0.0,0.0,0.0,0.0,0.0,0.0,0.0,0.0,0.0,0.0,0.0,0.0,0.0,0.0,0.0,0.0,0.0,0.0,0.0,0.0,0.0,0.0,0.0,0.0,0.0,0.0,0.0,0.0,0.0,0.0,0.0,0.0,0.0,0.0,0.0,0.0,0.0,0.0,0.0,0.0,0.0,0.0,0.0,0.0,2.7079,2.9,3.0512,3.0715,2.9558,2.7631,2.5466,0.0,0.0,0.0,0.0,0.0,0.0,0.0,0.0,0.0,0.0,0.0,0.0,0.0,0.0,0.0,0.0,0.0,0.0,0.0,0.0,0.0,0.0,0.0,0.0,0.0,0.0,0.0,0.0,0.0,0.0,0.0,0.0,0.0,0.0,0.0,0.0,0.0,0.0,0.0,0.0,0.0,0.0,0.0,0.0,0.0,0.0,0.0,0.0,0.0,0.0,0.0,0.0,0.0,0.0,0.0,0.0,0.0,0.0,0.0,0.0,0.0,0.0,0.0,0.0,0.0,0.0,0.0,0.0,0.0,0.0,0.0,0.0,0.0,0.0,0.0,0.0,0.0,0.0,0.0,0.0,0.0,0.0,0.0,0.0,0.0,0.0,0.0,0.0,0.0,0.0,0.0,0.0,0.0,0.0,0.0,0.0,0.0,0.0,0.0,0.0,0.0,0.0,0.0,0.0,0.0,0.0,0.0,0.0,2.782,3.0112,3.1642,3.2046,3.1144,2.9028,2.6344,0.0,0.0,0.0,0.0,0.0,0.0,0.0,0.0,0.0,0.0,0.0,0.0,0.0,0.0,0.0,0.0,0.0,0.0,0.0,0.0,0.0,0.0,0.0,0.0,0.0,0.0,0.0,0.0,0.0,0.0,0.0,0.0,0.0,0.0,0.0,0.0,0.0,0.0,0.0,0.0,0.0,0.0,0.0,0.0,0.0,0.0,0.0,0.0,0.0,0.0,0.0,0.0,0.0,0.0,0.0,0.0,0.0,0.0,0.0,0.0,0.0,0.0,0.0,0.0,0.0,0.0,0.0,0.0,0.0,0.0,0.0,0.0,0.0,0.0,0.0,0.0,0.0,0.0,0.0,0.0,0.0,0.0,0.0,0.0,0.0,0.0,0.0,0.0,0.0,0.0,0.0,0.0,0.0,0.0,0.0,0.0,0.0,0.0,0.0,0.0,0.0,0.0,0.0,0.0,0.0,0.0,0.0,0.0,2.816,2.9846,3.1356,3.1707,3.0874,2.929,2.6885,0.0,0.0,0.0,0.0,0.0,0.0,0.0,0.0,0.0,0.0,0.0,0.0,0.0,0.0,0.0,0.0,0.0,0.0,0.0,0.0,0.0,0.0,0.0,0.0,0.0,0.0,0.0,0.0,0.0,0.0,0.0,0.0,0.0,0.0,0.0,0.0,0.0,0.0,0.0,0.0,0.0,0.0,0.0,0.0,0.0,0.0,0.0,0.0,1.9036,0.0,0.0,0.0,0.0,0.0,0.0,0.0,0.0,0.0,0.0,0.0,0.0,0.0,0.0,0.0,0.0,0.0,0.0,0.0,0.0,0.0,0.0,0.0,0.0,0.0,0.0,0.0,0.0,0.0,0.0,0.0,0.0,0.0,0.0,0.0,0.0,0.0,0.0,0.0,0.0,0.0,0.0,0.0,0.0,0.0,0.0,0.0,0.0,0.0,0.0,0.0,0.0,0.0,0.0,0.0,0.0,0.0,0.0,0.0,2.8567,3.0106,3.1613,3.1841,3.0576,2.905,2.6726,0.0,0.0,0.0,0.0,0.0,0.0,0.0,0.0,0.0,0.0,0.0,0.0,0.0,0.0,0.0,0.0,0.0,0.0,0.0,0.0,0.0,0.0,0.0,0.0,0.0,0.0,0.0,0.0,0.0,0.0,0.0,0.0,0.0,0.0,0.0,0.0,0.0,0.0,0.0,0.0,0.0,0.0,0.0,0.0,0.0,0.0,0.0,0.0,0.0,0.0,0.0,0.0,0.0,0.0,0.0,0.0,0.0,0.0,0.0,0.0,0.0,0.0,0.0,0.0,0.0,0.0,0.0,0.0,0.0,0.0,0.0,0.0,0.0,0.0,0.0,0.0,0.0,0.0,0.0,0.0,0.0,0.0,0.0,0.0,0.0,0.0,0.0,0.0,0.0,0.0,0.0,0.0,0.0,0.0,0.0,0.0,0.0,0.0,0.0,0.0,0.0,0.0,0.0,0.0,0.0,0.0,0.0,2.649,2.8866,3.0386,3.1983,3.1991,3.0243,2.8634,2.6289,2.3203,0.0,0.0,0.0,0.0,0.0,0.0,0.0,0.0,0.0,0.0,0.0,0.0,0.0,0.0,0.0,0.0,0.0,0.0,0.0,0.0,0.0,0.0,0.0,0.0,0.0,0.0,0.0,0.0,0.0,0.0,0.0,0.0,0.0,0.0,0.0,0.0,0.0,0.0,1.9782,1.9652,0.0,0.0,0.0,0.0,0.0,0.0,0.0,0.0,1.8966,0.0,0.0,0.0,0.0,0.0,0.0,0.0,0.0,0.0,0.0,0.0,0.0,0.0,0.0,0.0,0.0,0.0,0.0,0.0,0.0,0.0,0.0,0.0,0.0,0.0,0.0,0.0,0.0,0.0,0.0,0.0,0.0,0.0,0.0,0.0,0.0,0.0,0.0,0.0,0.0,0.0,0.0,0.0,0.0,0.0,0.0,0.0,0.0,0.0,0.0,0.0,0.0,0.0,0.0,0.0,0.0,2.3042,2.6121,2.8469,3.0061,3.1577,3.1581,2.9924,2.8293,2.5912,2.2684,0.0,0.0,0.0,0.0,0.0,0.0,0.0,0.0,0.0,0.0,0.0,0.0,0.0,0.0,0.0,0.0,0.0,0.0,0.0,0.0,0.0,0.0,0.0,0.0,0.0,0.0,0.0,0.0,0.0,0.0,0.0,0.0,0.0,0.0,0.0,0.0,0.0,0.0,0.0,1.9518,1.9398,0.0,0.0,0.0,0.0,0.0,0.0,0.0,0.0,1.9377,0.0,0.0,0.0,0.0,0.0,0.0,0.0,0.0,0.0,0.0,0.0,0.0,0.0,0.0,0.0,0.0,0.0,0.0,0.0,0.0,0.0,0.0,0.0,0.0,0.0,0.0,0.0,0.0,0.0,0.0,0.0,0.0,0.0,0.0,0.0,0.0,0.0,0.0,0.0,0.0,0.0,0.0,0.0,0.0,0.0,0.0,0.0,0.0,0.0,0.0,0.0,0.0,0.0,0.0,0.0,2.2755,2.5732,2.8097,2.9723,3.0872,3.0681,2.9005,2.7405,2.5017,0.0,0.0,0.0,0.0,0.0,0.0,0.0,0.0,0.0,0.0,0.0,0.0,0.0,0.0,0.0,0.0,0.0,0.0,0.0,0.0,0.0,0.0,0.0,0.0,0.0,0.0,0.0,0.0,0.0,0.0,0.0,0.0,0.0,0.0,0.0,0.0,0.0,0.0,0.0,0.0,2.0025,2.0079,2.0333,0.0,0.0,0.0,0.0,0.0,0.0,2.0363,1.9824,0.0,0.0,0.0,0.0,0.0,0.0,0.0,0.0,0.0,0.0,0.0,0.0,0.0,0.0,0.0,0.0,0.0,0.0,0.0,0.0,0.0,0.0,0.0,0.0,0.0,0.0,0.0,0.0,0.0,0.0,0.0,0.0,0.0,0.0,0.0,0.0,0.0,0.0,0.0,0.0,0.0,0.0,0.0,0.0,0.0,0.0,0.0,0.0,0.0,0.0,0.0,0.0,0.0,0.0,0.0,2.2271,2.5251,2.7518,2.9076,2.9936,2.9574,2.7913,2.633,2.4019,0.0,0.0,0.0,0.0,0.0,0.0,0.0,0.0,0.0,0.0,0.0,0.0,0.0,0.0,0.0,0.0,0.0,0.0,0.0,0.0,0.0,0.0,0.0,0.0,0.0,0.0,0.0,0.0,0.0,0.0,0.0,0.0,0.0,0.0,0.0,0.0,0.0,0.0,0.0,0.0,0.0,2.0876,2.1314,2.151,0.0,0.0,0.0,0.0,2.1137,2.0784,0.0,0.0,0.0,0.0,0.0,0.0,0.0,0.0,0.0,0.0,0.0,0.0,0.0,0.0,0.0,0.0,0.0,0.0,0.0,0.0,0.0,0.0,0.0,0.0,0.0,0.0,0.0,0.0,0.0,0.0,0.0,0.0,0.0,0.0,0.0,0.0,0.0,0.0,0.0,0.0,0.0,0.0,0.0,0.0,0.0,0.0,0.0,0.0,0.0,0.0,0.0,0.0,0.0,0.0,0.0,0.0,2.1811,2.4307,2.6337,2.7838,2.8759,2.8437,2.6809,2.5292,2.3301,0.0,0.0,0.0,0.0,0.0,0.0,0.0,0.0,0.0,0.0,0.0,0.0,0.0,0.0,0.0,0.0,0.0,0.0,0.0,0.0,0.0,0.0,0.0,0.0,0.0,0.0,0.0,0.0,0.0,0.0,0.0,0.0,0.0,0.0,0.0,0.0,0.0,0.0,0.0,0.0,0.0,2.1425,2.1329,2.1819,2.2153,0.0,0.0,2.2695,2.2485,2.1661,0.0,0.0,0.0,0.0,0.0,0.0,0.0,0.0,0.0,0.0,0.0,0.0,0.0,0.0,0.0,0.0,0.0,0.0,0.0,0.0,0.0,0.0,0.0,0.0,0.0,0.0,0.0,0.0,0.0,0.0,0.0,0.0,0.0,0.0,0.0,0.0,0.0,0.0,0.0,0.0,0.0,0.0,0.0,0.0,0.0,0.0,0.0,0.0,0.0,0.0,0.0,0.0,0.0,0.0,0.0,1.9407,2.0787,2.3556,2.5592,2.6818,2.7222,2.6887,2.5764,2.3799,2.1867,0.0,0.0,0.0,0.0,0.0,0.0,0.0,0.0,0.0,0.0,0.0,0.0,0.0,0.0,0.0,0.0,0.0,0.0,0.0,0.0,0.0,0.0,0.0,0.0,0.0,0.0,0.0,0.0,0.0,0.0,0.0,0.0,0.0,0.0,0.0,0.0,0.0,0.0,0.0,0.0,0.0,0.0,2.2457,2.3033,0.0,0.0,0.0,2.3162,2.2531,0.0,0.0,0.0,0.0,0.0,0.0,0.0,0.0,0.0,0.0,0.0,0.0,0.0,0.0,0.0,0.0,0.0,0.0,0.0,0.0,0.0,0.0,0.0,0.0,0.0,0.0,0.0,0.0,0.0,0.0,0.0,0.0,0.0,0.0,0.0,0.0,0.0,0.0,0.0,0.0,0.0,0.0,0.0,0.0,0.0,0.0,0.0,0.0,0.0,0.0,0.0,0.0,0.0,0.0,0.0,0.0,0.0,1.983,2.2762,2.4743,2.5697,2.5782,2.5471,2.4677,2.2471,0.0,0.0,0.0,0.0,0.0,0.0,0.0,0.0,0.0,0.0,0.0,0.0,0.0,0.0,0.0,0.0,0.0,0.0,0.0,0.0,0.0,0.0,0.0,0.0,0.0,0.0,0.0,1.6243,0.0,0.0,0.0,0.0,0.0,0.0,0.0,0.0,0.0,0.0,0.0,0.0,0.0,0.0,2.2833,2.3224,2.3751,2.385,0.0,0.0,2.3181,2.2361,2.1824,2.1228,0.0,0.0,0.0,0.0,0.0,0.0,0.0,0.0,0.0,0.0,0.0,0.0,0.0,0.0,0.0,0.0,0.0,0.0,0.0,0.0,0.0,0.0,0.0,0.0,0.0,0.0,0.0,0.0,0.0,0.0,0.0,0.0,0.0,0.0,0.0,0.0,0.0,0.0,0.0,0.0,0.0,0.0,0.0,0.0,0.0,0.0,0.0,0.0,0.0,0.0,0.0,0.0,0.0,0.0,0.0,1.9304,2.1787,2.3531,2.4381,2.4668,2.4381,2.3513,2.1485,1.9906,0.0,0.0,0.0,0.0,0.0,0.0,0.0,0.0,0.0,0.0,0.0,0.0,0.0,0.0,0.0,0.0,0.0,0.0,0.0,0.0,0.0,0.0,0.0,0.0,0.0,0.0,0.0,0.0,0.0,0.0,0.0,0.0,0.0,0.0,0.0,0.0,0.0,0.0,0.0,0.0,0.0,2.3165,2.2977,2.3342,2.3545,0.0,0.0,2.2745,2.2367,2.1446,2.0662,2.0259,0.0,0.0,0.0,0.0,0.0,0.0,0.0,0.0,0.0,0.0,0.0,0.0,0.0,0.0,0.0,0.0,0.0,0.0,0.0,0.0,0.0,0.0,0.0,0.0,0.0,0.0,0.0,0.0,0.0,0.0,0.0,0.0,0.0,0.0,0.0,0.0,0.0,0.0,0.0,0.0,0.0,0.0,0.0,0.0,0.0,0.0,0.0,0.0,0.0,0.0,0.0,0.0,0.0,1.7393,1.8155,2.0593,2.218,2.2786,2.2946,2.2921,2.2599,2.0447,1.9126,0.0,0.0,0.0,0.0,0.0,0.0,0.0,0.0,0.0,0.0,0.0,0.0,0.0,0.0,0.0,0.0,0.0,0.0,0.0,0.0,0.0,0.0,0.0,0.0,0.0,0.0,0.0,0.0,1.7254,1.7244,1.7782,0.0,0.0,0.0,0.0,0.0,0.0,0.0,0.0,0.0,0.0,2.2723,2.2453,2.3106,0.0,0.0,2.2427,2.2392,2.1362,2.0638,2.0076,1.9698,1.8899,0.0,0.0,0.0,0.0,0.0,0.0,0.0,0.0,0.0,0.0,0.0,0.0,0.0,0.0,0.0,0.0,0.0,0.0,0.0,0.0,0.0,0.0,0.0,0.0,0.0,0.0,0.0,0.0,0.0,0.0,0.0,0.0,0.0,0.0,0.0,0.0,0.0,0.0,0.0,0.0,0.0,0.0,0.0,0.0,0.0,0.0,0.0,0.0,0.0,0.0,0.0,0.0,1.6582,1.7257,1.9536,2.0983,2.1592,2.1752,2.1745,2.1544,1.9672,1.8509,0.0,0.0,0.0,0.0,0.0,0.0,0.0,0.0,0.0,0.0,0.0,0.0,0.0,0.0,0.0,0.0,0.0,0.0,0.0,0.0,0.0,0.0,0.0,0.0,0.0,0.0,0.0,0.0,1.7435,1.7504,1.8368,0.0,0.0,0.0,0.0,0.0,0.0,0.0,0.0,0.0,0.0,2.2021,2.1735,2.2378,2.2467,2.121,2.1596,2.159,2.0416,1.9773,1.9272,1.8845,0.0,0.0,0.0,0.0,0.0,0.0,0.0,0.0,0.0,0.0,0.0,0.0,0.0,0.0,0.0,0.0,0.0,0.0,0.0,0.0,0.0,0.0,0.0,0.0,0.0,0.0,0.0,0.0,0.0,0.0,0.0,0.0,0.0,0.0,0.0,0.0,0.0,0.0,0.0,0.0,0.0,0.0,0.0,0.0,0.0,0.0,0.0,0.0,0.0,0.0,0.0,0.0,0.0,1.5648,1.6718,1.8563,1.9967,2.0857,2.1255,2.1093,2.0426,1.9249,1.82,1.7327,0.0,0.0,0.0,0.0,0.0,0.0,0.0,0.0,0.0,0.0,0.0,0.0,0.0,0.0,0.0,0.0,0.0,0.0,0.0,0.0,0.0,0.0,0.0,0.0,0.0,0.0,1.7629,1.7709,1.8109,0.0,0.0,0.0,0.0,0.0,0.0,0.0,0.0,0.0,0.0,2.0698,2.1197,2.0781,2.1011,2.1105,2.0625,2.0406,2.0118,1.9618,1.8853,1.8164,0.0,0.0,0.0,0.0,0.0,0.0,0.0,0.0,0.0,0.0,0.0,0.0,0.0,0.0,0.0,0.0,0.0,0.0,0.0,0.0,0.0,0.0,0.0,0.0,0.0,0.0,0.0,0.4366,0.4837,0.0,0.0,0.0,0.0,0.0,0.0,0.0,0.0,0.0,0.0,0.0,0.8758,0.9061,0.0,0.0,0.0,0.0,0.0,0.0,0.0,0.0,0.0,0.0,0.0,0.0,1.5025,1.6239,1.7576,1.8775,1.9864,2.0207,2.0065,1.9461,1.8684,1.7669,1.6407,0.0,0.0,0.0,0.0,0.0,0.0,0.0,0.0,0.0,0.0,0.0,0.0,0.0,0.0,0.0,0.0,0.0,0.0,0.0,0.0,0.0,0.0,0.0,0.0,0.0,1.8006,0.0,0.0,0.0,0.0,0.0,0.0,0.0,0.0,0.0,0.0,0.0,1.9546,1.9082,1.9794,2.0167,1.9728,1.9849,1.9759,0.0,0.0,0.0,0.0,0.0,0.0,0.0,0.0,0.0,0.0,0.0,0.0,0.0,0.0,1.7344,1.7932,1.8173,1.8328,1.8341,0.0,0.0,0.0,0.0,0.0,0.0,0.0,0.0,0.0,0.0,0.0,0.0,0.0,0.0,0.0,0.0,0.3716,0.0,0.0,0.0,0.0,0.0,0.0,0.0,0.0,0.7367,0.7695,0.7889,0.8259,0.8587,0.0,0.8791,0.9066,0.0,0.0,0.0,0.0,0.0,0.0,0.0,0.0,1.4256,1.5581,1.65,1.7627,1.8902,1.906,1.8882,1.844,1.7681,1.6864,1.5901,1.5323,1.5015,0.0,0.0,0.0,0.0,0.0,0.0,0.0,0.0,0.0,0.0,0.0,0.0,0.0,0.0,0.0,0.0,0.0,0.0,0.0,0.0,0.0,0.0,0.0,1.8146,0.0,0.0,0.0,0.0,0.0,0.0,0.0,0.0,0.0,1.791,1.8515,1.8792,1.8439,1.8906,1.908,1.8478,0.0,0.0,0.0,0.0,0.0,0.0,0.0,1.6548,1.6608,1.6492,1.6551,1.7086,1.7176,1.7288,1.7684,0.0,0.0,1.8304,1.8528,1.8655,1.8655,1.8858,1.9106,1.9318,1.9586,1.9777,0.0,0.0,0.0,0.0,0.0,0.0,0.0,0.0,0.0851,0.1566,0.0,0.2322,0.0,0.0,0.0,0.0,0.0,0.0,0.0,0.0,0.6362,0.6659,0.6869,0.717,0.75,0.7875,0.8011,0.8172,0.8459,0.913,0.0,0.0,0.0,0.0,0.0,0.0,1.3326,1.4777,1.5459,1.6531,1.8051,1.7918,1.7633,1.7286,1.6306,1.5814,1.577,1.5595,1.5492,1.5477,1.4674,0.0,0.0,0.0,0.0,0.0,0.0,0.0,0.0,0.0,0.0,0.0,0.0,0.0,0.0,0.0,0.0,0.0,0.0,0.0,0.0,1.7612,0.0,0.0,0.0,0.0,0.0,0.0,0.0,0.0,0.0,0.0,1.7636,1.7877,1.7964,1.7932,0.0,0.0,0.0,0.0,1.6207,1.5903,1.6073,1.6127,1.5898,1.6143,1.6227,1.6009,0.0,0.0,1.696,1.7075,1.7451,1.8512,1.8687,1.8494,1.7716,1.7812,1.7958,1.7958,1.814,1.8311,1.887,1.9257,1.952,-0.6011,0.0,0.0,0.0,0.0,-0.2093,-0.1559,-0.0973,-0.0875,-0.0335,0.056,0.0746,0.0,0.0,0.0,0.0,0.0,0.0,0.4374,0.5006,0.5415,0.578,0.613,0.6602,0.6974,0.7338,0.7407,0.7672,0.8111,0.8424,0.8877,0.9435,0.0,0.0,0.0,0.0,1.2401,1.36,1.4651,1.5553,1.6402,1.7098,1.7185,1.6594,1.5903,1.5536,1.558,1.5477,1.5403,1.5358,1.4945,0.0,0.0,0.0,0.0,0.0,0.0,0.0,0.0,0.0,0.0,0.0,0.0,0.0,0.0,0.0,0.0,0.0,0.0,0.0,1.7068,1.7296,1.7439,0.0,0.0,0.0,0.0,0.0,0.0,0.0,0.0,0.0,1.6303,1.6641,1.6803,0.0,0.0,1.6434,1.5828,1.5342,1.4982,1.479,0.0,0.0,0.0,1.4977,1.5204,1.5435,1.5931,1.6399,1.6622,1.6918,1.7223,1.774,1.7883,1.7927,1.801,1.8521,1.9016,1.9195,1.9317,1.9476,1.9686,1.9821,1.9956,-0.7609,-0.6034,-0.4889,-0.3963,-0.3365,-0.3016,-0.2513,-0.2014,-0.1964,-0.1589,-0.0972,-0.0584,-0.0048,0.0611,0.1221,0.0,0.0,0.0,0.3503,0.402,0.4555,0.4962,0.5277,0.5828,0.6263,0.6583,0.6717,0.7017,0.7482,0.7623,0.8016,0.859,0.0,0.0,1.0368,1.0981,1.1826,1.2941,1.4066,1.5042,1.5799,1.6407,1.6346,1.5574,1.535,1.5255,1.5299,1.5314,1.5328,1.5253,1.4994,1.4558,0.0,0.0,0.0,0.0,0.0,0.0,0.0,0.0,0.0,0.0,0.0,1.5418,1.5697,0.0,0.0,0.0,1.634,1.6543,1.6785,1.6882,0.0,0.0,0.0,0.0,0.0,0.0,0.0,1.5428,1.5263,1.5219,1.5338,1.5338,1.549,1.5774,1.5622,1.5264,1.463,0.0,1.4089,1.3876,1.4155,1.4367,1.436,1.4505,1.4702,1.4954,1.5508,1.5952,1.6162,1.6493,1.6911,1.7321,1.7466,1.766,1.8173,1.8722,1.9142,1.9295,1.9406,1.9533,1.9764,1.993,2.0024,-0.9042,-0.7923,-0.6098,-0.4911,-0.4157,-0.3745,-0.3296,-0.2796,-0.2644,-0.2434,-0.2022,-0.162,-0.1163,-0.0655,0.0454,0.0,0.0,0.2247,0.2762,0.304,0.3793,0.4181,0.4408,0.4952,0.5391,0.5719,0.5991,0.627,0.6561,0.6808,0.7197,0.758,0.8656,0.9408,0.9958,1.0605,1.1468,1.2521,1.3658,1.4728,1.583,1.575,1.5286,1.4424,1.4749,1.4951,1.4982,1.5102,1.5162,1.5147,1.4932,1.4466,1.3861,0.0,0.0,0.0,0.0,0.0,0.0,0.0,0.0,0.0,0.0,0.0,0.0,0.0,0.0,0.0,1.6052,0.0,1.6409,1.6375,0.0,0.0,0.0,1.5898,1.5742,1.5342,1.5015,1.4876,0.0,0.0,0.0,0.0,1.4116,1.5048,1.4721,1.4143,1.3621,1.3501,1.3435,1.3259,1.3806,1.4214,1.4148,1.4399,1.4591,1.4469,1.4778,1.5106,1.5579,1.5972,1.6537,1.703,1.7298,1.7493,1.8237,1.8292,1.8415,1.855,1.8678,1.8848,1.9405,1.9577,1.975,-0.9983,-0.8639,-0.7669,-0.6411,-0.4996,-0.457,-0.4142,-0.371,-0.3544,-0.3225,-0.2724,-0.2417,-0.1759,-0.0807,-0.0202,0.0461,0.1051,0.1536,0.1943,0.2434,0.295,0.335,0.3691,0.4132,0.4515,0.4959,0.5234,0.5647,0.6147,0.6513,0.6956,0.7518,0.7959,0.8576,0.937,1.01,1.0763,1.1412,1.278,1.3856,1.4655,1.4689,1.4471,1.4124,1.4461,1.4665,1.4763,1.4856,1.4871,1.4839,1.4655,1.4491,1.4273,1.3483,0.0,0.0,0.0,0.0,0.0,0.0,0.0,0.0,0.0,1.4856,1.5025,0.0,1.5255,0.0,1.5667,1.5767,1.5826,1.5811,0.0,0.0,1.5925,1.5744,1.5889,1.5372,1.4797,1.4335,1.4161,1.3933,1.3565,1.3426,1.3314,1.3273,1.3246,1.3163,1.3001,1.2796,1.2782,1.3049,1.3403,1.3606,1.3642,1.3929,1.4189,1.413,1.4469,1.4765,1.4836,1.5432,1.5927,1.5999,1.6181,1.6615,1.7168,1.7292,1.7502,1.8055,1.8623,1.9047,1.9207,1.9217,1.9259,-1.0902,-0.9574,-0.8896,-0.7661,-0.6145,-0.5399,-0.4849,-0.4408,-0.4184,-0.3811,-0.3312,-0.2665,-0.1992,-0.127,-0.0688,-0.016,0.0327,0.0872,0.1377,0.1905,0.235,0.2796,0.3188,0.3633,0.4024,0.4411,0.4688,0.5069,0.5504,0.5941,0.6376,0.6853,0.7209,0.7731,0.8475,0.9446,1.0221,1.0793,1.2447,1.3552,1.4027,1.4159,1.4125,1.3921,1.406,1.4222,1.4401,1.4511,1.4588,1.4574,1.4497,1.442,1.4328,1.3632,1.3306,0.0,0.0,0.0,0.0,0.0,0.0,0.0,0.0,0.0,0.0,0.0,1.4989,0.0,1.5874,0.0,1.6097,1.5987,1.5988,1.6098,1.5654,1.5354,1.5244,1.4661,1.4049,1.3614,1.339,1.316,1.2806,1.2724,1.2598,1.2264,1.2354,1.2448,1.2437,1.2529,1.2692,1.2789,1.3087,1.3405,1.3456,1.3621,1.3761,1.3795,1.4083,1.4399,1.4416,1.4897,1.5296,1.5233,1.5423,1.5707,1.615,1.6281,1.6496,1.6996,1.7412,1.7955,1.8572,1.8787,1.8767,-1.1825,-1.0523,-0.9775,-0.8645,-0.7289,-0.6268,-0.5504,-0.4952,-0.4684,-0.4294,-0.3741,-0.2738,-0.2127,-0.179,-0.112,-0.0673,-0.0393,0.0336,0.0954,0.1459,0.1961,0.2408,0.285,0.3302,0.3635,0.3968,0.4242,0.457,0.4846,0.5289,0.5677,0.5946,0.649,0.6977,0.7486,0.8619,0.9684,1.0569,1.2311,1.3341,1.3608,1.3967,1.4017,1.3717,1.3734,1.378,1.3934,1.4111,1.4268,1.4319,1.4319,1.4305,1.4237,1.3645,1.3436,0.0,1.3372,0.0,0.0,0.0,0.0,0.0,0.0,0.0,0.0,1.463,1.5036,1.5744,1.6277,1.66,1.66,1.6387,1.6186,1.5985,1.54,1.4849,1.4385,1.3771,1.3237,1.2872,1.2543,1.2338,1.2288,1.2126,1.1927,1.1835,1.1948,1.2157,1.2146,1.2526,1.2813,1.2605,1.2964,1.3312,1.3425,1.3502,1.3502,1.3545,1.3768,1.4024,1.3999,1.4333,1.4581,1.4634,1.4651,1.4824,1.5221,1.5294,1.5432,1.5845,1.6002,1.6457,1.7644,1.8041,1.8101,-1.2486,-1.1164,-1.0523,-0.9361,-0.7919,-0.7235,-0.6376,-0.5454,-0.5128,-0.4629,-0.391,-0.3241,-0.2629,-0.2127,-0.157,-0.1066,-0.0505,0.028,0.0841,0.129,0.1684,0.213,0.2575,0.291,0.3241,0.3694,0.3858,0.4184,0.457,0.4798,0.5128,0.5677,0.6005,0.644,0.7031,0.0,0.0,0.0,1.1818,1.2493,1.2972,1.396,1.4092,1.3215,1.3668,0.0,1.3446,1.3648,1.3795,1.3908,1.3974,0.0,0.0,0.0,0.0,0.0,0.0,0.0,0.0,0.0,0.0,0.0,1.4901,1.4829,1.4868,1.537,1.5801,1.5959,1.6068,1.6087,1.5955,1.5748,1.5619,1.5708,1.5102,1.458,1.4462,1.3817,1.3185,1.257,1.2173,1.1926,1.1692,1.1528,1.154,1.1731,1.2109,1.2342,1.2527,1.2687,1.2781,1.2885,1.313,1.3302,1.3363,1.3407,1.3511,1.3528,1.3449,1.3473,1.3515,1.3635,1.3688,1.348,1.3605,1.3933,1.4196,1.4259,1.4536,1.5109,1.5413,1.579,1.6465,1.6795,1.6901,-1.3191,0.0,-1.1213,-1.0089,0.0,-0.809,-0.7343,-0.6475,-0.5773,-0.5011,-0.4301,-0.363,-0.3074,-0.2629,-0.2017,-0.1457,-0.0897,-0.028,0.0336,0.0898,0.1403,0.1908,0.2352,0.2631,0.3023,0.3471,0.3633,0.3855,0.4187,0.4467,0.4743,0.5069,0.5458,0.5896,0.6381,0.7176,0.8547,1.0423,1.1133,1.188,1.2604,1.3342,1.3575,1.3346,0.0,0.0,0.0,0.0,0.0,0.0,0.0,0.0,0.0,0.0,0.0,1.4408,1.4298,1.4324,1.4513,1.4538,1.4626,1.4916,1.5128,1.5157,1.5008,1.5678,1.6135,1.6148,1.6425,1.652,1.6336,1.6044,1.5768,1.5557,1.4792,1.4192,1.3752,1.3102,1.2393,1.185,1.151,1.1226,1.1124,1.1199,1.1358,1.1576,1.2163,1.2569,1.2647,1.2839,1.304,1.3147,1.3241,1.3302,1.3354,1.3407,1.3407,1.3415,1.3294,1.3172,1.318,1.326,1.3248,1.303,1.3199,1.3314,1.3447,1.3509,1.3684,1.4042,1.4273,1.4524,1.4853,1.5432,1.6002,-1.3874,-1.2668,-1.1873,-1.0747,-0.9544,-0.8864,-0.815,-0.7385,0.0,0.0,0.0,-0.4073,-0.3572,-0.313,-0.2462,-0.1849,-0.1289,-0.0841,-0.0224,0.0561,0.1122,0.1682,0.2128,0.2465,0.2858,0.3302,0.3471,0.3638,0.3852,0.4187,0.446,0.4519,0.4963,0.5403,0.5882,0.702,0.8249,0.9503,1.0379,1.1301,1.2246,1.2612,1.3024,1.3564,1.3279,1.3236,1.3514,1.3386,1.3428,1.3661,1.4187,1.4469,1.4545,1.4946,1.5119,1.4955,1.4925,1.4903,1.4871,1.4792,1.4802,1.486,1.5319,1.5492,1.5336,1.5929,1.6333,1.6333,1.6801,1.6989,1.6735,1.6367,1.5908,1.5242,1.4411,1.3616,1.2861,1.2147,1.151,1.1015,1.0769,1.0656,1.0677,1.0963,1.1274,1.1546,1.2182,1.2706,1.268,1.2972,1.3216,1.318,1.318,1.3294,1.3338,1.3285,1.3233,1.3241,1.3111,1.2981,1.2989,1.292,1.2928,1.2928,1.292,1.2936,1.2936,1.3014,1.3042,1.3155,1.3208,1.3268,1.3432,1.4091,1.4833,-1.4484,-1.3432,-1.2358,-1.132,-1.0394,-0.9475,-0.8474,-0.7461,-0.6436,-0.5618,-0.5018,-0.457,-0.407,-0.3516,-0.291,-0.2296,-0.1679,-0.1121,-0.0449,0.0,0.0785,0.129,0.1852,0.213,0.2519,0.2963,0.3302,0.3524,0.3796,0.3965,0.4187,0.4515,0.4791,0.5285,0.6,0.681,0.767,0.8573,0.9607,1.0685,1.1769,1.2425,1.2869,1.3118,1.363,1.383,1.3691,1.3899,1.4123,1.4252,1.4495,1.4661,1.4673,1.475,1.4787,1.4745,1.456,1.4663,1.5106,1.5006,1.5139,1.5528,1.5692,1.5898,1.6181,1.6358,1.6494,1.6494,1.6557,1.6479,1.6163,1.5756,1.5254,1.4525,1.3674,1.2822,1.2049,1.151,1.0972,1.0462,1.0368,1.0389,1.0524,1.0817,1.132,1.1775,1.2248,1.2671,1.2997,1.3078,1.2989,1.2928,1.2989,1.2989,1.2981,1.2981,1.3042,1.305,1.2928,1.2797,1.2813,1.2744,1.2683,1.2683,1.2683,1.2683,1.2683,1.2744,1.2867,1.292,1.2981,1.2981,1.2911,1.3063,1.3219,-1.5109,-1.4063,-1.2952,-1.1948,-1.0993,-0.9813,-0.883,-0.8043,-0.7235,-0.6431,-0.5563,-0.4956,-0.4401,-0.3901,-0.3241,-0.2575,-0.2015,-0.1457,-0.0841,-0.0168,0.0449,0.101,0.1459,0.1905,0.235,0.2798,0.3077,0.3355,0.3577,0.3799,0.4021,0.4242,0.4736,0.5344,0.6,0.6652,0.7402,0.8249,0.9242,1.0328,1.1477,1.2107,1.2638,1.3103,1.3448,1.3674,1.3764,1.3824,1.3917,1.4078,1.4578,1.4805,1.4858,1.513,1.5288,1.5241,1.5145,1.5169,1.5353,1.529,1.5321,1.5457,1.5525,1.557,1.568,1.5957,1.6132,1.6132,1.6032,1.5901,1.5635,1.5119,1.4571,1.3873,1.2919,1.2039,1.1351,1.0744,1.0241,0.991,0.9948,1.0111,1.026,1.0867,1.1459,1.187,1.2349,1.28,1.3094,1.3058,1.3042,1.305,1.305,1.2989,1.2928,1.2858,1.2928,1.2928,1.2805,1.2683,1.2691,1.2621,1.2621,1.2621,1.2621,1.2621,1.2621,1.2683,1.2683,1.2683,1.2621,1.2613,1.2552,1.2351,1.2422,-1.5679,-1.4625,-1.3497,-1.2349,-1.1214,-1.009,-0.9256,-0.8679,-0.8096,-0.7295,-0.6327,-0.5449,-0.4842,-0.4288,-0.3627,-0.2965,-0.2408,-0.185,-0.129,-0.0673,0.0056,0.0617,0.1122,0.1625,0.213,0.2577,0.2856,0.3132,0.3413,0.3688,0.3968,0.4135,0.4739,0.5289,0.5896,0.6549,0.7241,0.8025,0.8988,1.0028,1.1124,1.1728,1.2412,1.2996,1.3269,1.3502,1.3816,1.3856,1.3884,1.402,1.4627,1.4979,1.5076,1.5429,1.5656,1.5647,1.5591,1.5546,1.5424,1.5379,1.5322,1.521,1.5222,1.5131,1.5062,1.5345,1.557,1.5558,1.5513,1.5355,1.504,1.4536,1.3884,1.3218,1.2295,1.1451,1.0753,1.0123,0.9703,0.952,0.9688,0.9921,1.0304,1.0987,1.1554,1.1924,1.2445,1.285,1.2928,1.2928,1.305,1.3111,1.305,1.2928,1.2928,1.2797,1.2752,1.2744,1.2683,1.2621,1.2629,1.2629,1.2621,1.2621,1.2621,1.2621,1.2621,1.2621,1.2629,1.2629,1.2498,1.2305,1.2174,1.1988,1.1964,-1.6221,-1.5059,-1.3808,-1.229,-1.0791,-1.0316,-0.9732,-0.9099,-0.8586,-0.7996,-0.7246,-0.6209,-0.5391,-0.4787,-0.4184,-0.3574,-0.2963,-0.235,-0.1681,-0.1066,-0.0561,0.0056,0.0785,0.129,0.1794,0.224,0.2577,0.2968,0.3357,0.3527,0.3913,0.4408,0.4632,0.5018,0.5618,0.6322,0.6972,0.7723,0.8633,0.9577,1.0718,1.1528,1.2166,1.2647,1.3341,1.3805,1.3971,1.4367,1.4608,1.4619,1.4903,1.5129,1.5231,1.5334,1.5379,1.5468,1.539,1.5267,1.5165,1.5006,1.4983,1.496,1.4902,1.4832,1.4671,1.4706,1.4811,1.496,1.4983,1.4811,1.4362,1.3947,1.3415,1.2654,1.184,1.1065,1.0399,0.9873,0.9619,0.9658,0.9756,0.9988,1.058,1.1033,1.1443,1.2112,1.2496,1.2752,1.2805,1.2805,1.2813,1.2867,1.2805,1.2744,1.2683,1.2621,1.2629,1.2621,1.2621,1.2621,1.2621,1.2621,1.2621,1.2621,1.2621,1.2621,1.2621,1.2621,1.2621,1.2567,1.2436,1.2236,1.1973,1.1725,1.1909,-1.6929,-1.576,-1.4502,-1.2896,-1.1217,-1.071,-1.0205,-0.9636,-0.9008,-0.8427,-0.7842,-0.6972,-0.61,-0.5285,-0.4574,-0.3962,-0.335,-0.2742,-0.2071,-0.1344,-0.0896,-0.028,0.0505,0.0954,0.1402,0.1962,0.2411,0.2689,0.3023,0.3416,0.3919,0.447,0.4636,0.5018,0.5622,0.6268,0.6966,0.7664,0.858,0.9427,1.0249,1.1116,1.1819,1.2421,1.2977,1.3409,1.3668,1.4046,1.4326,1.4419,1.4651,1.4846,1.4903,1.4937,1.5051,1.5142,1.5096,1.5154,1.5357,1.5274,1.5303,1.5399,1.5394,1.5307,1.5109,1.4999,1.4928,1.4946,1.4806,1.4645,1.4456,1.3952,1.3326,1.2597,1.175,1.0996,1.0459,1.0019,0.9764,0.972,0.9941,1.0172,1.0562,1.1063,1.1591,1.2166,1.2428,1.256,1.2621,1.2683,1.2683,1.2683,1.2683,1.2683,1.2621,1.2621,1.2621,1.2621,1.2621,1.2621,1.2621,1.2621,1.2621,1.2621,1.2621,1.2621,1.2621,1.2621,1.2621,1.2567,1.2375,1.212,1.1732,1.1615,1.1769,-1.7741,-1.649,-1.4913,-1.3269,-1.1628,-1.1124,-1.0667,-1.0154,-0.9524,-0.8896,-0.8381,-0.7622,-0.681,-0.5891,-0.5069,-0.4294,-0.3685,-0.3077,-0.2406,-0.1679,-0.1177,-0.0561,0.0112,0.0561,0.1066,0.1572,0.2074,0.2467,0.2747,0.3249,0.3808,0.4252,0.4522,0.4908,0.5508,0.6209,0.6918,0.7616,0.8474,0.9211,0.994,1.071,1.1477,1.2126,1.2589,1.2987,1.3286,1.3563,1.3858,1.4046,1.4244,1.443,1.4523,1.4651,1.4743,1.488,1.4869,1.5049,1.5448,1.5434,1.5499,1.576,1.5672,1.5517,1.531,1.5049,1.4944,1.492,1.4665,1.4499,1.439,1.3853,1.3195,1.2593,1.1696,1.0978,1.0501,1.0128,0.9867,0.9858,1.0073,1.0404,1.0615,1.116,1.174,1.2058,1.2243,1.2305,1.2498,1.256,1.2621,1.2621,1.2621,1.2621,1.2621,1.2621,1.2621,1.2621,1.2621,1.2621,1.2621,1.2621,1.2621,1.2621,1.2621,1.2621,1.2621,1.2621,1.2498,1.2436,1.2251,1.1941,1.1685,1.1622,1.1622,-1.8598,-1.718,-1.484,-1.3181,-1.2026,-1.1628,-1.1175,-1.0616,-0.9976,-0.9458,-0.885,-0.8049,-0.7354,-0.6712,-0.5618,-0.4684,-0.3965,-0.3411,-0.274,-0.2127,-0.1513,-0.101,-0.0617,0.0112,0.0617,0.101,0.1572,0.2132,0.2691,0.319,0.3522,0.3852,0.4298,0.4787,0.5336,0.605,0.6761,0.7515,0.8262,0.8995,0.9777,1.0411,1.104,1.1704,1.2243,1.2656,1.2949,1.3152,1.3392,1.3641,1.3826,1.4052,1.437,1.4463,1.4589,1.4832,1.4821,1.5023,1.5411,1.5328,1.5389,1.569,1.5468,1.5133,1.5121,1.4813,1.4686,1.4707,1.454,1.4285,1.4007,1.3525,1.2873,1.2234,1.147,1.086,1.0387,1.011,1.0003,1.0027,1.0134,1.0438,1.0989,1.1365,1.1622,1.1872,1.2112,1.2305,1.2367,1.249,1.256,1.2621,1.2621,1.2621,1.2621,1.2621,1.2621,1.2621,1.2621,1.2621,1.2621,1.2621,1.2621,1.2621,1.2621,1.2621,1.2621,1.256,1.2436,1.2251,1.2065,1.1809,1.163,1.1622,1.1622,-1.8982,-1.6857,-1.5046,-1.368,-1.2657,-1.2116,-1.1578,-1.1015,-1.0352,-0.9725,-0.9204,-0.8474,-0.7777,-0.7079,-0.6209,-0.534,-0.457,-0.3965,-0.3297,-0.2627,-0.2071,-0.1457,-0.0841,-0.0393,0.0112,0.0729,0.1178,0.1852,0.2633,0.3079,0.3411,0.3796,0.4298,0.4787,0.5332,0.605,0.6761,0.7521,0.8256,0.8883,0.9539,1.0362,1.1015,1.1479,1.2256,1.2716,1.2919,1.3464,1.3868,1.4032,1.4399,1.4652,1.4803,1.5053,1.5153,1.5174,1.5263,1.547,1.578,1.5721,1.5775,1.609,1.5856,1.5548,1.5431,1.515,1.4992,1.4936,1.4608,1.4283,1.3987,1.3517,1.2982,1.24,1.1676,1.0991,1.0655,1.0356,1.0164,1.025,1.0332,1.0642,1.0947,1.1233,1.1413,1.174,1.1934,1.2058,1.2243,1.2367,1.2436,1.2567,1.2621,1.2621,1.2621,1.2621,1.2621,1.2621,1.2621,1.2621,1.2621,1.2621,1.2621,1.2621,1.2621,1.2621,1.2621,1.2436,1.2313,1.2158,1.1964,1.1747,1.163,1.1622,1.1622,-1.9318,-1.7034,-1.5731,-1.4444,-1.3248,-1.2598,-1.2017,-1.1469,-1.0761,-1.0146,-0.9524,-0.8837,-0.8143,-0.745,-0.6696,-0.5937,-0.5117,-0.4353,-0.3688,-0.3016,-0.2462,-0.1849,-0.1234,-0.0841,-0.0393,0.028,0.101,0.1738,0.2408,0.2854,0.3299,0.3747,0.4242,0.4791,0.5336,0.5996,0.6701,0.7402,0.8103,0.8771,0.9472,1.0271,1.0996,1.1535,1.2349,1.2886,1.2979,1.3506,1.3917,1.4194,1.4513,1.4777,1.4987,1.5258,1.5414,1.5435,1.5414,1.5616,1.5923,1.5844,1.5877,1.6187,1.5941,1.571,1.5556,1.5264,1.5088,1.4961,1.4606,1.4181,1.3821,1.3381,1.2842,1.2359,1.1677,1.1122,1.0807,1.0421,1.0225,1.0281,1.0478,1.0744,1.0996,1.1108,1.1296,1.1677,1.1755,1.1941,1.2182,1.2305,1.2367,1.2567,1.2621,1.2621,1.2621,1.2621,1.2621,1.2621,1.2621,1.2621,1.2621,1.2621,1.2621,1.2621,1.2621,1.2621,1.2498,1.2367,1.2267,1.2119,1.1909,1.1685,1.1622,1.1622,1.1622,-1.9639,-1.7763,-1.6837,-1.547,-1.3915,-1.3132,-1.2482,-1.1868,-1.1318,-1.0659,-0.994,-0.9145,-0.8508,-0.7818,-0.7074,-0.6372,-0.5719,-0.468,-0.3858,-0.3357,-0.2631,-0.2128,-0.1741,-0.1178,-0.0729,-0.0336,0.0841,0.1682,0.2071,0.2629,0.313,0.3635,0.4245,0.4791,0.5332,0.5932,0.6588,0.7295,0.7961,0.8689,0.9638,1.032,1.0989,1.1712,1.2503,1.3059,1.3214,1.3277,1.3597,1.3949,1.4111,1.4437,1.4952,1.5164,1.5217,1.5395,1.5279,1.5426,1.5758,1.5622,1.5583,1.5726,1.5584,1.5303,1.5137,1.4902,1.4715,1.4597,1.43,1.3881,1.3519,1.2972,1.249,1.212,1.1498,1.0996,1.0618,1.0238,1.0053,1.0244,1.0428,1.0681,1.1003,1.1122,1.1247,1.1567,1.17,1.1887,1.2065,1.2182,1.2367,1.256,1.2621,1.2621,1.2621,1.2621,1.2621,1.2621,1.2621,1.2621,1.2621,1.2621,1.2621,1.2621,1.2621,1.2621,1.2482,1.2297,1.2135,1.1971,1.1762,1.163,1.1622,1.1622,1.1622,-2.0677,-1.9041,-1.7848,-1.6501,-1.5107,-1.3973,-1.3084,-1.2363,-1.1778,-1.1116,-1.0403,-0.9569,-0.8883,-0.8302,-0.7503,-0.6858,-0.6322,-0.5285,-0.4408,-0.3799,-0.313,-0.2519,-0.2073,-0.1572,-0.0785,0.0168,0.0954,0.1514,0.2015,0.2627,0.3132,0.3638,0.419,0.4736,0.5277,0.5878,0.6583,0.7306,0.8069,0.8822,0.9612,1.0543,1.1337,1.1935,1.2627,1.3161,1.3588,1.392,1.416,1.4305,1.4687,1.5039,1.5369,1.5491,1.5614,1.5726,1.567,1.5634,1.5709,1.5501,1.5369,1.5342,1.5128,1.4883,1.4715,1.4556,1.4369,1.4249,1.401,1.3709,1.3329,1.2842,1.2359,1.1926,1.131,1.0744,1.0371,1.0053,0.9989,1.0053,1.0295,1.0611,1.0996,1.1129,1.1247,1.1498,1.163,1.1755,1.1996,1.212,1.2305,1.256,1.256,1.2621,1.2621,1.2621,1.2621,1.2621,1.2621,1.2621,1.2621,1.2621,1.2621,1.2621,1.2621,1.2552,1.2421,1.2236,1.2073,1.1894,1.1762,1.163,1.1622,1.1622,1.1622,-2.1693,-2.0147,-1.8721,-1.7288,-1.5974,-1.4653,-1.3621,-1.2793,-1.2206,-1.1569,-1.0863,-0.9976,-0.9309,-0.8732,-0.7877,-0.7187,-0.6712,-0.5732,-0.4904,-0.4187,-0.3408,-0.2796,-0.224,-0.1682,-0.0841,0.028,0.0954,0.1458,0.1903,0.2517,0.3079,0.3583,0.4187,0.4791,0.5332,0.5887,0.6564,0.7378,0.8146,0.8896,0.9765,1.0748,1.1548,1.2174,1.2744,1.3208,1.3709,1.4052,1.43,1.4428,1.4793,1.5205,1.5498,1.5488,1.5556,1.5662,1.5662,1.5604,1.5498,1.5352,1.5196,1.502,1.4775,1.4597,1.4419,1.4258,1.4139,1.401,1.389,1.364,1.3329,1.2842,1.2297,1.1802,1.1115,1.0555,1.0117,0.9868,0.9862,0.9983,1.0168,1.0548,1.0933,1.1115,1.124,1.149,1.1622,1.1685,1.1996,1.2065,1.2313,1.2498,1.256,1.2621,1.2621,1.2621,1.2621,1.2621,1.2621,1.2621,1.2621,1.2621,1.2621,1.2621,1.2621,1.249,1.2413,1.2236,1.2073,1.1879,1.17,1.163,1.1622,1.1622,1.1652,-2.2658,-2.1069,-1.9546,-1.8075,-1.6584,-1.5244,-1.4136,-1.3266,-1.2647,-1.2017,-1.1267,-1.0387,-0.9718,-0.9099,-0.8196,-0.7456,-0.682,-0.6055,-0.5289,-0.4574,-0.3685,-0.291,-0.2296,-0.1626,-0.0841,0.0056,0.0897,0.1457,0.1847,0.2408,0.3026,0.3583,0.4187,0.4787,0.534,0.5891,0.6668,0.7432,0.8158,0.908,1.0107,1.0806,1.1541,1.2435,1.285,1.3155,1.3519,1.3761,1.4019,1.4258,1.4547,1.4843,1.5088,1.5147,1.5254,1.5362,1.5264,1.5205,1.5147,1.5029,1.4902,1.4715,1.4538,1.4419,1.4258,1.407,1.395,1.389,1.3821,1.3649,1.3268,1.2842,1.2236,1.1622,1.0933,1.0308,0.9676,0.9676,0.9804,0.9983,1.0174,1.0491,1.0996,1.1101,1.1288,1.149,1.1622,1.1802,1.1996,1.2127,1.2313,1.2436,1.256,1.2621,1.2621,1.2621,1.2621,1.2621,1.2621,1.2621,1.2621,1.2621,1.2621,1.2621,1.256,1.2482,1.2351,1.2112,1.2003,1.1824,1.1692,1.1622,1.1645,1.1659,1.1721,-2.3712,-2.2512,-2.0931,-1.939,-1.7877,-1.642,-1.5034,-1.38,-1.3112,-1.2442,-1.166,-1.0753,-1.0035,-0.9406,-0.8626,-0.783,-0.7128,-0.6376,-0.5609,-0.4846,-0.4015,-0.2961,-0.2127,-0.1514,-0.0841,0.0056,0.0897,0.1457,0.1847,0.241,0.3028,0.3583,0.42,0.4802,0.5344,0.6095,0.6803,0.754,0.8516,0.9329,1.0174,1.102,1.1774,1.2397,1.2805,1.3155,1.3511,1.3769,1.4079,1.4276,1.4446,1.4616,1.4843,1.4843,1.4902,1.5088,1.5088,1.497,1.4843,1.4725,1.4538,1.4437,1.4249,1.407,1.395,1.389,1.3761,1.37,1.358,1.3459,1.3103,1.2858,1.2243,1.1373,1.0681,1.011,0.9798,0.9612,0.9676,0.9926,1.0047,1.0428,1.0863,1.1108,1.1233,1.156,1.1685,1.1802,1.2058,1.2182,1.2313,1.2498,1.2621,1.2621,1.2621,1.2621,1.2621,1.2621,1.2621,1.2621,1.2621,1.2621,1.2621,1.2621,1.2498,1.2359,1.2166,1.1981,1.1872,1.17,1.163,1.163,1.1655,1.1714,1.1897,-2.4689,-2.3546,-2.1989,-2.0364,-1.8682,-1.7276,-1.573,-1.4266,-1.3505,-1.2793,-1.2017,-1.1167,-1.0387,-0.971,-0.8935,-0.815,-0.7396,-0.6588,-0.5773,-0.4948,-0.3904,-0.285,-0.1903,-0.1458,-0.0841,-0.0,0.0897,0.1457,0.1847,0.241,0.3046,0.371,0.4276,0.4925,0.5588,0.6294,0.7056,0.7822,0.8751,0.9549,1.0383,1.1148,1.1849,1.2428,1.2797,1.3164,1.3511,1.3821,1.4079,1.4207,1.4387,1.4497,1.4606,1.4606,1.4675,1.4803,1.4803,1.4675,1.4556,1.4428,1.4378,1.4198,1.401,1.389,1.383,1.3761,1.358,1.3511,1.3511,1.3338,1.2981,1.2613,1.2058,1.1435,1.0681,1.011,0.9868,0.9676,0.974,0.9926,1.011,1.0364,1.0996,1.1122,1.131,1.156,1.174,1.1926,1.212,1.2243,1.2367,1.2498,1.2621,1.2621,1.2621,1.2621,1.2621,1.2621,1.2621,1.2621,1.256,1.256,1.2498,1.2498,1.2367,1.2236,1.2042,1.1919,1.1802,1.1685,1.1622,1.1655,1.178,1.1955,1.2131,-2.5554,-2.4331,-2.29,-2.1198,-1.9396,-1.7887,-1.6356,-1.482,-1.3962,-1.3132,-1.2314,-1.1619,-1.0753,-0.9961,-0.9145,-0.8408,-0.761,-0.6696,-0.5823,-0.4835,-0.368,-0.2514,-0.1902,-0.1458,-0.0841,-0.0,0.0897,0.1457,0.1903,0.241,0.3078,0.3768,0.4381,0.5118,0.5799,0.6538,0.7335,0.8131,0.8848,0.9681,1.053,1.1233,1.1864,1.2421,1.2911,1.3224,1.3511,1.3761,1.4019,1.3959,1.4327,1.4446,1.4515,1.4506,1.4515,1.4515,1.4506,1.4446,1.4267,1.4267,1.4198,1.401,1.3821,1.3761,1.37,1.364,1.3511,1.3511,1.3511,1.3338,1.2981,1.2359,1.1926,1.156,1.0996,1.0498,1.0053,0.9868,0.9868,1.0047,1.018,1.0561,1.0877,1.1136,1.1331,1.1685,1.1864,1.2058,1.2243,1.2305,1.2436,1.256,1.2621,1.2621,1.2621,1.2621,1.2621,1.2621,1.2621,1.256,1.2498,1.2498,1.2436,1.2305,1.2182,1.205,1.1926,1.1802,1.1762,1.1788,1.1736,1.1867,1.2014,1.2241,1.2438,-2.632,-2.5357,-2.4141,-2.2596,-2.0862,-1.9171,-1.7464,-1.58,-1.4446,-1.3447,-1.2628,-1.171,-1.0854,-1.0115,-0.9302,-0.8527,-0.7664,-0.6804,-0.5823,-0.4395,-0.3403,-0.2571,-0.1959,-0.1514,-0.0841,-0.0,0.0897,0.1457,0.1903,0.2477,0.3076,0.3804,0.4497,0.5126,0.5953,0.6784,0.7469,0.8178,0.9011,0.9825,1.0584,1.1247,1.1926,1.2482,1.3094,1.339,1.3519,1.37,1.383,1.395,1.4267,1.4455,1.4455,1.4455,1.4455,1.4336,1.4327,1.4267,1.4079,1.4019,1.3899,1.383,1.37,1.3571,1.3571,1.3511,1.3511,1.3511,1.3511,1.3338,1.3042,1.2674,1.2243,1.1809,1.1435,1.0989,1.0611,1.0244,1.0117,1.0244,1.0434,1.0688,1.1059,1.138,1.156,1.1802,1.1988,1.2174,1.2305,1.2436,1.2498,1.2621,1.2621,1.2621,1.2621,1.256,1.256,1.256,1.2552,1.2436,1.2375,1.2313,1.2251,1.212,1.1988,1.1864,1.1809,1.1751,1.1718,1.1787,1.1941,1.2131,1.2321,1.2541,1.2745,-2.7109,-2.6184,-2.5061,-2.3514,-2.1643,-1.984,-1.8066,-1.6337,-1.4735,-1.3589,-1.2667,-1.1751,-1.0897,-1.0064,-0.9309,-0.8527,-0.7557,-0.648,-0.5277,-0.4067,-0.3239,-0.2516,-0.1959,-0.1457,-0.0841,-0.0,0.0897,0.1457,0.1965,0.2563,0.3321,0.4136,0.4793,0.5547,0.6229,0.7049,0.7741,0.8334,0.9058,0.9843,1.0555,1.1247,1.1988,1.2613,1.3164,1.3398,1.3511,1.37,1.3761,1.389,1.4198,1.4336,1.4327,1.4327,1.4327,1.4207,1.4139,1.4079,1.395,1.383,1.3769,1.364,1.3571,1.3511,1.3511,1.3511,1.3511,1.3511,1.345,1.3398,1.3172,1.2805,1.2436,1.2182,1.1747,1.1365,1.1115,1.0681,1.0428,1.0561,1.0751,1.0996,1.131,1.156,1.1809,1.1988,1.2097,1.229,1.2436,1.256,1.256,1.2621,1.2621,1.2621,1.2621,1.256,1.256,1.249,1.2413,1.2236,1.212,1.2065,1.2011,1.1941,1.1864,1.1809,1.17,1.1711,1.1787,1.1941,1.2138,1.2394,1.2621,1.2797,1.3001,-2.7915,-2.6905,-2.5891,-2.4216,-2.2165,-2.0297,-1.8403,-1.6488,-1.4875,-1.3637,-1.2618,-1.185,-1.0947,-1.0012,-0.9256,-0.8415,-0.7283,-0.6091,-0.4838,-0.3907,-0.3183,-0.2571,-0.1959,-0.1401,-0.0729,0.0056,0.101,0.1626,0.209,0.2777,0.3556,0.4473,0.5296,0.5986,0.6672,0.7391,0.8027,0.8603,0.925,0.997,1.0624,1.131,1.2058,1.2797,1.318,1.3346,1.3519,1.364,1.3761,1.3769,1.4079,1.4079,1.401,1.4198,1.4267,1.4079,1.4079,1.395,1.383,1.3769,1.364,1.3511,1.3511,1.3511,1.3511,1.3511,1.3511,1.3511,1.345,1.3459,1.3302,1.2997,1.2744,1.2498,1.2058,1.1809,1.163,1.1247,1.1052,1.087,1.0996,1.131,1.1498,1.1747,1.1996,1.2182,1.2282,1.2405,1.2552,1.2621,1.2621,1.2621,1.2621,1.2621,1.2621,1.2506,1.2444,1.2428,1.2351,1.2174,1.1996,1.2073,1.2081,1.1809,1.1747,1.17,1.1796,1.1823,1.197,1.2051,1.2387,1.2694,1.2899,1.3053,1.3236,-2.8571,-2.7705,-2.6664,-2.4984,-2.2851,-2.0839,-1.8738,-1.6818,-1.4992,-1.3779,-1.2871,-1.1909,-1.0947,-1.0115,-0.919,-0.7978,-0.6637,-0.555,-0.4732,-0.3852,-0.3128,-0.2516,-0.2017,-0.1121,-0.0393,0.0336,0.1234,0.1852,0.2208,0.2892,0.3779,0.4552,0.5384,0.6125,0.6894,0.7596,0.8242,0.8888,0.953,1.0174,1.0807,1.1435,1.2182,1.292,1.3172,1.3354,1.3459,1.3511,1.358,1.3571,1.3881,1.3881,1.3821,1.4207,1.4336,1.4207,1.4079,1.395,1.383,1.364,1.358,1.3511,1.3511,1.3511,1.3511,1.3511,1.3511,1.3511,1.345,1.3459,1.3302,1.318,1.2997,1.2683,1.2498,1.2251,1.2065,1.1872,1.156,1.1247,1.1373,1.156,1.1747,1.1934,1.212,1.2305,1.2428,1.2482,1.2552,1.2621,1.2621,1.2621,1.2621,1.2621,1.2621,1.2452,1.239,1.2375,1.2305,1.2243,1.2135,1.2205,1.2143,1.1934,1.1854,1.1788,1.1858,1.2049,1.2343,1.2661,1.2844,1.3023,1.3226,1.3423,1.3475,-2.8372,-2.7277,-2.625,-2.4706,-2.2728,-2.0571,-1.8604,-1.6715,-1.4853,-1.3521,-1.2609,-1.1701,-1.0804,-0.9865,-0.8981,-0.7605,-0.6095,-0.5171,-0.4401,-0.3519,-0.2963,-0.2294,-0.1737,-0.0729,-0.0,0.0785,0.1684,0.232,0.2529,0.3323,0.4143,0.4967,0.5815,0.6526,0.7046,0.7722,0.8366,0.9011,0.9658,1.0301,1.0933,1.1677,1.2359,1.2858,1.3103,1.3224,1.3459,1.3511,1.3571,1.37,1.389,1.395,1.401,1.4198,1.4387,1.4139,1.4019,1.395,1.383,1.37,1.364,1.3511,1.3511,1.3511,1.3511,1.3511,1.3511,1.3511,1.3511,1.3459,1.3407,1.3354,1.318,1.2997,1.2813,1.2621,1.2436,1.2313,1.2003,1.163,1.1755,1.1934,1.1988,1.2174,1.2305,1.2428,1.2498,1.2567,1.2621,1.2621,1.2621,1.2621,1.2621,1.2621,1.2621,1.2506,1.239,1.2382,1.2375,1.2321,1.2251,1.2321,1.2251,1.212,1.2002,1.2115,1.2285,1.2503,1.2826,1.3185,1.3442,1.3615,1.3742,1.3848,1.3855,-2.7954,-2.681,-2.592,-2.4276,-2.21,-2.0242,-1.8139,-1.6109,-1.4399,-1.315,-1.2227,-1.1351,-1.0446,-0.9451,-0.8402,-0.7069,-0.5508,-0.4736,-0.3907,-0.3074,-0.2517,-0.1849,-0.1009,-0.0168,0.0561,0.14,0.213,0.278,0.3009,0.3784,0.4655,0.5454,0.6338,0.7003,0.7466,0.8047,0.863,0.921,0.9849,1.0555,1.131,1.1996,1.2552,1.2981,1.305,1.3224,1.3511,1.3571,1.3692,1.3821,1.4019,1.4139,1.4216,1.4396,1.4327,1.4019,1.401,1.401,1.395,1.3821,1.37,1.3571,1.3502,1.3511,1.3511,1.3511,1.3511,1.3511,1.3511,1.3511,1.3459,1.3407,1.3294,1.3172,1.2989,1.2736,1.2621,1.2436,1.2375,1.2189,1.2189,1.2189,1.2243,1.2305,1.2428,1.2498,1.2567,1.2567,1.2621,1.2621,1.2621,1.2621,1.2621,1.2621,1.2621,1.2621,1.2506,1.2436,1.2506,1.2514,1.2436,1.2359,1.2359,1.2428,1.2664,1.2814,1.2954,1.3068,1.3401,1.3738,1.3968,1.4091,1.3977,1.4065,1.4137,-2.7711,-2.7186,-2.6582,-2.4317,-2.1239,-2.0081,-1.7661,-1.4619,-1.3643,-1.2725,-1.1801,-1.0998,-1.0087,-0.8988,-0.7498,-0.6258,-0.5222,-0.4346,-0.3519,-0.2631,-0.1902,-0.1119,-0.0336,0.0393,0.1288,0.2076,0.2693,0.2912,0.3442,0.4317,0.5046,0.5833,0.672,0.7396,0.7922,0.8501,0.9215,0.9856,1.0428,1.1122,1.1879,1.2375,1.2744,1.2989,1.318,1.3415,1.37,1.3761,1.3821,1.401,1.4139,1.4156,1.4105,1.4345,1.4437,1.4419,1.4359,1.424,1.4198,1.401,1.3821,1.3761,1.364,1.3511,1.3511,1.3511,1.3511,1.3511,1.3511,1.3511,1.3511,1.345,1.3338,1.3164,1.305,1.2805,1.2683,1.2629,1.2498,1.2498,1.2436,1.2375,1.2367,1.2428,1.256,1.256,1.2621,1.2621,1.2621,1.2621,1.2683,1.2683,1.2744,1.2744,1.2744,1.2683,1.2683,1.2621,1.2683,1.276,1.2736,1.272,1.2842,1.296,1.3273,1.3553,1.368,1.3846,1.4063,1.4246,1.4419,1.433,1.4122,1.4209,1.4505,-2.6431,-2.6243,-2.5749,-2.4214,-2.1917,-1.9757,-1.7515,-1.5274,-1.3113,-1.1814,-1.1174,-1.0482,-0.9399,-0.8078,-0.6691,-0.5601,-0.4615,-0.3849,-0.2963,-0.2071,-0.1231,-0.0448,0.0392,0.1345,0.2296,0.2695,0.3411,0.4137,0.4484,0.5029,0.5701,0.6552,0.7288,0.7917,0.8441,0.9017,0.9658,1.0358,1.1115,1.1872,1.2305,1.2674,1.292,1.3285,1.3398,1.358,1.3821,1.401,1.4121,1.424,1.4428,1.4565,1.4584,1.4703,1.4821,1.4753,1.4715,1.4588,1.4428,1.43,1.4121,1.395,1.3769,1.364,1.3511,1.3511,1.3511,1.3511,1.3511,1.3511,1.3459,1.3407,1.3346,1.3172,1.305,1.2928,1.2744,1.2752,1.2691,1.2629,1.2621,1.256,1.249,1.256,1.2621,1.2621,1.2621,1.2621,1.2683,1.2683,1.2744,1.2867,1.2867,1.2867,1.2867,1.2858,1.2928,1.292,1.3033,1.3103,1.3094,1.3147,1.3268,1.35,1.3766,1.4043,1.432,1.4538,1.4673,1.4771,1.4848,1.4776,1.4705,1.4721,1.5015,-2.5422,-2.5388,-2.5089,-2.4159,-2.262,-2.0029,-1.7769,-1.5576,-1.3346,-1.1581,-1.046,-0.9592,-0.8389,-0.7122,-0.6036,-0.4999,-0.3953,-0.3183,-0.2293,-0.1399,-0.056,0.0224,0.1119,0.2184,0.291,0.3236,0.4135,0.498,0.5748,0.63,0.6823,0.7436,0.805,0.8554,0.9081,0.9588,1.0225,1.0989,1.1872,1.2428,1.2736,1.2972,1.3268,1.3511,1.3692,1.3812,1.4121,1.424,1.4419,1.4597,1.4725,1.4793,1.4921,1.493,1.5039,1.5029,1.505,1.5059,1.4834,1.4656,1.441,1.4181,1.395,1.3769,1.3631,1.3571,1.3502,1.3511,1.3511,1.345,1.3459,1.3354,1.3233,1.3111,1.305,1.2928,1.2867,1.2867,1.2867,1.2805,1.2805,1.2752,1.2744,1.2683,1.2683,1.2683,1.2683,1.2683,1.2744,1.2867,1.2981,1.3103,1.3164,1.3164,1.3155,1.3155,1.3164,1.3224,1.3398,1.3459,1.3511,1.3571,1.3692,1.3978,1.4224,1.4647,1.4962,1.5083,1.5249,1.5365,1.5417,1.5417,1.5355,1.5443,1.5584,-2.5216,-2.5216,-2.5362,-2.4157,-2.2097,-2.1845,-1.8941,-1.5355,-1.4339,-1.2184,-0.9578,-0.8283,-0.7272,-0.6362,-0.5382,-0.434,-0.3287,-0.246,-0.1567,-0.0615,0.028,0.1118,0.1956,0.2738,0.3519,0.4177,0.5023,0.5988,0.6944,0.7661,0.787,0.8083,0.8902,0.9366,0.9901,1.0534,1.117,1.1864,1.2552,1.2858,1.3103,1.3338,1.3631,1.3941,1.4121,1.4309,1.4656,1.4715,1.4775,1.4961,1.502,1.5079,1.5137,1.5156,1.5254,1.5332,1.541,1.542,1.5371,1.501,1.4656,1.4419,1.4181,1.395,1.3821,1.3769,1.37,1.3571,1.3571,1.3459,1.3415,1.3302,1.318,1.3111,1.305,1.2981,1.2928,1.2928,1.2928,1.2989,1.2989,1.2989,1.305,1.3042,1.2867,1.2867,1.292,1.292,1.3042,1.3164,1.3277,1.3329,1.345,1.345,1.3511,1.3571,1.37,1.3761,1.3881,1.3941,1.395,1.4061,1.4181,1.433,1.4581,1.5122,1.5579,1.5573,1.5654,1.5922,1.5991,1.5991,1.5982,1.5991,1.6272,-2.4793,-2.4774,-2.491,-2.4485,-2.362,-2.2069,-2.0282,-1.8033,-1.4829,-1.1428,-0.8231,-0.7171,-0.6303,-0.5487,-0.456,-0.3508,-0.2506,-0.1619,-0.0615,0.0335,0.1284,0.212,0.2901,0.3732,0.4567,0.5297,0.6091,0.6987,0.7863,0.867,0.9354,0.9675,0.9987,1.0368,1.0912,1.1538,1.222,1.2605,1.3164,1.3459,1.3649,1.3916,1.4207,1.441,1.4831,1.494,1.5039,1.5205,1.5323,1.5439,1.5498,1.5488,1.5478,1.5498,1.5594,1.5671,1.571,1.573,1.573,1.5371,1.501,1.4656,1.4419,1.4249,1.407,1.401,1.383,1.3761,1.37,1.3588,1.3467,1.3354,1.3241,1.3119,1.305,1.3042,1.3042,1.3111,1.3164,1.3224,1.3216,1.3216,1.3338,1.3459,1.3224,1.305,1.3094,1.3208,1.3338,1.3519,1.3631,1.3752,1.3872,1.3932,1.3932,1.4052,1.424,1.424,1.43,1.4359,1.4369,1.4616,1.4743,1.4818,1.492,1.5364,1.5657,1.5919,1.6147,1.6405,1.6533,1.6551,1.6621,1.6612,1.6811,-2.4296,-2.4279,-2.4314,-2.4535,-2.4496,-2.2792,-2.1524,-2.0052,-1.5775,-1.1062,-0.718,-0.6253,-0.555,-0.478,-0.3619,-0.2508,-0.1448,-0.0502,0.0557,0.1561,0.245,0.3284,0.4171,0.4995,0.5764,0.6455,0.7253,0.8098,0.885,0.9538,1.0279,1.0872,1.1277,1.1554,1.1787,1.265,1.3199,1.3519,1.3821,1.4172,1.4359,1.4556,1.4862,1.5001,1.5342,1.5527,1.5614,1.572,1.5836,1.5894,1.5961,1.6029,1.6029,1.5961,1.6009,1.6009,1.6019,1.5972,1.5961,1.5662,1.5303,1.501,1.4843,1.4606,1.4419,1.424,1.4121,1.395,1.389,1.3769,1.364,1.3536,1.3415,1.3346,1.3346,1.3346,1.3407,1.3407,1.3459,1.358,1.358,1.358,1.364,1.3761,1.37,1.3528,1.3528,1.364,1.3761,1.3941,1.4061,1.424,1.4359,1.4428,1.4428,1.4547,1.4606,1.4606,1.4666,1.4715,1.4784,1.5029,1.5098,1.5067,1.5219,1.5546,1.5918,1.6338,1.6685,1.6968,1.706,1.7047,1.7038,1.7097,1.7217,-2.3687,-2.3726,-2.3767,-2.4061,-2.4388,-2.4383,-2.2898,-2.0604,-1.6908,-1.219,-0.711,-0.5793,-0.4893,-0.4177,-0.2619,-0.1337,-0.0167,0.0835,0.1836,0.289,0.3883,0.4659,0.542,0.6234,0.7047,0.7688,0.8394,0.9172,0.9923,1.0432,1.1146,1.2,1.2496,1.2873,1.2626,1.3338,1.4001,1.4419,1.4597,1.4883,1.505,1.5245,1.5468,1.57,1.5941,1.6066,1.6181,1.6285,1.6343,1.6353,1.6353,1.6353,1.6363,1.6239,1.6239,1.6374,1.6239,1.6239,1.6316,1.5961,1.5662,1.542,1.5196,1.502,1.4775,1.4588,1.4419,1.4249,1.413,1.4001,1.389,1.3769,1.3709,1.37,1.37,1.3769,1.3761,1.3821,1.3872,1.3992,1.401,1.4019,1.407,1.413,1.4181,1.4061,1.401,1.407,1.4181,1.4309,1.4478,1.4597,1.4784,1.4902,1.4902,1.497,1.5029,1.5029,1.5029,1.5137,1.5137,1.5264,1.5274,1.5264,1.5458,1.5731,1.6321,1.6884,1.7288,1.7629,1.756,1.7529,1.752,1.7598,1.7745,-2.2845,-2.2912,-2.2926,-2.3118,-2.341,-2.3926,-2.3598,-2.2105,-1.7489,-1.2664,-0.8733,-0.6146,-0.3953,-0.2617,-0.1169,0.0167,0.1336,0.2334,0.339,0.4484,0.5467,0.6279,0.7036,0.7829,0.8528,0.9103,0.9688,1.0269,1.0927,1.1328,1.1956,1.2706,1.3689,1.4249,1.4273,1.4638,1.5001,1.5216,1.54,1.5584,1.5748,1.5921,1.6093,1.6389,1.656,1.6673,1.6797,1.6842,1.6909,1.6909,1.6909,1.6853,1.6797,1.674,1.6684,1.6705,1.6581,1.6581,1.6648,1.6467,1.6192,1.5904,1.5614,1.543,1.5177,1.501,1.4843,1.4606,1.4538,1.4419,1.4291,1.413,1.407,1.4181,1.4181,1.4181,1.4172,1.4231,1.435,1.441,1.4478,1.4606,1.4725,1.4775,1.4824,1.4765,1.4706,1.4538,1.4597,1.4725,1.4852,1.502,1.5137,1.5313,1.5381,1.5439,1.5498,1.5498,1.5556,1.5614,1.5672,1.5614,1.5624,1.5682,1.5771,1.5979,1.6748,1.7453,1.8036,1.8325,1.825,1.8154,1.8144,1.8203,1.835,-2.1848,-2.1967,-2.1973,-2.2057,-2.2356,-2.3275,-2.3346,-2.1732,-1.6932,-1.2961,-0.9887,-0.5832,-0.2559,-0.0723,0.0668,0.2334,0.3611,0.4368,0.5291,0.6382,0.734,0.8134,0.8874,0.9563,1.0171,1.0637,1.114,1.1665,1.208,1.2211,1.2733,1.359,1.4603,1.5306,1.5614,1.593,1.5931,1.6083,1.6265,1.6379,1.6549,1.6729,1.6832,1.7067,1.7234,1.7346,1.7401,1.7457,1.7523,1.7523,1.7468,1.7468,1.7346,1.7245,1.719,1.7088,1.6909,1.6909,1.6853,1.6751,1.6534,1.6306,1.6077,1.5894,1.571,1.5536,1.5313,1.5128,1.501,1.4883,1.4824,1.4597,1.4656,1.4765,1.4765,1.4706,1.4765,1.4824,1.4824,1.4942,1.5001,1.5186,1.5371,1.5478,1.5594,1.5526,1.5468,1.5245,1.5069,1.5137,1.5264,1.5439,1.5546,1.5662,1.5778,1.5836,1.5904,1.6029,1.6029,1.6077,1.6019,1.5961,1.6029,1.6039,1.611,1.6443,1.7328,1.8047,1.8678,1.8957,1.8921,1.8818,1.8761,1.8795,1.8907,-2.0815,-2.0847,-2.0879,-2.091,-2.1203,-2.2243,-2.1671,-1.9536,-1.6052,-1.3431,-1.1074,-0.4546,-0.054,0.1326,0.266,0.4529,0.6338,0.6796,0.7629,0.8469,0.9446,1.0132,1.0789,1.1405,1.1899,1.2318,1.2715,1.3127,1.3396,1.3408,1.3773,1.4403,1.5326,1.6115,1.667,1.6992,1.6938,1.7069,1.7101,1.7279,1.7457,1.7523,1.7689,1.7854,1.7952,1.8018,1.8073,1.8139,1.8127,1.8127,1.8084,1.803,1.7909,1.781,1.7645,1.7479,1.7179,1.7123,1.7067,1.7032,1.692,1.6818,1.6694,1.6457,1.6171,1.5999,1.5884,1.5652,1.5536,1.5478,1.542,1.542,1.5352,1.541,1.541,1.541,1.541,1.541,1.541,1.5468,1.5536,1.5652,1.5884,1.6056,1.6171,1.6124,1.6056,1.5989,1.5826,1.5662,1.5788,1.5904,1.5951,1.6009,1.6124,1.6239,1.6239,1.6363,1.6363,1.6353,1.6353,1.6353,1.641,1.6431,1.6436,1.6877,1.7867,1.8659,1.9314,1.9473,1.9615,1.9362,1.9173,1.9251,1.9406,-1.9207,-1.925,-1.9133,-1.914,-1.9346,-1.9993,-2.0934,-2.1566,-1.886,-1.5575,-1.1207,-0.2905,0.1397,0.3439,0.6152,0.7588,0.8397,0.916,1.0012,1.0872,1.1701,1.2272,1.2819,1.3351,1.3767,1.4046,1.438,1.4654,1.4914,1.4879,1.5159,1.5909,1.6339,1.6995,1.7495,1.8017,1.8135,1.8151,1.8101,1.8159,1.8278,1.8398,1.8506,1.856,1.8655,1.8721,1.8721,1.8774,1.8774,1.8721,1.8625,1.8518,1.841,1.8282,1.8098,1.7833,1.77,1.7623,1.7534,1.7479,1.7423,1.7423,1.7368,1.7032,1.6684,1.6513,1.64,1.6228,1.6114,1.6056,1.6056,1.5989,1.5989,1.6046,1.5989,1.5989,1.5989,1.6056,1.6056,1.6056,1.6114,1.6228,1.6457,1.6513,1.6637,1.6648,1.6648,1.6627,1.6513,1.6285,1.6239,1.6353,1.641,1.6457,1.6524,1.6637,1.6637,1.6648,1.6694,1.674,1.6797,1.6797,1.6786,1.6945,1.7269,1.7744,1.8381,1.9189,2.002,2.0151,2.0227,1.99,1.9745,1.986,2.0111,-1.7491,-1.7411,-1.7169,-1.7075,-1.7103,-1.7297,-1.8446,-1.9464,-1.8684,-1.5976,-1.1693,-0.3583,0.2732,0.7144,0.9292,1.0466,1.1005,1.1892,1.2735,1.3407,1.4056,1.4541,1.5,1.5333,1.562,1.5874,1.6046,1.6261,1.6439,1.6604,1.6883,1.729,1.7531,1.7644,1.8143,1.8799,1.9259,1.9221,1.916,1.9137,1.9186,1.9239,1.9303,1.9356,1.9448,1.9448,1.9448,1.946,1.9396,1.9396,1.9251,1.9105,1.8934,1.8768,1.8619,1.8356,1.8302,1.8247,1.8139,1.7975,1.7975,1.7975,1.7975,1.77,1.7412,1.7134,1.6965,1.674,1.6684,1.6627,1.6627,1.6616,1.6627,1.6627,1.6627,1.656,1.6627,1.6627,1.6684,1.6694,1.6797,1.6909,1.7022,1.7088,1.7145,1.72,1.7256,1.7245,1.7067,1.6842,1.6729,1.6797,1.6853,1.6853,1.6976,1.7088,1.7088,1.7145,1.7211,1.7256,1.7245,1.7345,1.7378,1.7761,1.828,1.877,1.916,1.9958,2.0711,2.0786,2.082,2.0736,2.0599,2.0709,2.0992,-1.5564,-1.5277,-1.4966,-1.4619,-1.4472,-1.4192,-1.4155,-1.4354,-1.5206,-1.4581,-1.0726,-0.453,0.3858,1.04,1.2569,1.3395,1.4048,1.4846,1.5429,1.6082,1.6537,1.6915,1.713,1.7384,1.7556,1.7704,1.7784,1.7863,1.7879,1.7932,1.8187,1.8635,1.8323,1.8368,1.8824,1.9458,1.9898,2.0199,2.0136,2.0065,2.0092,2.0093,2.0156,2.022,2.0271,2.022,2.022,2.0156,2.0042,1.9991,1.9901,1.9759,1.9457,1.9316,1.9146,1.9028,1.8934,1.8839,1.8732,1.856,1.8506,1.8452,1.8464,1.8344,1.8182,1.7799,1.7523,1.7357,1.7301,1.7245,1.7245,1.7245,1.7245,1.7301,1.7245,1.7234,1.7245,1.7245,1.7301,1.7312,1.739,1.7501,1.749,1.7557,1.7623,1.7723,1.7755,1.781,1.7788,1.7501,1.739,1.7346,1.7357,1.7412,1.7468,1.7534,1.759,1.7656,1.7711,1.7755,1.7799,1.7889,1.7946,1.8476,1.8986,1.9526,2.0084,2.0726,2.1152,2.1204,2.1273,2.1487,2.1502,2.1604,2.1879,-1.3367,-1.3007,-1.2081,-1.1438,-1.0874,-1.0294,-0.9747,-0.9255,-0.8613,-0.6516,-0.3144,0.0811,0.6756,1.4111,1.5889,1.6682,1.7255,1.7687,1.8215,1.8528,1.8903,1.901,1.915,1.9286,1.9396,1.9385,1.9409,1.933,1.9236,1.9266,1.931,1.9472,1.9236,1.9324,1.9438,2.0001,2.0436,2.0841,2.1128,2.1117,2.1081,2.0904,2.0795,2.0894,2.0944,2.0894,2.0845,2.0795,2.0683,2.0597,2.051,2.031,2.001,1.9963,1.9786,1.9633,1.9606,1.9488,1.9356,1.9251,1.9146,1.9146,1.9146,1.9146,1.8934,1.8464,1.8139,1.7975,1.792,1.7909,1.7909,1.792,1.792,1.792,1.7909,1.7909,1.7909,1.7909,1.7909,1.7931,1.7965,1.7965,1.8009,1.8075,1.8098,1.8196,1.8336,1.8422,1.8518,1.8387,1.8159,1.8116,1.792,1.792,1.7975,1.8018,1.8084,1.803,1.8096,1.8193,1.829,1.8348,1.8464,1.9086,1.9666,2.0182,2.0664,2.1193,2.1498,2.1596,2.1776,2.1942,2.2344,2.2491,2.2833,-1.0939,-1.0364,-0.8987,-0.8023,-0.7241,-0.6231,-0.5132,-0.385,-0.1752,0.1733,0.523,0.6376,1.0129,1.7145,1.897,1.9722,2.015,2.0424,2.06,2.0809,2.0904,2.0972,2.1068,2.1026,2.0967,2.0923,2.0783,2.0654,2.0522,2.0405,2.0387,2.0366,2.0265,2.0193,2.02,2.0531,2.0903,2.1178,2.1842,2.2106,2.2027,2.1876,2.169,2.1752,2.1704,2.1657,2.1609,2.1609,2.1492,2.1299,2.1153,2.0951,2.0742,2.0601,2.0468,2.0354,2.0293,2.0194,2.0003,1.9914,1.9875,1.9875,1.9772,1.972,1.972,1.9291,1.8975,1.8804,1.8655,1.8602,1.8655,1.8667,1.8732,1.8732,1.8721,1.8721,1.8667,1.8602,1.856,1.8518,1.8541,1.8511,1.8553,1.8583,1.8649,1.8744,1.8839,1.8946,1.9105,1.9198,1.9028,1.8869,1.8709,1.8541,1.8511,1.8541,1.856,1.8518,1.8518,1.8625,1.8721,1.8798,1.8952,1.9674,2.0327,2.0759,2.1248,2.1774,2.2053,2.2175,2.2283,2.2416,2.2886,2.3405,2.3712,-0.8293,-0.7342,-0.5775,-0.4574,-0.3576,-0.2155,-0.0587,0.1366,0.4583,0.881,1.2614,1.1109,1.4528,1.8645,2.1461,2.2095,2.2465,2.2413,2.2611,2.2655,2.2698,2.2594,2.2513,2.2511,2.2332,2.2129,2.1961,2.1814,2.1645,2.1526,2.1393,2.1305,2.1165,2.107,2.1037,2.1185,2.1412,2.1738,2.2255,2.2874,2.2912,2.2849,2.2682,2.2649,2.2634,2.2649,2.2558,2.248,2.2356,2.217,2.1874,2.1684,2.1532,2.1415,2.1253,2.1158,2.1046,2.0979,2.0858,2.0723,2.0673,2.0586,2.0435,2.0385,2.0372,2.0169,1.985,1.9643,1.9488,1.9279,1.9344,1.9356,1.9408,1.9473,1.946,1.9408,1.9344,1.9291,1.9198,1.9093,1.9117,1.9088,1.9129,1.9105,1.9186,1.9279,1.9384,1.95,1.9656,1.9759,1.9747,1.9631,1.954,1.9368,1.9165,1.9076,1.9081,1.9081,1.9081,1.9081,1.9146,1.9263,1.9629,2.0458,2.1043,2.1326,2.1861,2.2433,2.2641,2.2653,2.2592,2.2701,2.3487,2.4026,2.453,-0.5143,-0.3455,-0.2358,-0.1259,0.0,0.1578,0.3401,0.5645,0.8792,1.2423,1.525,1.7931,2.0322,2.3023,2.3589,2.3921,2.3793,2.3942,2.403,2.4046,2.3931,2.3911,2.3787,2.3535,2.3415,2.3191,2.2952,2.281,2.2591,2.2522,2.2398,2.2224,2.2074,2.1948,2.179,2.1864,2.1811,2.2143,2.2702,2.3295,2.3647,2.359,2.3492,2.3465,2.3465,2.3421,2.3363,2.3231,2.3143,2.292,2.2649,2.2505,2.2381,2.2212,2.2072,2.1941,2.1824,2.1704,2.1636,2.1541,2.1444,2.141,2.1299,2.1264,2.1215,2.1068,2.0809,2.066,2.0409,1.994,1.9901,1.985,1.9862,1.9914,1.9914,1.9862,1.9798,1.9798,1.9747,1.9695,1.9708,1.972,1.972,1.9747,1.9837,1.9927,2.0067,2.0181,2.0271,2.0308,2.0409,2.0359,2.0308,2.0016,1.9768,1.9641,1.9643,1.9643,1.9643,1.9656,1.9708,1.9772,2.0273,2.1124,2.1531,2.1786,2.2325,2.2996,2.2934,2.2884,2.2726,2.2911,2.3814,2.4486,2.4913]},{"header":{"parameterUnit":"m.s-1","parameterCategory":1,"la1":31.0,"la2":29.5877,"lo1":-88.7671,"lo2":-86.6584,"dy":0.0162,"dx":0.0185,"nx":115,"ny":88,"refTime":"2024-05-10T06:00:00:Z","depth":0,"parameterNumber":3,"parameterNumberName":"V-component_of_WINDS"},"data":[0.0,0.0,0.0,0.0,0.0,0.0,0.0,0.0,0.0,0.0,0.0,0.0,0.0,0.0,0.0,0.0,0.0,0.0,0.0,0.0,0.0,0.0,0.0,0.0,0.0,0.0,0.0,0.0,0.0,0.0,0.0,0.0,0.0,0.0,0.0,0.0,0.0,0.0,0.0,0.0,0.0,0.0,0.0,0.0,0.0,0.0,0.0,0.0,0.0,0.0,0.0,0.0,0.0,0.0,0.0,0.0,0.0,0.0,0.0,0.0,0.0,0.0,0.0,0.0,0.0,0.0,0.0,0.0,0.0,0.0,0.0,0.0,0.0,0.0,0.0,0.0,0.0,0.0,0.0,0.0,0.0,0.0,0.0,0.0,0.0,0.0,0.0,0.0,0.0,0.0,0.0,0.0,0.0,0.0,0.0,0.0,0.0,0.0,0.0,0.0,0.0,0.0,0.0,0.0,0.0,0.0,0.0,0.0,0.0,0.0,0.0,0.0,0.0,0.0,0.0,0.0,0.0,0.0,0.0,0.0,0.0,0.0,0.0,0.0,0.0,0.0,0.0,0.0,0.0,0.0,0.0,0.0,0.0,0.0,0.0,0.0,0.0,0.0,0.0,0.0,0.0,0.0,0.0,0.0,0.0,0.0,0.0,0.0,0.0,0.0,0.0,0.0,0.0,0.0,0.0,0.0,0.0,0.0,0.0,0.0,0.0,0.0,0.0,0.0,0.0,0.0,0.0,0.0,0.0,0.0,0.0,0.0,0.0,0.0,0.0,0.0,0.0,0.0,0.0,0.0,0.0,0.0,0.0,0.0,0.0,0.0,0.0,0.0,0.0,0.0,0.0,0.0,0.0,0.0,0.0,0.0,0.0,0.0,0.0,0.0,0.0,0.0,0.0,0.0,0.0,0.0,0.0,0.0,0.0,0.0,0.0,0.0,0.0,0.0,0.0,0.0,0.0,0.0,0.0,0.0,0.0,0.0,0.0,0.0,0.0,0.0,0.0,0.0,0.0,0.0,0.0,0.0,0.0,0.0,0.0,0.0,0.0,0.0,0.0,0.0,0.0,0.0,0.0,0.0,0.0,0.0,0.0,0.0,0.0,0.0,0.0,0.0,0.0,0.0,0.0,0.0,0.0,0.0,0.0,0.0,0.0,0.0,0.0,0.0,0.0,0.0,0.0,0.0,0.0,0.0,0.0,0.0,0.0,0.0,0.0,0.0,0.0,0.0,0.0,0.0,0.0,0.0,0.0,0.0,0.0,0.0,0.0,0.0,0.0,0.0,0.0,0.0,0.0,0.0,0.0,0.0,0.0,0.0,0.0,0.0,0.0,0.0,0.0,0.0,0.0,0.0,0.0,0.0,0.0,0.0,0.0,0.0,0.0,0.0,0.0,0.0,0.0,0.0,0.0,0.0,0.0,0.0,0.0,0.0,0.0,0.0,0.0,0.0,0.0,0.0,0.0,0.0,0.0,0.0,0.0,0.0,0.0,0.0,0.0,0.0,0.0,0.0,0.0,0.0,0.0,0.0,0.0,0.0,0.0,0.0,0.0,0.0,0.0,0.0,0.0,0.0,0.0,0.0,0.0,0.0,0.0,0.0,0.0,0.0,0.0,0.0,0.0,0.0,0.0,0.0,0.0,0.0,0.0,0.0,0.0,0.0,0.0,0.0,0.0,0.0,0.0,0.0,0.0,0.0,0.0,0.0,0.0,0.0,0.0,0.0,0.0,0.0,0.0,0.0,0.0,0.0,0.0,0.0,0.0,0.0,0.0,0.0,0.0,0.0,0.0,0.0,0.0,0.0,0.0,0.0,0.0,0.0,0.0,0.0,0.0,0.0,0.0,0.0,0.0,0.0,0.0,0.0,0.0,0.0,0.0,0.0,0.0,0.0,0.0,0.0,0.0,0.0,0.0,0.0,0.0,0.0,0.0,0.0,0.0,0.0,0.0,0.0,0.0,0.0,0.0,0.0,0.0,0.0,0.0,0.0,0.0,0.0,0.0,0.0,0.0,0.0,0.0,0.0,0.0,0.0,0.0,0.0,0.0,0.0,0.0,0.0,0.0,0.0,0.0,0.0,0.0,0.0,0.0,0.0,0.0,0.0,0.0,0.0,0.0,0.0,0.0,0.0,0.0,0.0,0.0,0.0,0.0,0.0,0.0,0.0,0.0,0.0,0.0,0.0,0.0,0.0,0.0,0.0,0.0,0.0,0.0,0.0,0.0,0.0,0.0,0.0,0.0,0.0,0.0,0.0,0.0,0.0,0.0,0.0,0.0,0.0,0.0,0.0,0.0,0.0,0.0,0.0,0.0,0.0,0.0,0.0,0.0,0.0,0.0,0.0,0.0,0.0,0.0,0.0,0.0,0.0,0.0,0.0,0.0,0.0,0.0,0.0,0.0,0.0,0.0,0.0,0.0,0.0,0.0,0.0,0.0,0.0,0.0,0.0,0.0,0.0,0.0,0.0,0.0,0.0,0.0,0.0,0.0,0.0,0.0,0.0,0.0,0.0,0.0,0.0,0.0,0.0,0.0,0.0,0.0,0.0,0.0,0.0,0.0,0.0,0.0,0.0,0.0,0.0,0.0,0.0,0.0,0.0,0.0,0.0,0.0,0.0,0.0,0.0,0.0,0.0,0.0,0.0,0.0,0.0,0.0,0.0,0.0,0.0,0.0,0.0,0.0,0.0,0.0,0.0,0.0,0.0,0.0,0.0,0.0,0.0,0.0,0.0,0.0,0.0,0.0,0.0,0.0,0.0,0.0,0.0,0.0,0.0,0.0,0.0,0.0,0.0,0.0,0.0,0.0,0.0,0.0,0.0,0.0,0.0,0.0,0.0,0.0,0.0,0.0,0.0,0.0,0.0,0.0,0.0,0.0,0.0,0.0,0.0,0.0,0.0,0.0,0.0,0.0,0.0,0.0,0.0,0.0,0.0,0.0,0.0,0.0,0.0,0.0,0.0,0.0,0.0,0.0,0.0,0.0,0.0,0.0,0.0,0.0,0.0,0.0,0.0,0.0,0.0,0.0,0.0,0.0,0.0,0.0,0.0,0.0,0.0,0.0,0.0,0.0,0.0,0.0,0.0,0.0,0.0,0.0,0.0,0.0,0.0,0.0,0.0,0.0,0.0,0.0,0.0,0.0,0.0,0.0,0.0,0.0,0.0,0.0,0.0,0.0,0.0,0.0,0.0,0.0,0.0,0.0,0.0,0.0,0.0,0.0,0.0,0.0,0.0,0.0,0.0,0.0,0.0,0.0,0.0,0.0,0.0,0.0,0.0,0.0,0.0,0.0,0.0,0.0,0.0,0.0,0.0,0.0,0.0,0.0,0.0,0.0,0.0,0.0,0.0,0.0,0.0,0.0,0.0,0.0,0.0,0.0,0.0,0.0,0.0,0.0,0.0,0.0,0.0,0.0,0.0,0.0,0.0,0.0,0.0,0.0,0.0,0.0,0.0,0.0,0.0,0.0,0.0,0.0,0.0,0.0,0.0,0.0,0.0,0.0,0.0,0.0,0.0,0.0,0.0,0.0,0.0,0.0,0.0,0.0,0.0,0.0,0.0,0.0,0.0,0.0,0.0,0.0,0.0,0.0,0.0,0.0,0.0,0.0,0.0,0.0,0.0,0.0,0.0,0.0,0.0,0.0,0.0,0.0,0.0,0.0,0.0,0.0,0.0,0.0,0.0,0.0,0.0,0.0,0.0,0.0,0.0,0.0,0.0,0.0,0.0,0.0,0.0,0.0,0.0,0.0,0.0,0.0,0.0,0.0,0.0,0.0,0.0,0.0,0.0,0.0,0.0,0.0,0.0,0.0,0.0,0.0,0.0,0.0,0.0,0.0,0.0,0.0,0.0,0.0,0.0,0.0,0.0,0.0,0.0,0.0,0.0,0.0,0.0,0.0,0.0,0.0,0.0,0.0,0.0,0.0,0.0,0.0,0.0,0.0,0.0,0.0,0.0,0.0,0.0,0.0,0.0,0.0,0.0,0.0,0.0,0.0,0.0,0.0,0.0,0.0,0.0,0.0,0.0,0.0,0.0,0.0,0.0,0.0,0.0,0.0,0.0,0.0,0.0,0.0,0.0,0.0,0.0,0.0,0.0,0.0,0.0,0.0,0.0,0.0,0.0,0.0,0.0,0.0,0.0,0.0,0.0,0.0,0.0,0.0,0.0,0.0,0.0,0.0,0.0,0.0,0.0,0.0,0.0,0.0,0.0,0.0,0.0,0.0,0.0,0.0,0.0,0.0,0.0,0.0,0.0,0.0,0.0,-0.1535,0.0,0.0,0.0,0.0,0.0,0.0,0.0,0.0,0.0,0.0,0.0,0.0,0.0,0.0,0.0,0.0,0.0,0.0,0.0,0.0,0.0,0.0,0.0,0.0,0.0,0.0,0.0,0.0,0.0,0.0,0.0,0.0,0.0,0.0,0.0,0.0,0.0,0.0,0.0,0.0,0.0,0.0,0.0,0.0,0.0,0.0,0.0,0.0,0.0,0.0,0.0,0.0,0.0,0.0,0.0,0.0,0.0,0.0,0.0,0.0,0.0,0.0,0.0,0.0,0.0,0.0,0.0,0.0,0.0,0.0,0.0,0.0,0.0,0.0,0.0,0.0,0.0,0.0,0.0,0.0,0.0,0.0,0.0,0.0,0.0,0.0,0.0,0.0,0.0,0.0,0.0,0.0,0.0,0.0,0.0,0.0,0.0,0.0,0.0,0.0,0.0,0.0,0.0,0.0,0.0,0.0,0.0,0.0,0.0,0.0,-0.1481,-0.1556,-0.1665,-0.1724,-0.1685,0.0,0.0,0.0,0.0,0.0,0.0,0.0,0.0,0.0,0.0,0.0,0.0,0.0,0.0,0.0,0.0,0.0,0.0,0.0,0.0,0.0,0.0,0.0,0.0,0.0,0.0,0.0,0.0,0.0,0.0,0.0,0.0,0.0,0.0,0.0,0.0,0.0,0.0,0.0,0.0,0.0,0.0,0.0,0.0,0.0,0.0,0.0,0.0,0.0,0.0,0.0,0.0,0.0,0.0,0.0,0.0,0.0,0.0,0.0,0.0,0.0,0.0,0.0,0.0,0.0,0.0,0.0,0.0,0.0,0.0,0.0,0.0,0.0,0.0,0.0,0.0,0.0,0.0,0.0,0.0,0.0,0.0,0.0,0.0,0.0,0.0,0.0,0.0,0.0,0.0,0.0,0.0,0.0,0.0,0.0,0.0,0.0,0.0,0.0,0.0,0.0,0.0,0.0,0.0,0.0,0.0,0.0,0.0,0.0,0.0,0.0,0.0,-0.1849,-0.1942,-0.2022,0.0,0.0,0.0,0.0,0.0,0.0,0.0,0.0,0.0,0.0,0.0,0.0,0.0,0.0,0.0,0.0,0.0,0.0,0.0,0.0,0.0,0.0,0.0,0.0,0.0,0.0,0.0,0.0,0.0,0.0,0.0,0.0,0.0,0.0,0.0,0.0,0.0,0.0,0.0,0.0,0.0,0.0,0.0,0.0,0.0,0.0,0.0,0.0,0.0,0.0,0.0,0.0,0.0,0.0,0.0,0.0,0.0,0.0,0.0,0.0,0.0,0.0,0.0,0.0,0.0,0.0,0.0,0.0,0.0,0.0,0.0,0.0,0.0,0.0,0.0,0.0,0.0,0.0,0.0,0.0,0.0,0.0,0.0,0.0,0.0,0.0,0.0,0.0,0.0,0.0,0.0,0.0,0.0,0.0,0.0,0.0,0.0,0.0,0.0,0.0,0.0,0.0,0.0,0.0,0.0,0.0,0.0,0.0,0.0,0.0,-0.1963,-0.2134,-0.2212,0.0,-0.2605,0.0,0.0,0.0,0.0,0.0,0.0,0.0,0.0,0.0,0.0,0.0,0.0,0.0,0.0,0.0,0.0,0.0,0.0,0.0,0.0,0.0,0.0,0.0,0.0,0.0,0.0,0.0,0.0,0.0,0.0,0.0,0.0,0.0,0.0,0.0,0.0,0.0,0.0,0.0,0.0,0.0,0.0,0.0,0.0,0.0,0.0,0.0,0.0,0.0,0.0,0.0,0.0,0.0,0.0,0.0,0.0,0.0,0.0,0.0,0.0,0.0,0.0,0.0,0.0,0.0,0.0,0.0,0.0,0.0,0.0,0.0,0.0,0.0,0.0,0.0,0.0,0.0,0.0,0.0,0.0,0.0,0.0,0.0,0.0,0.0,0.0,0.0,0.0,0.0,0.0,0.0,0.0,0.0,0.0,0.0,0.0,0.0,0.0,0.0,0.0,0.0,0.0,0.0,0.0,0.0,0.0,0.0,0.0,0.0,0.0,-0.2179,-0.2268,-0.2527,-0.2773,0.0,0.0,0.0,0.0,0.0,0.0,0.0,0.0,0.0,0.0,0.0,0.0,0.0,0.0,0.0,0.0,0.0,0.0,0.0,0.0,0.0,0.0,0.0,0.0,0.0,0.0,0.0,0.0,0.0,0.0,0.0,0.0,0.0,0.0,0.0,0.0,0.0,0.0,0.0,0.0,0.0,0.0,0.0,0.0,0.0,0.0,0.0,0.0,0.0,0.0,0.0,0.0,0.0,0.0,0.0,0.0,0.0,0.0,0.0,0.0,0.0,0.0,0.0,0.0,0.0,0.0,0.0,0.0,0.0,0.0,0.0,0.0,0.0,0.0,0.0,0.0,0.0,0.0,0.0,0.0,0.0,0.0,0.0,0.0,0.0,0.0,0.0,0.0,0.0,0.0,0.0,0.0,0.0,0.0,0.0,0.0,0.0,0.0,0.0,0.0,0.0,0.0,0.0,0.0,0.0,0.0,0.0,0.0,0.0,0.0,-0.2307,-0.2454,-0.2635,-0.2971,-0.3223,-0.3347,0.0,0.0,0.0,0.0,0.0,0.0,0.0,0.0,0.0,0.0,0.0,0.0,0.0,0.0,0.0,0.0,0.0,0.0,0.0,0.0,0.0,0.0,0.0,0.0,0.0,0.0,0.0,0.0,0.0,0.0,0.0,0.0,0.0,0.0,0.0,0.0,0.0,0.0,0.0,0.0,0.0,0.0,0.0,0.0,0.0,0.0,0.0,0.0,0.0,0.0,0.0,0.0,0.0,0.0,0.0,0.0,0.0,0.0,0.0,0.0,0.0,0.0,0.0,0.0,0.0,0.0,0.0,0.0,0.0,0.0,0.0,0.0,0.0,0.0,0.0,0.0,0.0,0.0,0.0,0.0,0.0,0.0,0.0,0.0,0.0,0.0,0.0,0.0,0.0,0.0,0.0,0.0,0.0,0.0,0.0,0.0,0.0,0.0,0.0,0.0,0.0,0.0,0.0,0.0,0.0,0.0,0.0,0.0,-0.2275,-0.2555,-0.2892,-0.3313,-0.3611,-0.3755,0.0,0.0,0.0,0.0,0.0,0.0,0.0,0.0,0.0,0.0,0.0,0.0,0.0,0.0,0.0,0.0,0.0,0.0,0.0,0.0,0.0,0.0,0.0,0.0,0.0,0.0,0.0,0.0,0.0,0.0,0.0,0.0,0.0,0.0,0.0,0.0,0.0,0.0,0.0,0.0,0.0,0.0,0.0,0.0,0.0,0.0,0.0,0.0,0.0,0.0,0.0,0.0,0.0,0.0,0.0,0.0,0.0,0.0,0.0,0.0,0.0,0.0,0.0,0.0,0.0,0.0,0.0,0.0,0.0,0.0,0.0,0.0,0.0,0.0,0.0,0.0,0.0,0.0,0.0,0.0,0.0,0.0,0.0,0.0,0.0,0.0,0.0,0.0,0.0,0.0,0.0,0.0,0.0,0.0,0.0,0.0,0.0,0.0,0.0,0.0,0.0,0.0,0.0,0.0,0.0,0.0,0.0,0.0,0.0,-0.2453,-0.284,-0.3278,-0.3651,-0.384,-0.3902,0.0,0.0,0.0,0.0,0.0,0.0,0.0,0.0,0.0,0.0,0.0,0.0,0.0,0.0,0.0,0.0,0.0,0.0,0.0,0.0,0.0,0.0,0.0,0.0,0.0,0.0,0.0,0.0,0.0,0.0,0.0,0.0,0.0,0.0,0.0,0.0,0.0,0.0,0.0,0.0,0.0,0.0,0.0,0.0,0.0,0.0,0.0,0.0,0.0,0.0,0.0,0.0,0.0,0.0,0.0,0.0,0.0,0.0,0.0,0.0,0.0,0.0,0.0,0.0,0.0,0.0,0.0,0.0,0.0,0.0,0.0,0.0,0.0,0.0,0.0,0.0,0.0,0.0,0.0,0.0,0.0,0.0,0.0,0.0,0.0,0.0,0.0,0.0,0.0,0.0,0.0,0.0,0.0,0.0,0.0,0.0,0.0,0.0,0.0,0.0,0.0,0.0,0.0,0.0,0.0,0.0,0.0,0.0,0.0,-0.2963,0.0,-0.3755,-0.4102,-0.4219,-0.4172,0.0,0.0,0.0,0.0,0.0,0.0,0.0,0.0,0.0,0.0,0.0,0.0,0.0,0.0,0.0,0.0,0.0,0.0,0.0,0.0,0.0,0.0,0.0,0.0,0.0,0.0,0.0,0.0,0.0,0.0,0.0,0.0,0.0,0.0,0.0,0.0,0.0,0.0,0.0,0.0,0.0,0.0,0.0,0.0,0.0,0.0,0.0,0.0,0.0,0.0,0.0,0.0,0.0,0.0,0.0,0.0,0.0,0.0,0.0,0.0,0.0,0.0,0.0,0.0,0.0,0.0,0.0,0.0,0.0,0.0,0.0,0.0,0.0,0.0,0.0,0.0,0.0,0.0,0.0,0.0,0.0,0.0,0.0,0.0,0.0,0.0,0.0,0.0,0.0,0.0,0.0,0.0,0.0,0.0,0.0,0.0,0.0,0.0,0.0,0.0,0.0,0.0,0.0,0.0,0.0,0.0,0.0,0.0,-0.2958,-0.3886,-0.4158,-0.4462,-0.4759,-0.4795,-0.4674,0.0,0.0,0.0,0.0,0.0,0.0,0.0,0.0,0.0,0.0,0.0,0.0,0.0,0.0,0.0,0.0,0.0,0.0,0.0,0.0,0.0,0.0,0.0,0.0,0.0,0.0,0.0,0.0,0.0,0.0,0.0,0.0,0.0,0.0,0.0,0.0,0.0,0.0,0.0,0.0,0.0,0.0,0.0,0.0,0.0,0.0,0.0,0.0,0.0,0.0,0.0,0.0,0.0,0.0,0.0,0.0,0.0,0.0,0.0,0.0,0.0,0.0,0.0,0.0,0.0,0.0,0.0,0.0,0.0,0.0,0.0,0.0,0.0,0.0,0.0,0.0,0.0,0.0,0.0,0.0,0.0,0.0,0.0,0.0,0.0,0.0,0.0,0.0,0.0,0.0,0.0,0.0,0.0,0.0,0.0,0.0,0.0,0.0,0.0,0.0,0.0,0.0,0.0,0.0,0.0,0.0,0.0,0.0,0.0,-0.4313,-0.4558,-0.4872,-0.5136,-0.5183,-0.5101,0.0,0.0,0.0,0.0,0.0,0.0,0.0,0.0,0.0,0.0,0.0,0.0,0.0,0.0,0.0,0.0,0.0,0.0,0.0,0.0,0.0,0.0,0.0,0.0,0.0,0.0,0.0,0.0,0.0,0.0,0.0,0.0,0.0,0.0,0.0,0.0,0.0,0.0,0.0,0.0,0.0,0.0,0.0,0.0,0.0,0.0,0.0,0.0,0.0,0.0,0.0,0.0,0.0,0.0,0.0,0.0,0.0,0.0,0.0,0.0,0.0,0.0,0.0,0.0,0.0,0.0,0.0,0.0,0.0,0.0,0.0,0.0,0.0,0.0,0.0,0.0,0.0,0.0,0.0,0.0,0.0,0.0,0.0,0.0,0.0,0.0,0.0,0.0,0.0,0.0,0.0,0.0,0.0,0.0,0.0,0.0,0.0,0.0,0.0,0.0,0.0,0.0,0.0,0.0,0.0,0.0,0.0,0.0,0.0,-0.5584,-0.5662,-0.5738,-0.5962,-0.599,-0.5799,-0.531,0.0,0.0,0.0,0.0,0.0,0.0,0.0,0.0,0.0,0.0,0.0,0.0,0.0,0.0,0.0,0.0,0.0,0.0,0.0,0.0,0.0,0.0,0.0,0.0,0.0,0.0,0.0,0.0,0.0,0.0,0.0,0.0,0.0,0.0,0.0,0.0,0.0,0.0,0.0,0.0,0.0,0.0,0.0,0.0,0.0,0.0,0.0,0.0,0.0,0.0,0.0,0.0,0.0,0.0,0.0,0.0,0.0,0.0,0.0,0.0,0.0,0.0,0.0,0.0,0.0,0.0,0.0,0.0,0.0,0.0,0.0,0.0,0.0,0.0,0.0,0.0,0.0,0.0,0.0,0.0,0.0,0.0,0.0,0.0,0.0,0.0,0.0,0.0,0.0,0.0,0.0,0.0,0.0,0.0,0.0,0.0,0.0,0.0,0.0,0.0,0.0,0.0,0.0,0.0,0.0,0.0,0.0,0.0,-0.7483,-0.7313,-0.7158,-0.7051,-0.7058,-0.671,0.0,0.0,0.0,0.0,0.0,0.0,0.0,0.0,0.0,0.0,0.0,0.0,0.0,0.0,0.0,0.0,0.0,0.0,0.0,0.0,0.0,0.0,0.0,0.0,0.0,0.0,0.0,0.0,0.0,0.0,0.0,0.0,0.0,0.0,0.0,0.0,0.0,0.0,0.0,0.0,0.0,0.0,0.0,0.0,0.0,0.0,0.0,0.0,0.0,0.0,0.0,0.0,0.0,0.0,0.0,0.0,0.0,0.0,0.0,0.0,0.0,0.0,0.0,0.0,0.0,0.0,0.0,0.0,0.0,0.0,0.0,0.0,0.0,0.0,0.0,0.0,0.0,0.0,0.0,0.0,0.0,0.0,0.0,0.0,0.0,0.0,0.0,0.0,0.0,0.0,0.0,0.0,0.0,0.0,0.0,0.0,0.0,0.0,0.0,0.0,0.0,0.0,0.0,0.0,0.0,0.0,0.0,0.0,0.0,-0.8566,-0.9196,-0.9109,-0.8175,-0.7989,-0.7652,0.0,0.0,0.0,0.0,0.0,0.0,0.0,0.0,0.0,0.0,0.0,0.0,0.0,0.0,0.0,0.0,0.0,0.0,0.0,0.0,0.0,0.0,0.0,0.0,0.0,0.0,0.0,0.0,0.0,0.0,0.0,0.0,0.0,0.0,0.0,0.0,0.0,0.0,0.0,0.0,0.0,0.0,0.0,0.0,0.0,0.0,0.0,0.0,0.0,0.0,0.0,0.0,0.0,0.0,0.0,0.0,0.0,0.0,0.0,0.0,0.0,0.0,0.0,0.0,0.0,0.0,0.0,0.0,0.0,0.0,0.0,0.0,0.0,0.0,0.0,0.0,0.0,0.0,0.0,0.0,0.0,0.0,0.0,0.0,0.0,0.0,0.0,0.0,0.0,0.0,0.0,0.0,0.0,0.0,0.0,0.0,0.0,0.0,0.0,0.0,0.0,0.0,0.0,0.0,0.0,0.0,0.0,0.0,-0.9061,-0.9844,-1.073,-1.0801,-0.9962,-0.9379,-0.8769,0.0,0.0,0.0,0.0,0.0,0.0,0.0,0.0,0.0,0.0,0.0,0.0,0.0,0.0,0.0,0.0,0.0,0.0,0.0,0.0,0.0,0.0,0.0,0.0,0.0,0.0,0.0,0.0,0.0,0.0,0.0,0.0,0.0,0.0,0.0,0.0,0.0,0.0,0.0,0.0,0.0,0.0,0.0,0.0,0.0,0.0,0.0,0.0,0.0,0.0,0.0,0.0,0.0,0.0,0.0,0.0,0.0,0.0,0.0,0.0,0.0,0.0,0.0,0.0,0.0,0.0,0.0,0.0,0.0,0.0,0.0,0.0,0.0,0.0,0.0,0.0,0.0,0.0,0.0,0.0,0.0,0.0,0.0,0.0,0.0,0.0,0.0,0.0,0.0,0.0,0.0,0.0,0.0,0.0,0.0,0.0,0.0,0.0,0.0,0.0,0.0,0.0,0.0,0.0,0.0,0.0,0.0,0.0,-1.0194,-1.1034,-1.1909,-1.2221,-1.1955,-1.0925,-0.985,0.0,0.0,0.0,0.0,0.0,0.0,0.0,0.0,0.0,0.0,0.0,0.0,0.0,0.0,0.0,0.0,0.0,0.0,0.0,0.0,0.0,0.0,0.0,0.0,0.0,0.0,0.0,0.0,0.0,0.0,0.0,0.0,0.0,0.0,0.0,0.0,0.0,0.0,0.0,0.0,0.0,0.0,0.0,0.0,0.0,0.0,0.0,0.0,0.0,0.0,0.0,0.0,0.0,0.0,0.0,0.0,0.0,0.0,0.0,0.0,0.0,0.0,0.0,0.0,0.0,0.0,0.0,0.0,0.0,0.0,0.0,0.0,0.0,0.0,0.0,0.0,0.0,0.0,0.0,0.0,0.0,0.0,0.0,0.0,0.0,0.0,0.0,0.0,0.0,0.0,0.0,0.0,0.0,0.0,0.0,0.0,0.0,0.0,0.0,0.0,0.0,0.0,0.0,0.0,0.0,0.0,0.0,0.0,-1.0951,-1.1682,-1.2589,-1.2972,-1.2788,-1.176,-1.0726,0.0,0.0,0.0,0.0,0.0,0.0,0.0,0.0,0.0,0.0,0.0,0.0,0.0,0.0,0.0,0.0,0.0,0.0,0.0,0.0,0.0,0.0,0.0,0.0,0.0,0.0,0.0,0.0,0.0,0.0,0.0,0.0,0.0,0.0,0.0,0.0,0.0,0.0,0.0,0.0,0.0,0.0,0.0,0.0,0.0,0.0,0.0,0.0,-0.7836,0.0,0.0,0.0,0.0,0.0,0.0,0.0,0.0,0.0,0.0,0.0,0.0,0.0,0.0,0.0,0.0,0.0,0.0,0.0,0.0,0.0,0.0,0.0,0.0,0.0,0.0,0.0,0.0,0.0,0.0,0.0,0.0,0.0,0.0,0.0,0.0,0.0,0.0,0.0,0.0,0.0,0.0,0.0,0.0,0.0,0.0,0.0,0.0,0.0,0.0,0.0,0.0,0.0,0.0,0.0,0.0,0.0,0.0,0.0,-1.1979,-1.2702,-1.35,-1.3762,-1.3534,-1.2782,-1.176,0.0,0.0,0.0,0.0,0.0,0.0,0.0,0.0,0.0,0.0,0.0,0.0,0.0,0.0,0.0,0.0,0.0,0.0,0.0,0.0,0.0,0.0,0.0,0.0,0.0,0.0,0.0,0.0,0.0,0.0,0.0,0.0,0.0,0.0,0.0,0.0,0.0,0.0,0.0,0.0,0.0,0.0,0.0,0.0,0.0,0.0,0.0,0.0,0.0,0.0,0.0,0.0,0.0,0.0,0.0,0.0,0.0,0.0,0.0,0.0,0.0,0.0,0.0,0.0,0.0,0.0,0.0,0.0,0.0,0.0,0.0,0.0,0.0,0.0,0.0,0.0,0.0,0.0,0.0,0.0,0.0,0.0,0.0,0.0,0.0,0.0,0.0,0.0,0.0,0.0,0.0,0.0,0.0,0.0,0.0,0.0,0.0,0.0,0.0,0.0,0.0,0.0,0.0,0.0,0.0,0.0,0.0,-1.2002,-1.3003,-1.3768,-1.4407,-1.4579,-1.4263,-1.3735,-1.2751,-1.1192,0.0,0.0,0.0,0.0,0.0,0.0,0.0,0.0,0.0,0.0,0.0,0.0,0.0,0.0,0.0,0.0,0.0,0.0,0.0,0.0,0.0,0.0,0.0,0.0,0.0,0.0,0.0,0.0,0.0,0.0,0.0,0.0,0.0,0.0,0.0,0.0,0.0,0.0,-0.5766,-0.6196,0.0,0.0,0.0,0.0,0.0,0.0,0.0,0.0,-0.8494,0.0,0.0,0.0,0.0,0.0,0.0,0.0,0.0,0.0,0.0,0.0,0.0,0.0,0.0,0.0,0.0,0.0,0.0,0.0,0.0,0.0,0.0,0.0,0.0,0.0,0.0,0.0,0.0,0.0,0.0,0.0,0.0,0.0,0.0,0.0,0.0,0.0,0.0,0.0,0.0,0.0,0.0,0.0,0.0,0.0,0.0,0.0,0.0,0.0,0.0,0.0,0.0,0.0,0.0,0.0,0.0,-1.1301,-1.274,-1.3808,-1.4419,-1.5231,-1.5403,-1.492,-1.4338,-1.3417,-1.2252,0.0,0.0,0.0,0.0,0.0,0.0,0.0,0.0,0.0,0.0,0.0,0.0,0.0,0.0,0.0,0.0,0.0,0.0,0.0,0.0,0.0,0.0,0.0,0.0,0.0,0.0,0.0,0.0,0.0,0.0,0.0,0.0,0.0,0.0,0.0,0.0,0.0,0.0,0.0,-0.6483,-0.6774,0.0,0.0,0.0,0.0,0.0,0.0,0.0,0.0,-0.9503,0.0,0.0,0.0,0.0,0.0,0.0,0.0,0.0,0.0,0.0,0.0,0.0,0.0,0.0,0.0,0.0,0.0,0.0,0.0,0.0,0.0,0.0,0.0,0.0,0.0,0.0,0.0,0.0,0.0,0.0,0.0,0.0,0.0,0.0,0.0,0.0,0.0,0.0,0.0,0.0,0.0,0.0,0.0,0.0,0.0,0.0,0.0,0.0,0.0,0.0,0.0,0.0,0.0,0.0,0.0,-1.2036,-1.3467,-1.4549,-1.5145,-1.573,-1.5802,-1.5341,-1.4648,-1.3725,0.0,0.0,0.0,0.0,0.0,0.0,0.0,0.0,0.0,0.0,0.0,0.0,0.0,0.0,0.0,0.0,0.0,0.0,0.0,0.0,0.0,0.0,0.0,0.0,0.0,0.0,0.0,0.0,0.0,0.0,0.0,0.0,0.0,0.0,0.0,0.0,0.0,0.0,0.0,0.0,-0.6993,-0.7308,-0.7907,0.0,0.0,0.0,0.0,0.0,0.0,-0.9932,-1.0265,0.0,0.0,0.0,0.0,0.0,0.0,0.0,0.0,0.0,0.0,0.0,0.0,0.0,0.0,0.0,0.0,0.0,0.0,0.0,0.0,0.0,0.0,0.0,0.0,0.0,0.0,0.0,0.0,0.0,0.0,0.0,0.0,0.0,0.0,0.0,0.0,0.0,0.0,0.0,0.0,0.0,0.0,0.0,0.0,0.0,0.0,0.0,0.0,0.0,0.0,0.0,0.0,0.0,0.0,0.0,-1.2793,-1.4069,-1.5097,-1.5787,-1.6169,-1.6057,-1.5552,-1.4821,-1.3867,0.0,0.0,0.0,0.0,0.0,0.0,0.0,0.0,0.0,0.0,0.0,0.0,0.0,0.0,0.0,0.0,0.0,0.0,0.0,0.0,0.0,0.0,0.0,0.0,0.0,0.0,0.0,0.0,0.0,0.0,0.0,0.0,0.0,0.0,0.0,0.0,0.0,0.0,0.0,0.0,0.0,-0.7909,-0.8612,-0.8855,0.0,0.0,0.0,0.0,-1.0082,-1.0705,0.0,0.0,0.0,0.0,0.0,0.0,0.0,0.0,0.0,0.0,0.0,0.0,0.0,0.0,0.0,0.0,0.0,0.0,0.0,0.0,0.0,0.0,0.0,0.0,0.0,0.0,0.0,0.0,0.0,0.0,0.0,0.0,0.0,0.0,0.0,0.0,0.0,0.0,0.0,0.0,0.0,0.0,0.0,0.0,0.0,0.0,0.0,0.0,0.0,0.0,0.0,0.0,0.0,0.0,0.0,0.0,-1.3563,-1.4533,-1.5436,-1.6235,-1.6437,-1.6253,-1.5635,-1.4824,-1.3932,0.0,0.0,0.0,0.0,0.0,0.0,0.0,0.0,0.0,0.0,0.0,0.0,0.0,0.0,0.0,0.0,0.0,0.0,0.0,0.0,0.0,0.0,0.0,0.0,0.0,0.0,0.0,0.0,0.0,0.0,0.0,0.0,0.0,0.0,0.0,0.0,0.0,0.0,0.0,0.0,0.0,-0.8386,-0.8835,-0.943,-0.9979,0.0,0.0,-1.1254,-1.1149,-1.1639,0.0,0.0,0.0,0.0,0.0,0.0,0.0,0.0,0.0,0.0,0.0,0.0,0.0,0.0,0.0,0.0,0.0,0.0,0.0,0.0,0.0,0.0,0.0,0.0,0.0,0.0,0.0,0.0,0.0,0.0,0.0,0.0,0.0,0.0,0.0,0.0,0.0,0.0,0.0,0.0,0.0,0.0,0.0,0.0,0.0,0.0,0.0,0.0,0.0,0.0,0.0,0.0,0.0,0.0,0.0,-1.3589,-1.3889,-1.5079,-1.5914,-1.6194,-1.6356,-1.6155,-1.5634,-1.4655,-1.373,0.0,0.0,0.0,0.0,0.0,0.0,0.0,0.0,0.0,0.0,0.0,0.0,0.0,0.0,0.0,0.0,0.0,0.0,0.0,0.0,0.0,0.0,0.0,0.0,0.0,0.0,0.0,0.0,0.0,0.0,0.0,0.0,0.0,0.0,0.0,0.0,0.0,0.0,0.0,0.0,0.0,0.0,-0.9823,-1.0497,0.0,0.0,0.0,-1.2186,-1.1791,0.0,0.0,0.0,0.0,0.0,0.0,0.0,0.0,0.0,0.0,0.0,0.0,0.0,0.0,0.0,0.0,0.0,0.0,0.0,0.0,0.0,0.0,0.0,0.0,0.0,0.0,0.0,0.0,0.0,0.0,0.0,0.0,0.0,0.0,0.0,0.0,0.0,0.0,0.0,0.0,0.0,0.0,0.0,0.0,0.0,0.0,0.0,0.0,0.0,0.0,0.0,0.0,0.0,0.0,0.0,0.0,0.0,-1.4275,-1.5571,-1.6299,-1.6371,-1.6346,-1.6071,-1.5645,-1.4454,0.0,0.0,0.0,0.0,0.0,0.0,0.0,0.0,0.0,0.0,0.0,0.0,0.0,0.0,0.0,0.0,0.0,0.0,0.0,0.0,0.0,0.0,0.0,0.0,0.0,0.0,0.0,-0.5121,0.0,0.0,0.0,0.0,0.0,0.0,0.0,0.0,0.0,0.0,0.0,0.0,0.0,0.0,-0.9987,-1.083,-1.1584,-1.2087,0.0,0.0,-1.3049,-1.2395,-1.3243,-1.4318,0.0,0.0,0.0,0.0,0.0,0.0,0.0,0.0,0.0,0.0,0.0,0.0,0.0,0.0,0.0,0.0,0.0,0.0,0.0,0.0,0.0,0.0,0.0,0.0,0.0,0.0,0.0,0.0,0.0,0.0,0.0,0.0,0.0,0.0,0.0,0.0,0.0,0.0,0.0,0.0,0.0,0.0,0.0,0.0,0.0,0.0,0.0,0.0,0.0,0.0,0.0,0.0,0.0,0.0,0.0,-1.4947,-1.5902,-1.6553,-1.6835,-1.6483,-1.6138,-1.5785,-1.4356,-1.3553,0.0,0.0,0.0,0.0,0.0,0.0,0.0,0.0,0.0,0.0,0.0,0.0,0.0,0.0,0.0,0.0,0.0,0.0,0.0,0.0,0.0,0.0,0.0,0.0,0.0,0.0,0.0,0.0,0.0,0.0,0.0,0.0,0.0,0.0,0.0,0.0,0.0,0.0,0.0,0.0,0.0,-1.0864,-1.1519,-1.2346,-1.3119,0.0,0.0,-1.387,-1.2978,-1.4061,-1.5289,-1.6259,0.0,0.0,0.0,0.0,0.0,0.0,0.0,0.0,0.0,0.0,0.0,0.0,0.0,0.0,0.0,0.0,0.0,0.0,0.0,0.0,0.0,0.0,0.0,0.0,0.0,0.0,0.0,0.0,0.0,0.0,0.0,0.0,0.0,0.0,0.0,0.0,0.0,0.0,0.0,0.0,0.0,0.0,0.0,0.0,0.0,0.0,0.0,0.0,0.0,0.0,0.0,0.0,0.0,-1.5388,-1.5099,-1.6089,-1.6487,-1.6253,-1.5992,-1.5753,-1.5532,-1.4317,-1.358,0.0,0.0,0.0,0.0,0.0,0.0,0.0,0.0,0.0,0.0,0.0,0.0,0.0,0.0,0.0,0.0,0.0,0.0,0.0,0.0,0.0,0.0,0.0,0.0,0.0,0.0,0.0,0.0,-0.5983,-0.577,-0.5821,0.0,0.0,0.0,0.0,0.0,0.0,0.0,0.0,0.0,0.0,-1.2466,-1.251,-1.361,0.0,0.0,-1.4985,-1.5246,-1.3939,-1.4857,-1.6113,-1.7351,-1.6721,0.0,0.0,0.0,0.0,0.0,0.0,0.0,0.0,0.0,0.0,0.0,0.0,0.0,0.0,0.0,0.0,0.0,0.0,0.0,0.0,0.0,0.0,0.0,0.0,0.0,0.0,0.0,0.0,0.0,0.0,0.0,0.0,0.0,0.0,0.0,0.0,0.0,0.0,0.0,0.0,0.0,0.0,0.0,0.0,0.0,0.0,0.0,0.0,0.0,0.0,0.0,0.0,-1.5667,-1.5335,-1.6248,-1.6541,-1.6197,-1.5949,-1.5726,-1.5438,-1.4293,-1.3634,0.0,0.0,0.0,0.0,0.0,0.0,0.0,0.0,0.0,0.0,0.0,0.0,0.0,0.0,0.0,0.0,0.0,0.0,0.0,0.0,0.0,0.0,0.0,0.0,0.0,0.0,0.0,0.0,-0.6736,-0.6501,-0.664,0.0,0.0,0.0,0.0,0.0,0.0,0.0,0.0,0.0,0.0,-1.3962,-1.3647,-1.4812,-1.5586,-1.5199,-1.6127,-1.6492,-1.5454,-1.6083,-1.7125,-1.8358,0.0,0.0,0.0,0.0,0.0,0.0,0.0,0.0,0.0,0.0,0.0,0.0,0.0,0.0,0.0,0.0,0.0,0.0,0.0,0.0,0.0,0.0,0.0,0.0,0.0,0.0,0.0,0.0,0.0,0.0,0.0,0.0,0.0,0.0,0.0,0.0,0.0,0.0,0.0,0.0,0.0,0.0,0.0,0.0,0.0,0.0,0.0,0.0,0.0,0.0,0.0,0.0,0.0,-1.5785,-1.5864,-1.6423,-1.6829,-1.7041,-1.6606,-1.6112,-1.5603,-1.4374,-1.3591,-1.3416,0.0,0.0,0.0,0.0,0.0,0.0,0.0,0.0,0.0,0.0,0.0,0.0,0.0,0.0,0.0,0.0,0.0,0.0,0.0,0.0,0.0,0.0,0.0,0.0,0.0,0.0,-0.7895,-0.7517,-0.7317,0.0,0.0,0.0,0.0,0.0,0.0,0.0,0.0,0.0,0.0,-1.3635,-1.505,-1.496,-1.5833,-1.6638,-1.7077,-1.7429,-1.7643,-1.7587,-1.7813,-1.8323,0.0,0.0,0.0,0.0,0.0,0.0,0.0,0.0,0.0,0.0,0.0,0.0,0.0,0.0,0.0,0.0,0.0,0.0,0.0,0.0,0.0,0.0,0.0,0.0,0.0,0.0,0.0,-1.9898,-1.9768,0.0,0.0,0.0,0.0,0.0,0.0,0.0,0.0,0.0,0.0,0.0,-2.0386,-2.0232,0.0,0.0,0.0,0.0,0.0,0.0,0.0,0.0,0.0,0.0,0.0,0.0,-1.6326,-1.6381,-1.6606,-1.6831,-1.6891,-1.651,-1.6032,-1.5411,-1.4598,-1.3867,-1.3227,0.0,0.0,0.0,0.0,0.0,0.0,0.0,0.0,0.0,0.0,0.0,0.0,0.0,0.0,0.0,0.0,0.0,0.0,0.0,0.0,0.0,0.0,0.0,0.0,0.0,-0.8928,0.0,0.0,0.0,0.0,0.0,0.0,0.0,0.0,0.0,0.0,0.0,-1.1687,-1.275,-1.4916,-1.6404,-1.6262,-1.7178,-1.7869,0.0,0.0,0.0,0.0,0.0,0.0,0.0,0.0,0.0,0.0,0.0,0.0,0.0,0.0,-2.0041,-1.9569,-1.9319,-1.9145,-1.916,0.0,0.0,0.0,0.0,0.0,0.0,0.0,0.0,0.0,0.0,0.0,0.0,0.0,0.0,0.0,0.0,-2.0049,0.0,0.0,0.0,0.0,0.0,0.0,0.0,0.0,-2.0804,-2.1143,-2.1675,-2.1516,-2.1387,0.0,-2.0711,-1.9779,0.0,0.0,0.0,0.0,0.0,0.0,0.0,0.0,-1.6618,-1.6929,-1.6864,-1.6948,-1.7244,-1.6715,-1.6055,-1.5337,-1.4446,-1.3717,-1.3166,-1.2914,-1.2824,0.0,0.0,0.0,0.0,0.0,0.0,0.0,0.0,0.0,0.0,0.0,0.0,0.0,0.0,0.0,0.0,0.0,0.0,0.0,0.0,0.0,0.0,0.0,-0.9597,0.0,0.0,0.0,0.0,0.0,0.0,0.0,0.0,0.0,-1.0655,-1.1795,-1.3036,-1.4277,-1.6147,-1.7483,-1.7612,0.0,0.0,0.0,0.0,0.0,0.0,0.0,-2.1275,-2.2964,-2.2492,-2.1864,-2.1772,-2.4191,-2.5751,-2.4451,0.0,0.0,-2.1814,-2.1315,-2.1178,-2.1178,-2.0944,-2.0851,-2.1081,-2.0912,-2.084,0.0,0.0,0.0,0.0,0.0,0.0,0.0,0.0,-2.0529,-2.0467,0.0,-2.0376,0.0,0.0,0.0,0.0,0.0,0.0,0.0,0.0,-2.1826,-2.2125,-2.2122,-2.2067,-2.1937,-2.1784,-2.1714,-2.1152,-2.0173,-1.8929,0.0,0.0,0.0,0.0,0.0,0.0,-1.6678,-1.7533,-1.7093,-1.7269,-1.8051,-1.7153,-1.6229,-1.5361,-1.3989,-1.321,-1.3232,-1.3378,-1.3527,-1.3514,-1.3213,0.0,0.0,0.0,0.0,0.0,0.0,0.0,0.0,0.0,0.0,0.0,0.0,0.0,0.0,0.0,0.0,0.0,0.0,0.0,0.0,-1.0582,0.0,0.0,0.0,0.0,0.0,0.0,0.0,0.0,0.0,0.0,-1.2406,-1.3533,-1.4809,-1.6075,0.0,0.0,0.0,0.0,-1.9748,-1.9993,-2.0852,-2.1596,-2.1982,-2.2528,-2.3282,-2.4302,0.0,0.0,-2.5382,-2.7193,-2.8201,-2.7705,-2.7445,-2.6535,-2.3088,-2.2393,-2.2176,-2.2176,-2.2103,-2.2114,-2.2589,-2.2748,-2.2755,-2.3037,0.0,0.0,0.0,0.0,-2.2245,-2.2289,-2.2283,-2.2268,-2.1931,-2.1379,-2.1354,0.0,0.0,0.0,0.0,0.0,0.0,-2.1991,-2.3056,-2.3225,-2.3619,-2.4136,-2.4011,-2.3926,-2.3817,-2.314,-2.2601,-2.2135,-2.1116,-1.9822,-1.8319,0.0,0.0,0.0,0.0,-1.6991,-1.7407,-1.7384,-1.735,-1.7284,-1.7098,-1.6308,-1.4875,-1.3947,-1.3446,-1.3425,-1.3514,-1.3628,-1.3708,-1.3815,0.0,0.0,0.0,0.0,0.0,0.0,0.0,0.0,0.0,0.0,0.0,0.0,0.0,0.0,0.0,0.0,0.0,0.0,0.0,-1.1404,-1.1019,-1.0791,0.0,0.0,0.0,0.0,0.0,0.0,0.0,0.0,0.0,-1.5336,-1.5518,-1.6086,0.0,0.0,-1.9585,-2.0078,-2.0452,-2.0716,-2.083,0.0,0.0,0.0,-2.3852,-2.4332,-2.5816,-2.6383,-2.6762,-2.6992,-2.8297,-2.9093,-2.839,-2.8207,-2.7738,-2.6701,-2.5966,-2.5581,-2.5472,-2.5404,-2.5381,-2.554,-2.5484,-2.5428,-2.4694,-2.3757,-2.3002,-2.2763,-2.2859,-2.2908,-2.2949,-2.3017,-2.3022,-2.2718,-2.2264,-2.2297,-2.2012,-2.1534,-2.1508,0.0,0.0,0.0,-2.3095,-2.4021,-2.4283,-2.4662,-2.5096,-2.4994,-2.4888,-2.4785,-2.4222,-2.369,-2.3198,-2.2617,-2.1441,-1.9756,0.0,0.0,-1.8325,-1.7919,-1.7867,-1.8143,-1.8331,-1.8329,-1.8175,-1.7441,-1.6275,-1.4715,-1.4066,-1.3735,-1.3715,-1.3728,-1.3741,-1.3854,-1.4105,-1.3997,0.0,0.0,0.0,0.0,0.0,0.0,0.0,0.0,0.0,0.0,0.0,-1.3581,-1.3288,0.0,0.0,0.0,-1.2425,-1.2186,-1.1918,-1.1712,0.0,0.0,0.0,0.0,0.0,0.0,0.0,-1.3952,-1.4869,-1.6038,-1.7567,-1.7722,-1.7977,-1.8966,-1.9817,-2.0534,-2.0991,0.0,-2.2009,-2.2098,-2.3212,-2.4269,-2.4997,-2.5251,-2.5724,-2.6703,-2.7691,-2.8338,-2.8421,-2.9602,-3.0353,-2.985,-2.9652,-2.9537,-2.9224,-2.8829,-2.8246,-2.7428,-2.7206,-2.7259,-2.7454,-2.7431,-2.7434,-2.626,-2.5517,-2.358,-2.2857,-2.2987,-2.2998,-2.3086,-2.3191,-2.3209,-2.3154,-2.3115,-2.3166,-2.3154,-2.3096,-2.3101,0.0,0.0,-2.3879,-2.4238,-2.4322,-2.5007,-2.5321,-2.5322,-2.5182,-2.5091,-2.5019,-2.4955,-2.4463,-2.3658,-2.3547,-2.3002,-2.2013,-2.0641,-1.9835,-1.9543,-1.9132,-1.9085,-1.9372,-1.9597,-1.9813,-1.9901,-1.7881,-1.6108,-1.4742,-1.4305,-1.4065,-1.4032,-1.396,-1.3954,-1.3941,-1.417,-1.4092,-1.3621,0.0,0.0,0.0,0.0,0.0,0.0,0.0,0.0,0.0,0.0,0.0,0.0,0.0,0.0,0.0,-1.2826,0.0,-1.2591,-1.2508,0.0,0.0,0.0,-1.3047,-1.3326,-1.3814,-1.4564,-1.5744,0.0,0.0,0.0,0.0,-2.0254,-2.0523,-2.0927,-2.1368,-2.1797,-2.2694,-2.3388,-2.3556,-2.4906,-2.5908,-2.5922,-2.6519,-2.7014,-2.7213,-2.8088,-2.8864,-2.9299,-3.0681,-3.1598,-3.1202,-3.1367,-3.1236,-3.0807,-3.0593,-3.0199,-2.8428,-2.8087,-2.8208,-2.8634,-2.8753,-2.8871,-2.6523,-2.5449,-2.5084,-2.479,-2.4555,-2.4658,-2.4753,-2.4822,-2.4826,-2.4496,-2.3908,-2.4,-2.3665,-2.3111,-2.3105,-2.3472,-2.4079,-2.4248,-2.4689,-2.5274,-2.5396,-2.5444,-2.5456,-2.5369,-2.5284,-2.522,-2.5164,-2.4955,-2.4655,-2.4521,-2.4257,-2.3843,-2.2791,-2.177,-2.08,-2.0368,-2.0136,-2.0068,-2.0157,-1.9697,-1.859,-1.7352,-1.6143,-1.4949,-1.4651,-1.4475,-1.4319,-1.4222,-1.4235,-1.4268,-1.4401,-1.4428,-1.4398,-1.4023,0.0,0.0,0.0,0.0,0.0,0.0,0.0,0.0,0.0,-1.4222,-1.4072,0.0,-1.3735,0.0,-1.3263,-1.3113,-1.3104,-1.3091,0.0,0.0,-1.4276,-1.4876,-1.5682,-1.6269,-1.6872,-1.7545,-1.8455,-1.9354,-2.0111,-2.0973,-2.162,-2.1874,-2.1936,-2.2236,-2.3096,-2.3567,-2.404,-2.4672,-2.5611,-2.6276,-2.6346,-2.6901,-2.7404,-2.7434,-2.8094,-2.8667,-2.8806,-3.0125,-3.0925,-3.0248,-3.0594,-3.0761,-3.05,-3.0408,-3.0467,-3.0348,-3.0094,-2.9897,-3.0004,-3.002,-3.0086,-2.6982,-2.5779,-2.6021,-2.5658,-2.4877,-2.513,-2.5241,-2.5322,-2.534,-2.5123,-2.474,-2.4838,-2.4627,-2.4225,-2.4248,-2.4511,-2.4978,-2.4965,-2.5216,-2.5632,-2.5576,-2.5531,-2.5505,-2.5445,-2.5406,-2.5341,-2.5292,-2.5198,-2.5087,-2.4987,-2.4879,-2.4712,-2.4142,-2.3446,-2.2667,-2.1855,-2.1308,-2.1068,-2.1026,-2.0378,-1.9044,-1.7961,-1.6908,-1.5874,-1.5276,-1.4856,-1.4655,-1.4574,-1.4525,-1.4511,-1.456,-1.461,-1.4645,-1.4178,-1.4083,0.0,0.0,0.0,0.0,0.0,0.0,0.0,0.0,0.0,0.0,0.0,-1.4224,0.0,-1.4419,0.0,-1.4493,-1.4585,-1.4844,-1.541,-1.5861,-1.6393,-1.7155,-1.7706,-1.8392,-1.9174,-1.9946,-2.0656,-2.1312,-2.1927,-2.2381,-2.2588,-2.2873,-2.3288,-2.389,-2.459,-2.5317,-2.5792,-2.6538,-2.7035,-2.6988,-2.732,-2.76,-2.7669,-2.8246,-2.8722,-2.8757,-2.9717,-3.0347,-2.9897,-3.0107,-3.0335,-3.0057,-2.9986,-3.0069,-3.0194,-3.0159,-3.018,-3.0606,-3.0658,-3.0625,-2.7358,-2.6209,-2.6497,-2.5838,-2.4607,-2.4907,-2.5087,-2.5182,-2.5273,-2.5322,-2.541,-2.5517,-2.5595,-2.5601,-2.5659,-2.5694,-2.57,-2.5701,-2.5705,-2.5701,-2.5628,-2.559,-2.5505,-2.551,-2.5464,-2.5415,-2.5351,-2.5274,-2.5222,-2.5153,-2.5088,-2.5006,-2.487,-2.4738,-2.4487,-2.3363,-2.2539,-2.2159,-2.1983,-2.135,-2.027,-1.9136,-1.8022,-1.7015,-1.601,-1.5372,-1.5074,-1.4935,-1.4839,-1.4763,-1.4763,-1.4749,-1.4679,-1.4192,-1.4283,0.0,-1.4529,0.0,0.0,0.0,0.0,0.0,0.0,0.0,0.0,-1.4759,-1.4905,-1.5271,-1.5787,-1.61,-1.61,-1.6316,-1.6543,-1.6845,-1.733,-1.7855,-1.833,-1.8868,-1.9625,-2.0699,-2.1082,-2.1586,-2.2398,-2.2685,-2.279,-2.3102,-2.3833,-2.4383,-2.4629,-2.5682,-2.6563,-2.6879,-2.7487,-2.7754,-2.7678,-2.7683,-2.7683,-2.7771,-2.8228,-2.8754,-2.8702,-2.9386,-2.9895,-2.9674,-2.9709,-2.9732,-2.9553,-2.9537,-2.9487,-2.9489,-2.9471,-2.9689,-3.0408,-3.0628,-3.0729,-2.7085,-2.5985,-2.6209,-2.5546,-2.4371,-2.4623,-2.4879,-2.5118,-2.5206,-2.5283,-2.5404,-2.5478,-2.5549,-2.5595,-2.5675,-2.5701,-2.5698,-2.5702,-2.5689,-2.569,-2.5687,-2.5634,-2.5574,-2.5538,-2.5478,-2.5476,-2.5432,-2.534,-2.5274,-2.5271,-2.5206,-2.5088,-2.5012,-2.4903,-2.4723,0.0,0.0,0.0,-2.2583,-2.1858,-2.0659,-2.0124,-1.9044,-1.7457,-1.6879,0.0,-1.5536,-1.5359,-1.5254,-1.5178,-1.5117,0.0,0.0,0.0,0.0,0.0,0.0,0.0,0.0,0.0,0.0,0.0,-1.7066,-1.6688,-1.5805,-1.6056,-1.6291,-1.6383,-1.6494,-1.6586,-1.6739,-1.6961,-1.7423,-1.815,-1.8733,-1.9436,-2.0369,-2.0975,-2.1516,-2.1993,-2.2304,-2.2548,-2.2824,-2.2995,-2.3272,-2.3919,-2.469,-2.5446,-2.6116,-2.6451,-2.6947,-2.7632,-2.784,-2.7888,-2.7859,-2.7795,-2.7701,-2.7736,-2.7883,-2.8088,-2.8176,-2.8747,-2.9024,-2.8582,-2.8847,-2.9211,-2.9105,-2.9074,-2.9155,-2.9654,-2.9607,-2.9541,-2.9551,-2.9836,-3.0179,-2.6748,0.0,-2.5942,-2.5288,0.0,-2.4355,-2.4591,-2.4814,-2.5006,-2.519,-2.5361,-2.5426,-2.5499,-2.5549,-2.5624,-2.5662,-2.5687,-2.5702,-2.5701,-2.5707,-2.5704,-2.5671,-2.5595,-2.5568,-2.5544,-2.5507,-2.5445,-2.5412,-2.536,-2.5332,-2.5282,-2.5198,-2.5137,-2.5038,-2.4898,-2.462,-2.4137,-2.341,-2.308,-2.2462,-2.1613,-2.0842,-1.9938,-1.8885,0.0,0.0,0.0,0.0,0.0,0.0,0.0,0.0,0.0,0.0,0.0,-1.6796,-1.6889,-1.6995,-1.7143,-1.7173,-1.7354,-1.7697,-1.8029,-1.7825,-1.6815,-1.7185,-1.7454,-1.7469,-1.7691,-1.7949,-1.8143,-1.8376,-1.8792,-1.947,-2.0082,-2.0747,-2.1483,-2.2022,-2.2473,-2.2764,-2.296,-2.3144,-2.3193,-2.3612,-2.3947,-2.4406,-2.5359,-2.6204,-2.6664,-2.707,-2.7494,-2.7876,-2.7917,-2.7888,-2.7842,-2.7795,-2.7795,-2.7813,-2.7871,-2.7929,-2.7946,-2.8275,-2.8411,-2.8103,-2.8304,-2.8552,-2.8511,-2.8482,-2.8529,-2.8789,-2.8784,-2.8659,-2.8533,-2.9023,-2.9782,-2.6511,-2.5547,-2.5754,-2.5165,-2.4076,-2.4189,-2.4356,-2.4538,0.0,0.0,0.0,-2.5359,-2.5414,-2.5492,-2.5565,-2.5636,-2.5671,-2.5689,-2.5702,-2.5697,-2.5698,-2.5668,-2.5615,-2.5604,-2.5583,-2.551,-2.5507,-2.5484,-2.5393,-2.536,-2.5293,-2.5303,-2.5239,-2.5149,-2.4981,-2.4685,-2.4302,-2.3819,-2.345,-2.3042,-2.2554,-2.1518,-2.0742,-2.03,-1.8789,-1.7807,-1.7375,-1.6679,-1.6217,-1.5995,-1.6393,-1.6718,-1.6806,-1.6819,-1.7239,-1.8223,-1.8349,-1.8241,-1.804,-1.8104,-1.8197,-1.8351,-1.8834,-1.8793,-1.7956,-1.8243,-1.8461,-1.8461,-1.8907,-1.9288,-1.9508,-1.9767,-2.0089,-2.0599,-2.1165,-2.1685,-2.2164,-2.2607,-2.296,-2.3223,-2.336,-2.3519,-2.3702,-2.4195,-2.474,-2.5045,-2.5977,-2.6788,-2.7038,-2.7505,-2.7864,-2.7946,-2.7946,-2.7871,-2.7806,-2.7853,-2.79,-2.7917,-2.7957,-2.7996,-2.8014,-2.8025,-2.8042,-2.8042,-2.8025,-2.806,-2.806,-2.8067,-2.7968,-2.7893,-2.7847,-2.7818,-2.7848,-2.8417,-2.9269,-2.6539,-2.608,-2.5764,-2.5276,-2.4635,-2.4208,-2.4266,-2.4596,-2.4884,-2.5082,-2.5228,-2.5274,-2.5339,-2.5422,-2.5538,-2.56,-2.5609,-2.5679,-2.5699,0.0,-2.5691,-2.569,-2.5675,-2.5634,-2.5579,-2.5512,-2.551,-2.548,-2.5401,-2.5395,-2.536,-2.5284,-2.5233,-2.5134,-2.4993,-2.4764,-2.4512,-2.421,-2.3777,-2.3312,-2.285,-2.23,-2.1524,-2.0591,-1.9925,-1.9211,-1.8418,-1.8114,-1.7915,-1.7837,-1.7741,-1.7706,-1.7721,-1.7734,-1.7779,-1.7966,-1.8141,-1.8434,-1.8906,-1.9035,-1.9377,-1.9965,-2.0085,-1.9897,-1.9542,-1.9495,-1.9483,-1.9483,-1.9558,-1.9726,-1.996,-2.0258,-2.0614,-2.1134,-2.1672,-2.2209,-2.266,-2.296,-2.3265,-2.3499,-2.3562,-2.3894,-2.4495,-2.473,-2.5276,-2.6292,-2.6721,-2.702,-2.7558,-2.7886,-2.8014,-2.8042,-2.8014,-2.8014,-2.7996,-2.7996,-2.7968,-2.7986,-2.8042,-2.8081,-2.8116,-2.8126,-2.8154,-2.8154,-2.8154,-2.8154,-2.8154,-2.8126,-2.8071,-2.8025,-2.7996,-2.7996,-2.8007,-2.8174,-2.851,-2.6301,-2.5901,-2.5558,-2.505,-2.4545,-2.4136,-2.4097,-2.4392,-2.4623,-2.4865,-2.5094,-2.5201,-2.5284,-2.5346,-2.5478,-2.5574,-2.5604,-2.5662,-2.5689,-2.5703,-2.5699,-2.5703,-2.5701,-2.5632,-2.5576,-2.555,-2.5518,-2.5483,-2.5453,-2.5421,-2.5387,-2.5351,-2.5243,-2.5141,-2.4993,-2.4827,-2.4594,-2.4302,-2.3921,-2.3473,-2.302,-2.2651,-2.2112,-2.1383,-2.061,-1.9989,-1.9475,-1.8854,-1.8468,-1.8346,-1.8576,-1.8696,-1.8679,-1.8936,-1.9134,-1.9247,-1.9298,-1.9502,-1.9829,-1.9927,-2.0149,-2.0512,-2.0509,-2.0475,-2.0342,-2.015,-2.001,-2.001,-2.0065,-2.017,-2.0376,-2.0714,-2.1103,-2.1568,-2.2153,-2.2643,-2.3017,-2.3307,-2.3553,-2.3779,-2.4165,-2.4563,-2.4924,-2.5601,-2.6197,-2.6977,-2.7255,-2.7607,-2.7922,-2.8003,-2.7968,-2.7986,-2.7986,-2.8014,-2.8042,-2.8053,-2.8042,-2.8042,-2.8099,-2.8154,-2.8172,-2.8182,-2.8182,-2.8182,-2.8182,-2.8182,-2.8182,-2.8154,-2.8154,-2.8154,-2.8182,-2.8164,-2.8191,-2.8237,-2.8398,-2.5965,-2.5588,-2.5252,-2.4768,-2.4187,-2.3916,-2.3958,-2.4173,-2.4374,-2.4626,-2.4912,-2.5099,-2.5203,-2.5283,-2.5406,-2.5531,-2.559,-2.5656,-2.569,-2.5694,-2.5703,-2.5696,-2.5698,-2.5652,-2.5634,-2.5593,-2.5564,-2.5511,-2.5495,-2.5437,-2.5415,-2.5388,-2.5262,-2.5153,-2.5038,-2.4875,-2.4642,-2.4336,-2.4039,-2.3624,-2.3193,-2.2893,-2.2508,-2.2062,-2.1234,-2.0692,-2.0483,-1.9697,-1.9197,-1.9122,-1.9499,-1.9698,-1.9648,-2.0017,-2.0311,-2.0392,-2.041,-2.0444,-2.0561,-2.0595,-2.0613,-2.0744,-2.076,-2.0826,-2.0827,-2.0644,-2.0475,-2.046,-2.0494,-2.0563,-2.0795,-2.115,-2.1584,-2.1998,-2.2527,-2.2968,-2.3324,-2.3562,-2.3865,-2.4169,-2.4754,-2.5187,-2.5665,-2.6525,-2.722,-2.7422,-2.779,-2.8035,-2.8042,-2.8042,-2.7986,-2.7957,-2.7986,-2.8042,-2.8042,-2.8081,-2.8144,-2.8126,-2.8154,-2.8182,-2.82,-2.82,-2.8182,-2.8182,-2.8182,-2.8182,-2.8182,-2.8182,-2.82,-2.82,-2.8237,-2.83,-2.8335,-2.8414,-2.8531,-2.5584,-2.5312,-2.5039,-2.4382,-2.3543,-2.3585,-2.3789,-2.4018,-2.4247,-2.4428,-2.466,-2.4902,-2.5091,-2.5214,-2.534,-2.5434,-2.5512,-2.5576,-2.5648,-2.5701,-2.5697,-2.5703,-2.5691,-2.569,-2.566,-2.5605,-2.5593,-2.5551,-2.5503,-2.5499,-2.5423,-2.5322,-2.5302,-2.5228,-2.5082,-2.4893,-2.4719,-2.4495,-2.421,-2.3852,-2.3383,-2.2995,-2.2642,-2.2354,-2.1878,-2.1565,-2.1411,-2.1101,-2.0863,-2.0879,-2.0701,-2.0634,-2.0583,-2.0628,-2.0595,-2.0527,-2.061,-2.0726,-2.0777,-2.0844,-2.0909,-2.0877,-2.1086,-2.1183,-2.1247,-2.1199,-2.1054,-2.0973,-2.0909,-2.1054,-2.1293,-2.1683,-2.2107,-2.2596,-2.2989,-2.3199,-2.3634,-2.3689,-2.4109,-2.4996,-2.5251,-2.5685,-2.6858,-2.7308,-2.7626,-2.8022,-2.8066,-2.8144,-2.8099,-2.8099,-2.8116,-2.8071,-2.8099,-2.8126,-2.8154,-2.8182,-2.82,-2.8182,-2.8182,-2.8182,-2.8182,-2.8182,-2.8182,-2.8182,-2.8182,-2.8182,-2.8182,-2.8182,-2.8182,-2.8227,-2.8264,-2.8309,-2.8378,-2.8482,-2.8575,-2.5098,-2.4858,-2.462,-2.4001,-2.3256,-2.3365,-2.3611,-2.385,-2.4094,-2.4303,-2.4498,-2.4719,-2.4929,-2.5134,-2.5293,-2.5376,-2.5444,-2.5556,-2.56,-2.5648,-2.5668,-2.5702,-2.5698,-2.5705,-2.5684,-2.5648,-2.5629,-2.5582,-2.5544,-2.5515,-2.5462,-2.5351,-2.5321,-2.5228,-2.5101,-2.4907,-2.47,-2.4493,-2.4229,-2.3933,-2.3571,-2.3175,-2.2825,-2.2525,-2.2141,-2.1882,-2.1768,-2.1526,-2.134,-2.1277,-2.1119,-2.1006,-2.099,-2.0941,-2.0811,-2.0745,-2.0778,-2.105,-2.1529,-2.1612,-2.1855,-2.2406,-2.2504,-2.2587,-2.272,-2.2769,-2.2769,-2.2688,-2.2264,-2.2231,-2.2911,-2.3335,-2.3675,-2.4071,-2.4496,-2.4843,-2.5095,-2.5274,-2.5604,-2.5996,-2.6414,-2.6849,-2.7515,-2.7907,-2.8157,-2.8317,-2.8246,-2.8209,-2.8182,-2.8154,-2.8154,-2.8154,-2.8154,-2.8154,-2.8182,-2.8182,-2.8182,-2.8182,-2.8182,-2.8182,-2.8182,-2.8182,-2.8182,-2.8182,-2.8182,-2.8182,-2.8182,-2.8182,-2.8182,-2.8227,-2.8291,-2.838,-2.85,-2.8569,-2.859,-2.453,-2.4333,-2.4099,-2.3573,-2.2944,-2.3193,-2.3407,-2.3634,-2.3873,-2.4114,-2.434,-2.4547,-2.4764,-2.5019,-2.5198,-2.5322,-2.5418,-2.5518,-2.5571,-2.5609,-2.5676,-2.5697,-2.5703,-2.5697,-2.5701,-2.5694,-2.5639,-2.5624,-2.5595,-2.5536,-2.5479,-2.5408,-2.5322,-2.525,-2.5106,-2.4902,-2.4734,-2.4528,-2.4266,-2.3996,-2.3703,-2.3365,-2.302,-2.2685,-2.2364,-2.2158,-2.2003,-2.1811,-2.1648,-2.1526,-2.1419,-2.1294,-2.123,-2.1119,-2.1055,-2.0958,-2.0942,-2.1293,-2.2063,-2.2144,-2.2551,-2.3365,-2.3565,-2.3667,-2.3802,-2.3968,-2.4149,-2.4347,-2.393,-2.3894,-2.4188,-2.4611,-2.4948,-2.5257,-2.5664,-2.6021,-2.6154,-2.6385,-2.6567,-2.6903,-2.7303,-2.7826,-2.8017,-2.833,-2.8518,-2.8406,-2.8327,-2.83,-2.8237,-2.8209,-2.8182,-2.8182,-2.8182,-2.8182,-2.8182,-2.8182,-2.8182,-2.8182,-2.8182,-2.8182,-2.8182,-2.8182,-2.8182,-2.8182,-2.8182,-2.8182,-2.8182,-2.8182,-2.8237,-2.8264,-2.8345,-2.8476,-2.8562,-2.8587,-2.8587,-2.3912,-2.3755,-2.3407,-2.3061,-2.2738,-2.2944,-2.3168,-2.343,-2.3646,-2.3858,-2.4152,-2.441,-2.4629,-2.4832,-2.5082,-2.5273,-2.5395,-2.5476,-2.5537,-2.5595,-2.5658,-2.5703,-2.5696,-2.5703,-2.5696,-2.5703,-2.5694,-2.5654,-2.5601,-2.5524,-2.5461,-2.5393,-2.5341,-2.5214,-2.5103,-2.4961,-2.4798,-2.458,-2.4339,-2.4057,-2.375,-2.3522,-2.3276,-2.2971,-2.2667,-2.2483,-2.2316,-2.2106,-2.1961,-2.1831,-2.1807,-2.1638,-2.1405,-2.1342,-2.1327,-2.1183,-2.1167,-2.1455,-2.2112,-2.2407,-2.2815,-2.3482,-2.3933,-2.3984,-2.4199,-2.4412,-2.4807,-2.5473,-2.5569,-2.5377,-2.4883,-2.5171,-2.5401,-2.565,-2.5915,-2.6219,-2.6368,-2.6684,-2.6933,-2.7548,-2.7842,-2.8105,-2.8627,-2.8669,-2.8587,-2.8484,-2.8362,-2.83,-2.8273,-2.8219,-2.8209,-2.8182,-2.8182,-2.8182,-2.8182,-2.8182,-2.8182,-2.8182,-2.8182,-2.8182,-2.8182,-2.8182,-2.8182,-2.8182,-2.8182,-2.8182,-2.8182,-2.8209,-2.8264,-2.8345,-2.8424,-2.851,-2.8605,-2.8587,-2.8587,-2.313,-2.3096,-2.2949,-2.2655,-2.2371,-2.2668,-2.297,-2.3223,-2.3526,-2.3771,-2.3978,-2.4266,-2.4478,-2.4689,-2.4902,-2.5122,-2.5274,-2.5395,-2.5471,-2.5529,-2.56,-2.5662,-2.5689,-2.57,-2.5703,-2.5693,-2.5696,-2.5675,-2.5587,-2.5538,-2.5476,-2.5401,-2.5341,-2.5214,-2.5084,-2.4961,-2.4798,-2.4599,-2.4321,-2.4078,-2.391,-2.4118,-2.4171,-2.3932,-2.3544,-2.3299,-2.3187,-2.3439,-2.3543,-2.3469,-2.3268,-2.311,-2.3014,-2.2851,-2.2785,-2.2817,-2.2735,-2.3043,-2.3728,-2.3978,-2.4408,-2.5135,-2.5375,-2.5497,-2.5681,-2.5848,-2.6098,-2.64,-2.6627,-2.6582,-2.6584,-2.6673,-2.6915,-2.721,-2.7507,-2.7725,-2.7939,-2.8072,-2.8309,-2.8548,-2.858,-2.8654,-2.8706,-2.87,-2.8608,-2.8518,-2.8458,-2.8406,-2.8327,-2.8273,-2.8264,-2.8227,-2.8182,-2.8182,-2.8182,-2.8182,-2.8182,-2.8182,-2.8182,-2.8182,-2.8182,-2.8182,-2.8182,-2.8182,-2.8182,-2.8182,-2.8182,-2.8264,-2.8318,-2.847,-2.8531,-2.8536,-2.8605,-2.8587,-2.8587,-2.2619,-2.2502,-2.2675,-2.2455,-2.2049,-2.2381,-2.2721,-2.3003,-2.3342,-2.3616,-2.3873,-2.4115,-2.4338,-2.4559,-2.4775,-2.4968,-2.5149,-2.5332,-2.5437,-2.5486,-2.5565,-2.5636,-2.5693,-2.5689,-2.57,-2.5702,-2.5703,-2.5664,-2.559,-2.5544,-2.549,-2.5448,-2.5351,-2.5233,-2.5103,-2.4974,-2.4794,-2.4594,-2.4393,-2.4264,-2.4356,-2.4644,-2.4843,-2.4878,-2.4768,-2.4493,-2.4156,-2.4491,-2.4598,-2.4461,-2.4273,-2.4114,-2.3984,-2.3835,-2.3735,-2.3768,-2.3735,-2.4046,-2.4755,-2.499,-2.5408,-2.6158,-2.64,-2.6538,-2.6674,-2.6842,-2.6942,-2.699,-2.7184,-2.7386,-2.7569,-2.7742,-2.8017,-2.8255,-2.8543,-2.8785,-2.8905,-2.9026,-2.9075,-2.9034,-2.8984,-2.8929,-2.8834,-2.8749,-2.8676,-2.8543,-2.8554,-2.8476,-2.8353,-2.83,-2.8273,-2.8227,-2.8182,-2.8182,-2.8182,-2.8182,-2.8182,-2.8182,-2.8182,-2.8182,-2.8182,-2.8182,-2.8182,-2.8182,-2.8182,-2.8182,-2.8237,-2.8273,-2.838,-2.855,-2.8575,-2.8562,-2.8587,-2.8587,-2.8587,-2.2394,-2.2132,-2.265,-2.2404,-2.1842,-2.2073,-2.2402,-2.2799,-2.3077,-2.3389,-2.3703,-2.3979,-2.4192,-2.4424,-2.467,-2.4861,-2.5019,-2.5253,-2.5432,-2.5503,-2.5568,-2.5615,-2.5703,-2.5696,-2.5693,-2.5701,-2.5689,-2.5668,-2.56,-2.5549,-2.5492,-2.5464,-2.537,-2.5233,-2.5084,-2.4949,-2.4804,-2.4626,-2.4501,-2.4708,-2.5108,-2.5068,-2.5273,-2.5699,-2.6214,-2.605,-2.5115,-2.5103,-2.5043,-2.4781,-2.4689,-2.4387,-2.4281,-2.415,-2.4001,-2.4049,-2.3984,-2.4331,-2.4975,-2.5245,-2.5681,-2.6302,-2.659,-2.6775,-2.6892,-2.7023,-2.7103,-2.7166,-2.7324,-2.7539,-2.7719,-2.7979,-2.8219,-2.838,-2.8637,-2.8834,-2.8975,-2.9112,-2.9197,-2.913,-2.9044,-2.8952,-2.8852,-2.8785,-2.8737,-2.863,-2.8598,-2.8521,-2.8424,-2.8353,-2.8273,-2.8209,-2.8182,-2.8182,-2.8182,-2.8182,-2.8182,-2.8182,-2.8182,-2.8182,-2.8182,-2.8182,-2.8182,-2.8182,-2.8182,-2.8182,-2.8201,-2.8282,-2.8416,-2.8549,-2.8572,-2.8605,-2.8587,-2.8587,-2.8587,-2.179,-2.1904,-2.2139,-2.2097,-2.1777,-2.1829,-2.2101,-2.2535,-2.2868,-2.3175,-2.3504,-2.3834,-2.4078,-2.4284,-2.4543,-2.4731,-2.4893,-2.5134,-2.5322,-2.5421,-2.5492,-2.5579,-2.5619,-2.5694,-2.5691,-2.5703,-2.5705,-2.5678,-2.5604,-2.5529,-2.5511,-2.5484,-2.5379,-2.5243,-2.5096,-2.4962,-2.4785,-2.4663,-2.502,-2.5262,-2.5369,-2.6095,-2.6548,-2.6649,-2.7234,-2.7285,-2.6812,-2.6597,-2.6492,-2.6347,-2.6226,-2.6048,-2.5832,-2.5782,-2.5731,-2.5662,-2.5697,-2.5764,-2.6016,-2.6185,-2.6354,-2.6708,-2.6875,-2.6989,-2.7103,-2.7233,-2.731,-2.7373,-2.7496,-2.7647,-2.7789,-2.8017,-2.8255,-2.844,-2.8712,-2.8929,-2.9085,-2.9197,-2.9218,-2.9197,-2.9071,-2.8957,-2.8834,-2.8804,-2.8737,-2.8637,-2.8605,-2.8554,-2.8432,-2.838,-2.83,-2.8209,-2.8209,-2.8182,-2.8182,-2.8182,-2.8182,-2.8182,-2.8182,-2.8182,-2.8182,-2.8182,-2.8182,-2.8182,-2.8182,-2.8191,-2.8228,-2.8309,-2.8442,-2.8539,-2.8572,-2.8605,-2.8587,-2.8587,-2.8587,-2.0948,-2.1323,-2.1536,-2.1637,-2.1588,-2.152,-2.1797,-2.2271,-2.2598,-2.2952,-2.3295,-2.3646,-2.3937,-2.4154,-2.4425,-2.4657,-2.4832,-2.5076,-2.5231,-2.536,-2.5456,-2.5531,-2.5605,-2.5668,-2.5689,-2.5702,-2.5705,-2.5681,-2.5613,-2.556,-2.5538,-2.5492,-2.536,-2.5233,-2.5084,-2.5,-2.4932,-2.511,-2.5447,-2.5835,-2.6292,-2.6939,-2.7371,-2.7504,-2.7804,-2.7847,-2.7647,-2.743,-2.7324,-2.7279,-2.7105,-2.6876,-2.6708,-2.6691,-2.6674,-2.6589,-2.6589,-2.6623,-2.6708,-2.6725,-2.6859,-2.6957,-2.707,-2.7166,-2.7261,-2.739,-2.7452,-2.7496,-2.7557,-2.7659,-2.7789,-2.8017,-2.8282,-2.8492,-2.8767,-2.8998,-2.9175,-2.928,-2.9262,-2.92,-2.9115,-2.898,-2.8858,-2.8767,-2.8718,-2.8619,-2.8587,-2.8562,-2.8432,-2.8424,-2.8318,-2.8237,-2.8209,-2.8182,-2.8182,-2.8182,-2.8182,-2.8182,-2.8182,-2.8182,-2.8182,-2.8182,-2.8182,-2.8182,-2.8182,-2.8219,-2.821,-2.8309,-2.8442,-2.8502,-2.8598,-2.8605,-2.8587,-2.8587,-2.8659,-1.9959,-2.0525,-2.087,-2.1164,-2.1322,-2.1274,-2.156,-2.1969,-2.2354,-2.2721,-2.3102,-2.3468,-2.3753,-2.4018,-2.432,-2.4578,-2.4802,-2.498,-2.5153,-2.5293,-2.5418,-2.5538,-2.56,-2.5671,-2.5689,-2.5703,-2.5687,-2.5662,-2.5617,-2.559,-2.5564,-2.5492,-2.536,-2.5214,-2.5122,-2.5019,-2.5328,-2.5705,-2.5873,-2.6557,-2.7581,-2.7609,-2.7691,-2.8094,-2.8035,-2.7893,-2.7719,-2.76,-2.7513,-2.739,-2.7215,-2.7055,-2.6942,-2.6909,-2.6825,-2.6742,-2.6842,-2.6876,-2.6909,-2.6975,-2.7023,-2.7103,-2.7198,-2.7261,-2.739,-2.7465,-2.7526,-2.7557,-2.7569,-2.7677,-2.7818,-2.8017,-2.8309,-2.8587,-2.8858,-2.9108,-2.9344,-2.9344,-2.9302,-2.92,-2.9134,-2.9021,-2.8834,-2.8731,-2.8658,-2.8619,-2.8587,-2.8492,-2.8432,-2.8398,-2.8318,-2.8264,-2.8209,-2.8182,-2.8182,-2.8182,-2.8182,-2.8182,-2.8182,-2.8182,-2.8182,-2.8182,-2.8182,-2.8182,-2.8209,-2.8201,-2.8237,-2.8362,-2.845,-2.8546,-2.858,-2.8587,-2.8641,-2.8677,-2.9011,-1.9288,-2.027,-2.0749,-2.1068,-2.1306,-2.1399,-2.1471,-2.1661,-2.2039,-2.2446,-2.2884,-2.3324,-2.3642,-2.3878,-2.4192,-2.4461,-2.4654,-2.4879,-2.5043,-2.5222,-2.5348,-2.5493,-2.5595,-2.5678,-2.5689,-2.5703,-2.5687,-2.5662,-2.5617,-2.5609,-2.5583,-2.5492,-2.5437,-2.529,-2.5141,-2.5633,-2.5838,-2.608,-2.701,-2.7483,-2.7765,-2.8155,-2.825,-2.8174,-2.8099,-2.7893,-2.7701,-2.7617,-2.7483,-2.7425,-2.7313,-2.7201,-2.7055,-2.7055,-2.7023,-2.6942,-2.6942,-2.7007,-2.7055,-2.712,-2.7198,-2.7296,-2.7373,-2.7465,-2.7526,-2.7557,-2.76,-2.763,-2.7689,-2.7748,-2.794,-2.8053,-2.8327,-2.8687,-2.8952,-2.9156,-2.9283,-2.9365,-2.9344,-2.924,-2.9178,-2.9044,-2.8863,-2.8749,-2.87,-2.8612,-2.8562,-2.8492,-2.8406,-2.8353,-2.8318,-2.8237,-2.8182,-2.8182,-2.8182,-2.8182,-2.8182,-2.8182,-2.8182,-2.8182,-2.8182,-2.8182,-2.8182,-2.8182,-2.8237,-2.8255,-2.8317,-2.8396,-2.8484,-2.8598,-2.8605,-2.8605,-2.8848,-2.8993,-2.9445,-1.8186,-1.9583,-2.0061,-2.0543,-2.1024,-2.1145,-2.1258,-2.1451,-2.1823,-2.2271,-2.2721,-2.3151,-2.3468,-2.3735,-2.4058,-2.4356,-2.4575,-2.4804,-2.5006,-2.5163,-2.5365,-2.5505,-2.5613,-2.5681,-2.5689,-2.5703,-2.5687,-2.5662,-2.5617,-2.5609,-2.5738,-2.5986,-2.5899,-2.5943,-2.6288,-2.6469,-2.6801,-2.7056,-2.7755,-2.813,-2.8333,-2.8482,-2.843,-2.8246,-2.8081,-2.7911,-2.7701,-2.7569,-2.7483,-2.7438,-2.7345,-2.7264,-2.7184,-2.7184,-2.7169,-2.7122,-2.7122,-2.7169,-2.7233,-2.7279,-2.7327,-2.7421,-2.7496,-2.7557,-2.7587,-2.76,-2.7689,-2.7701,-2.7701,-2.7806,-2.7996,-2.8164,-2.8406,-2.8662,-2.8952,-2.9156,-2.928,-2.9344,-2.9323,-2.924,-2.9156,-2.9067,-2.8834,-2.8785,-2.8712,-2.8612,-2.8518,-2.844,-2.838,-2.8327,-2.8273,-2.8237,-2.8182,-2.8182,-2.8182,-2.8182,-2.8182,-2.8182,-2.8182,-2.8182,-2.8209,-2.8209,-2.8237,-2.8237,-2.8273,-2.8309,-2.837,-2.8422,-2.8492,-2.8562,-2.8587,-2.8848,-2.9156,-2.959,-3.0025,-1.6914,-1.8502,-1.9046,-1.9767,-2.0528,-2.0759,-2.1029,-2.1263,-2.1603,-2.2073,-2.2561,-2.2927,-2.3324,-2.361,-2.3979,-2.4248,-2.451,-2.4775,-2.4975,-2.5165,-2.5379,-2.5521,-2.5593,-2.5681,-2.5689,-2.5703,-2.5687,-2.5662,-2.5613,-2.5609,-2.601,-2.6392,-2.6535,-2.696,-2.7281,-2.7495,-2.7859,-2.8125,-2.8277,-2.8519,-2.8737,-2.87,-2.8466,-2.8228,-2.8007,-2.7882,-2.7701,-2.76,-2.7513,-2.7544,-2.7376,-2.7313,-2.7299,-2.7282,-2.7299,-2.7299,-2.7282,-2.7313,-2.7407,-2.7407,-2.7421,-2.7496,-2.7569,-2.76,-2.763,-2.7659,-2.7701,-2.7701,-2.7701,-2.7806,-2.7996,-2.8255,-2.844,-2.8612,-2.8834,-2.904,-2.9197,-2.928,-2.928,-2.9178,-2.9152,-2.9017,-2.89,-2.8822,-2.8767,-2.8562,-2.8466,-2.8406,-2.8327,-2.83,-2.8264,-2.8209,-2.8182,-2.8182,-2.8182,-2.8182,-2.8182,-2.8182,-2.8182,-2.8209,-2.8237,-2.8237,-2.8264,-2.83,-2.8353,-2.8388,-2.844,-2.8492,-2.8572,-2.8815,-2.9047,-2.9373,-2.9735,-3.0296,-3.0785,-1.5581,-1.7103,-1.8524,-1.9556,-2.0234,-2.0739,-2.1091,-2.1352,-2.1518,-2.1836,-2.232,-2.2859,-2.3277,-2.3544,-2.3919,-2.4247,-2.4493,-2.4746,-2.4975,-2.5245,-2.5418,-2.5535,-2.5609,-2.5678,-2.5689,-2.5703,-2.5687,-2.5662,-2.5613,-2.5721,-2.599,-2.6644,-2.6872,-2.6998,-2.7708,-2.8259,-2.8369,-2.8519,-2.8799,-2.8944,-2.8883,-2.8737,-2.844,-2.8201,-2.7922,-2.776,-2.7719,-2.763,-2.7587,-2.7526,-2.7407,-2.733,-2.733,-2.733,-2.733,-2.7393,-2.7376,-2.7407,-2.7483,-2.7513,-2.7574,-2.7587,-2.763,-2.7672,-2.7672,-2.7701,-2.7701,-2.7701,-2.7701,-2.7806,-2.7968,-2.8136,-2.8327,-2.851,-2.8662,-2.8815,-2.8957,-2.913,-2.9175,-2.913,-2.9062,-2.897,-2.881,-2.8705,-2.8612,-2.8492,-2.8414,-2.8335,-2.83,-2.8264,-2.8237,-2.8182,-2.8182,-2.8182,-2.8182,-2.8209,-2.8209,-2.8209,-2.8191,-2.8264,-2.8291,-2.8318,-2.8345,-2.838,-2.8414,-2.8466,-2.851,-2.8724,-2.8822,-2.9174,-2.9554,-3.0025,-3.0496,-3.1039,-3.1546,-1.4037,-1.5733,-1.7466,-1.8788,-1.9745,-2.0455,-2.0966,-2.129,-2.144,-2.1748,-2.2275,-2.2816,-2.3236,-2.3566,-2.3937,-2.4247,-2.4526,-2.4832,-2.5096,-2.532,-2.5459,-2.554,-2.5609,-2.5662,-2.5689,-2.5703,-2.5687,-2.5662,-2.5687,-2.6026,-2.6571,-2.7266,-2.7535,-2.821,-2.8687,-2.908,-2.9146,-2.9063,-2.9173,-2.9206,-2.8998,-2.8737,-2.8414,-2.8164,-2.7911,-2.7777,-2.7701,-2.763,-2.76,-2.7557,-2.7421,-2.7393,-2.7376,-2.7376,-2.7376,-2.7438,-2.7452,-2.7483,-2.7526,-2.7587,-2.7617,-2.7659,-2.7672,-2.7701,-2.7701,-2.7701,-2.7701,-2.7701,-2.773,-2.7777,-2.7929,-2.8099,-2.8264,-2.8353,-2.8536,-2.8669,-2.8767,-2.8952,-2.9044,-2.9017,-2.8947,-2.8834,-2.8712,-2.8612,-2.851,-2.8414,-2.8326,-2.8264,-2.8264,-2.8209,-2.8209,-2.8182,-2.8182,-2.8182,-2.8182,-2.8209,-2.8209,-2.8219,-2.821,-2.8309,-2.838,-2.8424,-2.8468,-2.8476,-2.8466,-2.851,-2.8598,-2.8804,-2.9174,-2.9554,-3.0043,-3.0677,-3.1238,-3.1673,-3.218,-1.2356,-1.4381,-1.61,-1.7675,-1.9098,-1.9946,-2.0619,-2.1198,-2.1343,-2.1718,-2.2303,-2.2764,-2.3212,-2.3588,-2.3958,-2.4266,-2.4588,-2.4891,-2.5184,-2.5385,-2.5466,-2.5535,-2.5609,-2.5665,-2.5693,-2.5703,-2.5703,-2.5671,-2.5834,-2.6417,-2.7013,-2.7846,-2.8576,-2.9098,-2.9789,-2.9921,-2.9696,-2.9514,-2.9338,-2.9163,-2.8994,-2.8712,-2.8406,-2.8081,-2.7946,-2.7824,-2.7719,-2.7659,-2.76,-2.7617,-2.7483,-2.7483,-2.7496,-2.7421,-2.7407,-2.7483,-2.7483,-2.7526,-2.7587,-2.7617,-2.7659,-2.7701,-2.7701,-2.7701,-2.7701,-2.7701,-2.7701,-2.7701,-2.773,-2.7748,-2.7888,-2.8032,-2.8126,-2.8237,-2.8406,-2.851,-2.8605,-2.8737,-2.8791,-2.8881,-2.8834,-2.8712,-2.8637,-2.8536,-2.8432,-2.8353,-2.8246,-2.8192,-2.8191,-2.8182,-2.8182,-2.8182,-2.8182,-2.8182,-2.8182,-2.8254,-2.8282,-2.8246,-2.8237,-2.8335,-2.8432,-2.8442,-2.846,-2.851,-2.8536,-2.8598,-2.8833,-2.9264,-2.9626,-3.0015,-3.0659,-3.1419,-3.1926,-3.2306,-3.2759,-1.0753,-1.2772,-1.4704,-1.6537,-1.8177,-1.9264,-2.0182,-2.0862,-2.1213,-2.1628,-2.2181,-2.2756,-2.3212,-2.3544,-2.3941,-2.4372,-2.4771,-2.5037,-2.5224,-2.5393,-2.5473,-2.554,-2.5624,-2.5679,-2.57,-2.5701,-2.5693,-2.5675,-2.5883,-2.6405,-2.7318,-2.7952,-2.8699,-2.9448,-2.9859,-2.991,-2.9718,-2.9531,-2.933,-2.9134,-2.8905,-2.8662,-2.8353,-2.8025,-2.7929,-2.7842,-2.7748,-2.7701,-2.7689,-2.7672,-2.7539,-2.7539,-2.7569,-2.7438,-2.7393,-2.7438,-2.7483,-2.7526,-2.7587,-2.7659,-2.7689,-2.7701,-2.7701,-2.7701,-2.7701,-2.7701,-2.7701,-2.7701,-2.773,-2.7748,-2.7888,-2.7946,-2.8032,-2.8154,-2.8237,-2.8345,-2.8424,-2.8484,-2.8612,-2.8737,-2.8687,-2.8612,-2.8536,-2.8458,-2.838,-2.83,-2.8246,-2.8201,-2.8191,-2.8182,-2.8182,-2.8182,-2.8182,-2.8182,-2.8182,-2.83,-2.8327,-2.8291,-2.83,-2.8327,-2.8416,-2.8407,-2.8434,-2.8458,-2.8619,-2.8815,-2.9166,-2.9636,-3.036,-3.0948,-3.159,-3.2234,-3.2531,-3.281,-3.2936,-0.8471,-1.0198,-1.238,-1.4626,-1.6665,-1.828,-1.9691,-2.092,-2.1311,-2.1744,-2.2286,-2.2841,-2.3301,-2.3671,-2.402,-2.4491,-2.491,-2.5138,-2.5284,-2.5441,-2.5512,-2.5581,-2.5644,-2.5693,-2.5703,-2.5691,-2.5687,-2.5873,-2.6265,-2.7062,-2.7719,-2.8536,-2.9232,-2.9742,-2.9924,-2.9857,-2.9663,-2.9474,-2.9289,-2.9089,-2.8858,-2.8543,-2.8255,-2.8053,-2.794,-2.7882,-2.7748,-2.7701,-2.7672,-2.763,-2.7557,-2.7526,-2.7496,-2.7421,-2.7345,-2.7452,-2.7513,-2.7526,-2.7587,-2.763,-2.7659,-2.7701,-2.7701,-2.7701,-2.7701,-2.7701,-2.7701,-2.7701,-2.7701,-2.7748,-2.7795,-2.7842,-2.7946,-2.8032,-2.8116,-2.8182,-2.8264,-2.8318,-2.845,-2.8605,-2.8554,-2.8458,-2.8414,-2.8335,-2.83,-2.8246,-2.8237,-2.8227,-2.8182,-2.8182,-2.8182,-2.8182,-2.8182,-2.8182,-2.8182,-2.8254,-2.8327,-2.8309,-2.8291,-2.8336,-2.8345,-2.8336,-2.8345,-2.838,-2.8621,-2.8891,-2.9476,-2.9999,-3.0964,-3.183,-3.2252,-3.2667,-3.2973,-3.3226,-3.3244,-0.6197,-0.7688,-0.9756,-1.2369,-1.5189,-1.6835,-1.8948,-2.0899,-2.155,-2.1994,-2.252,-2.3017,-2.3463,-2.384,-2.4229,-2.4651,-2.5106,-2.5243,-2.5385,-2.5499,-2.556,-2.5636,-2.5683,-2.5703,-2.5697,-2.5645,-2.5634,-2.5906,-2.6411,-2.7357,-2.8192,-2.8725,-2.9503,-3.0034,-2.9943,-2.9771,-2.9608,-2.9433,-2.9225,-2.8998,-2.8712,-2.8432,-2.8191,-2.7996,-2.7986,-2.7882,-2.7701,-2.7672,-2.7612,-2.7569,-2.7513,-2.7452,-2.7456,-2.7362,-2.7376,-2.7513,-2.7496,-2.7496,-2.7526,-2.7569,-2.763,-2.7672,-2.7683,-2.7701,-2.7701,-2.7701,-2.7701,-2.7701,-2.7701,-2.7701,-2.7748,-2.7795,-2.7871,-2.7929,-2.8014,-2.8109,-2.8182,-2.8264,-2.8291,-2.8371,-2.8371,-2.8371,-2.8327,-2.83,-2.8246,-2.8237,-2.8227,-2.8227,-2.8182,-2.8182,-2.8182,-2.8182,-2.8182,-2.8182,-2.8182,-2.8182,-2.8254,-2.8264,-2.8254,-2.8272,-2.8264,-2.8255,-2.8255,-2.8246,-2.8612,-2.8951,-2.9615,-3.0417,-3.1379,-3.217,-3.2709,-3.2996,-3.3129,-3.3135,-3.3104,-0.4451,-0.5778,-0.6813,-0.9886,-1.3662,-1.4859,-1.7584,-2.0879,-2.1622,-2.2265,-2.279,-2.3188,-2.362,-2.4039,-2.4524,-2.4869,-2.5107,-2.5293,-2.5441,-2.5568,-2.5593,-2.564,-2.5701,-2.57,-2.5651,-2.5658,-2.5621,-2.5557,-2.6142,-2.7258,-2.7907,-2.8352,-2.9398,-2.994,-2.9825,-2.9645,-2.9451,-2.9243,-2.9044,-2.8785,-2.8502,-2.8291,-2.8126,-2.8014,-2.7946,-2.7813,-2.763,-2.76,-2.7569,-2.7496,-2.7452,-2.7487,-2.7535,-2.7411,-2.7296,-2.7261,-2.7293,-2.7355,-2.7421,-2.7496,-2.7569,-2.76,-2.7659,-2.7701,-2.7701,-2.7701,-2.7701,-2.7701,-2.7701,-2.7701,-2.7701,-2.773,-2.7806,-2.7911,-2.7986,-2.8099,-2.8154,-2.82,-2.8237,-2.8237,-2.8264,-2.8291,-2.8273,-2.8246,-2.8209,-2.8209,-2.8182,-2.8182,-2.8182,-2.8182,-2.8154,-2.8154,-2.8126,-2.8126,-2.8126,-2.8154,-2.8154,-2.8182,-2.8154,-2.8162,-2.8109,-2.8073,-2.8017,-2.8113,-2.8464,-2.9066,-2.9846,-3.0736,-3.1773,-3.2375,-3.2769,-3.2957,-3.3068,-3.3073,-3.2965,-0.1327,-0.2932,-0.3848,-0.5646,-0.8413,-1.2167,-1.5159,-1.7648,-2.0986,-2.2695,-2.3038,-2.3405,-2.386,-2.4318,-2.4756,-2.5005,-2.5206,-2.5374,-2.5512,-2.56,-2.5634,-2.566,-2.5681,-2.5668,-2.56,-2.564,-2.5909,-2.612,-2.6439,-2.7135,-2.802,-2.8955,-2.9504,-2.9806,-2.9682,-2.9492,-2.9289,-2.9048,-2.8767,-2.8484,-2.83,-2.8136,-2.8025,-2.7853,-2.7777,-2.7689,-2.7569,-2.7496,-2.7417,-2.7355,-2.7279,-2.725,-2.7284,-2.722,-2.7156,-2.7171,-2.7103,-2.7149,-2.7279,-2.7324,-2.7417,-2.7526,-2.7617,-2.7659,-2.7701,-2.7701,-2.7701,-2.7701,-2.7701,-2.7701,-2.7748,-2.7795,-2.7824,-2.7929,-2.7986,-2.8042,-2.8126,-2.8144,-2.8172,-2.82,-2.8182,-2.8209,-2.8219,-2.8209,-2.8182,-2.8182,-2.8182,-2.8182,-2.8154,-2.8154,-2.8126,-2.8071,-2.8071,-2.8071,-2.8071,-2.8053,-2.8042,-2.8025,-2.795,-2.794,-2.7922,-2.7876,-2.7818,-2.7988,-2.8381,-2.9114,-3.0021,-3.0826,-3.1647,-3.2225,-3.277,-3.2802,-3.2834,-3.287,-3.2758,0.1833,0.0388,-0.0657,-0.1954,-0.3633,-0.845,-1.2042,-1.5108,-1.8885,-2.178,-2.3221,-2.3741,-2.4192,-2.4636,-2.4904,-2.5133,-2.5318,-2.5466,-2.5561,-2.5626,-2.5658,-2.5663,-2.564,-2.561,-2.5538,-2.5439,-2.5744,-2.6231,-2.6753,-2.729,-2.815,-2.9547,-2.9528,-2.9589,-2.9472,-2.9291,-2.9075,-2.8815,-2.8484,-2.8246,-2.8109,-2.7979,-2.7818,-2.7701,-2.7612,-2.7552,-2.7417,-2.7355,-2.7261,-2.7166,-2.712,-2.7105,-2.7057,-2.7074,-2.6992,-2.6975,-2.6873,-2.6891,-2.7038,-2.7135,-2.7244,-2.7386,-2.7526,-2.7617,-2.7642,-2.7672,-2.7683,-2.7701,-2.7701,-2.773,-2.7748,-2.7842,-2.79,-2.7957,-2.7986,-2.8042,-2.8071,-2.8071,-2.8071,-2.8099,-2.8099,-2.8144,-2.8126,-2.8154,-2.8154,-2.8154,-2.8154,-2.8154,-2.8126,-2.8071,-2.7996,-2.794,-2.7911,-2.7911,-2.7893,-2.7893,-2.7911,-2.7882,-2.7777,-2.7748,-2.7701,-2.7672,-2.7612,-2.7884,-2.8219,-2.8903,-2.9685,-3.0585,-3.1438,-3.2033,-3.2506,-3.2506,-3.2557,-3.2558,-3.2491,0.4446,0.422,0.2722,0.0369,-0.2567,-0.2537,-0.7604,-1.3887,-1.5444,-1.9217,-2.3557,-2.4229,-2.4551,-2.4823,-2.5053,-2.5255,-2.5394,-2.5546,-2.5616,-2.5637,-2.5623,-2.5601,-2.557,-2.5517,-2.5441,-2.5302,-2.5546,-2.6199,-2.6851,-2.694,-2.7672,-2.8424,-2.9119,-2.926,-2.9166,-2.8943,-2.8725,-2.8466,-2.8191,-2.8053,-2.794,-2.7806,-2.7642,-2.7509,-2.7417,-2.7341,-2.7135,-2.7103,-2.707,-2.699,-2.6957,-2.6925,-2.6892,-2.6926,-2.6825,-2.6691,-2.6691,-2.6708,-2.6759,-2.694,-2.7135,-2.7261,-2.7386,-2.7526,-2.7569,-2.7617,-2.763,-2.7672,-2.7672,-2.7748,-2.7813,-2.7888,-2.7946,-2.7957,-2.7986,-2.7996,-2.8042,-2.8042,-2.8042,-2.8014,-2.8014,-2.8014,-2.7986,-2.7968,-2.8071,-2.8071,-2.8025,-2.8025,-2.7968,-2.7911,-2.7836,-2.7789,-2.773,-2.773,-2.7701,-2.7672,-2.763,-2.76,-2.7539,-2.7509,-2.7526,-2.7448,-2.7386,-2.7528,-2.7861,-2.8591,-2.9299,-3.0075,-3.0889,-3.176,-3.2249,-3.2249,-3.2232,-3.2249,-3.2108,0.6239,0.6234,0.5579,0.4317,0.2483,-0.0193,-0.3167,-0.6922,-1.2891,-1.8927,-2.4247,-2.4601,-2.4818,-2.501,-2.5216,-2.5364,-2.5443,-2.5554,-2.5618,-2.5603,-2.5573,-2.5517,-2.546,-2.5352,-2.5254,-2.5191,-2.5373,-2.5627,-2.6127,-2.6488,-2.7165,-2.7901,-2.8599,-2.8879,-2.8803,-2.8558,-2.8273,-2.8146,-2.7911,-2.7748,-2.7677,-2.7609,-2.7438,-2.7244,-2.7173,-2.7091,-2.6992,-2.6876,-2.6809,-2.6742,-2.6708,-2.6691,-2.6674,-2.6708,-2.6607,-2.6471,-2.6538,-2.6572,-2.6572,-2.6759,-2.694,-2.7135,-2.7261,-2.7373,-2.7465,-2.7496,-2.7587,-2.76,-2.763,-2.7707,-2.7766,-2.7842,-2.7917,-2.7975,-2.7986,-2.7968,-2.7968,-2.7957,-2.7911,-2.7882,-2.7864,-2.7864,-2.7806,-2.7748,-2.7882,-2.7986,-2.7922,-2.7847,-2.7806,-2.7719,-2.7642,-2.7582,-2.7522,-2.7491,-2.7491,-2.743,-2.7355,-2.7355,-2.7324,-2.7293,-2.731,-2.7201,-2.7154,-2.7291,-2.748,-2.815,-2.8836,-2.9472,-3.0368,-3.1513,-3.193,-3.1965,-3.1929,-3.1912,-3.1785,0.7894,0.7947,0.7841,0.7326,0.6221,0.3001,0.0893,-0.1622,-0.962,-1.8052,-2.4436,-2.485,-2.5037,-2.5175,-2.5348,-2.5463,-2.5506,-2.5542,-2.5541,-2.5519,-2.5449,-2.5374,-2.5263,-2.5113,-2.4968,-2.496,-2.5086,-2.5298,-2.5521,-2.5855,-2.6263,-2.691,-2.7737,-2.8066,-2.8456,-2.8083,-2.7829,-2.7719,-2.7569,-2.7369,-2.7293,-2.7233,-2.7089,-2.6923,-2.6843,-2.6759,-2.664,-2.6555,-2.6486,-2.6452,-2.6434,-2.6415,-2.6415,-2.6434,-2.6382,-2.6382,-2.6399,-2.645,-2.6434,-2.6589,-2.6775,-2.694,-2.7055,-2.7184,-2.7261,-2.7355,-2.7417,-2.7526,-2.7557,-2.7617,-2.7659,-2.7754,-2.7813,-2.7824,-2.7824,-2.7824,-2.7795,-2.7795,-2.7748,-2.7689,-2.7689,-2.7689,-2.7659,-2.76,-2.763,-2.7736,-2.7736,-2.7659,-2.76,-2.7509,-2.7448,-2.7355,-2.7293,-2.7279,-2.7279,-2.7215,-2.7184,-2.7184,-2.7152,-2.7103,-2.7087,-2.6975,-2.6959,-2.7043,-2.7316,-2.776,-2.8424,-2.9174,-3.0255,-3.1414,-3.1585,-3.1726,-3.1709,-3.1654,-3.1545,0.957,0.9526,0.9422,0.8758,0.7865,0.7688,0.4815,0.027,-0.6196,-1.4528,-2.3438,-2.4601,-2.5173,-2.5302,-2.5451,-2.5512,-2.5527,-2.5514,-2.5461,-2.5363,-2.523,-2.5138,-2.4965,-2.4774,-2.4576,-2.4383,-2.4377,-2.4533,-2.4871,-2.4725,-2.5033,-2.5588,-2.6347,-2.7141,-2.8029,-2.7806,-2.7478,-2.7261,-2.7166,-2.6989,-2.6873,-2.6808,-2.6657,-2.6521,-2.64,-2.6347,-2.6277,-2.6189,-2.6154,-2.617,-2.617,-2.617,-2.6187,-2.6241,-2.6241,-2.6203,-2.6241,-2.6241,-2.6239,-2.6434,-2.6589,-2.6708,-2.6859,-2.6957,-2.707,-2.7149,-2.7261,-2.7373,-2.7434,-2.7478,-2.7557,-2.7617,-2.7647,-2.763,-2.763,-2.7617,-2.76,-2.7569,-2.7522,-2.7461,-2.7496,-2.7513,-2.7465,-2.7434,-2.7386,-2.7448,-2.7496,-2.7465,-2.7386,-2.7341,-2.723,-2.7166,-2.7087,-2.7023,-2.7023,-2.7007,-2.6975,-2.6975,-2.6975,-2.6892,-2.6892,-2.6842,-2.6859,-2.6842,-2.7046,-2.7385,-2.8127,-2.8952,-3.0095,-3.1159,-3.1355,-3.1462,-3.1445,-3.1423,-3.1363,1.139,1.1299,1.1182,1.078,1.0179,0.9065,0.7384,0.4197,-0.4038,-1.2664,-1.9501,-2.3345,-2.5318,-2.5432,-2.55,-2.5546,-2.5492,-2.5401,-2.5321,-2.5111,-2.4915,-2.4723,-2.4538,-2.4276,-2.4081,-2.387,-2.3681,-2.3477,-2.3567,-2.3485,-2.372,-2.4278,-2.5082,-2.6244,-2.6985,-2.71,-2.6923,-2.6757,-2.6674,-2.659,-2.647,-2.6367,-2.6262,-2.6101,-2.5994,-2.5921,-2.5864,-2.5811,-2.5791,-2.5791,-2.5791,-2.5828,-2.5864,-2.5901,-2.5937,-2.597,-2.6026,-2.6026,-2.6007,-2.6099,-2.6293,-2.6468,-2.664,-2.6725,-2.6825,-2.694,-2.7055,-2.7184,-2.7198,-2.7261,-2.7307,-2.7434,-2.7465,-2.7386,-2.7386,-2.7386,-2.7369,-2.7338,-2.7276,-2.7244,-2.723,-2.7184,-2.712,-2.707,-2.7021,-2.7053,-2.7085,-2.7198,-2.7166,-2.712,-2.7072,-2.6957,-2.6892,-2.6792,-2.6775,-2.6742,-2.6708,-2.6708,-2.6674,-2.664,-2.6606,-2.664,-2.6657,-2.6623,-2.6774,-2.6992,-2.8012,-2.9047,-3.0018,-3.0801,-3.0982,-3.1128,-3.1112,-3.1213,-3.1308,1.3127,1.3004,1.2878,1.2734,1.2201,1.0485,0.8439,0.457,-0.4183,-1.1671,-1.7565,-2.2962,-2.5418,-2.5478,-2.5499,-2.5401,-2.529,-2.5091,-2.4893,-2.4676,-2.4388,-2.4135,-2.3894,-2.3668,-2.3392,-2.3206,-2.2968,-2.2772,-2.2599,-2.2373,-2.262,-2.3186,-2.3831,-2.4614,-2.5479,-2.5995,-2.6383,-2.6245,-2.6156,-2.6085,-2.5977,-2.5885,-2.5795,-2.5663,-2.5551,-2.5476,-2.5438,-2.54,-2.5378,-2.5378,-2.5416,-2.5416,-2.5476,-2.5567,-2.5605,-2.5696,-2.5791,-2.5791,-2.5828,-2.5917,-2.6079,-2.6222,-2.6364,-2.6452,-2.6538,-2.664,-2.6792,-2.6875,-2.694,-2.6989,-2.7021,-2.7166,-2.7135,-2.7053,-2.7053,-2.7085,-2.7053,-2.7021,-2.7021,-2.6956,-2.6923,-2.6842,-2.6759,-2.6674,-2.6607,-2.6624,-2.6657,-2.6808,-2.6908,-2.6892,-2.6842,-2.6742,-2.6657,-2.6589,-2.6521,-2.6486,-2.6468,-2.6415,-2.6415,-2.6364,-2.6399,-2.6434,-2.6415,-2.6432,-2.6549,-2.6964,-2.8139,-2.9164,-3.0037,-3.0485,-3.0576,-3.0708,-3.0766,-3.0974,-3.1157,1.471,1.4665,1.4552,1.4438,1.3968,1.2203,0.7727,0.1152,-0.4946,-1.0973,-1.7052,-2.2096,-2.474,-2.5297,-2.531,-2.5043,-2.4728,-2.4505,-2.4197,-2.3916,-2.3526,-2.3303,-2.3006,-2.275,-2.2496,-2.2337,-2.2135,-2.1848,-2.1753,-2.1562,-2.1724,-2.1969,-2.2195,-2.2908,-2.3807,-2.4724,-2.535,-2.5545,-2.5594,-2.5497,-2.54,-2.5378,-2.5262,-2.5146,-2.5052,-2.5029,-2.4989,-2.4966,-2.495,-2.495,-2.5005,-2.5045,-2.5107,-2.5201,-2.5317,-2.5432,-2.5589,-2.5626,-2.5663,-2.5733,-2.5807,-2.5897,-2.5954,-2.6082,-2.626,-2.6365,-2.6435,-2.6572,-2.664,-2.6674,-2.6708,-2.6708,-2.6725,-2.6691,-2.6691,-2.6691,-2.6691,-2.6691,-2.6691,-2.6657,-2.664,-2.6572,-2.6435,-2.633,-2.626,-2.6312,-2.633,-2.6349,-2.6469,-2.6589,-2.6537,-2.6468,-2.6417,-2.6382,-2.6312,-2.6241,-2.6241,-2.6187,-2.6187,-2.617,-2.617,-2.617,-2.6134,-2.6168,-2.6303,-2.6879,-2.7777,-2.887,-3.0028,-3.0274,-3.0205,-3.0392,-3.0534,-3.0808,-3.1056,1.6696,1.6587,1.6632,1.6565,1.6233,1.5203,1.1904,0.7007,0.0535,-0.5746,-1.1605,-1.7594,-2.2046,-2.4861,-2.4674,-2.4251,-2.3879,-2.3555,-2.3163,-2.2794,-2.2358,-2.2139,-2.1872,-2.1574,-2.1404,-2.1222,-2.1021,-2.0831,-2.0717,-2.0574,-2.0393,-2.0362,-2.0819,-2.1271,-2.1896,-2.2854,-2.3849,-2.4642,-2.48,-2.4879,-2.4815,-2.4751,-2.467,-2.463,-2.4533,-2.4508,-2.4508,-2.4467,-2.4467,-2.4508,-2.4605,-2.4686,-2.4766,-2.4934,-2.514,-2.5233,-2.5278,-2.5285,-2.5394,-2.5432,-2.547,-2.547,-2.5508,-2.5733,-2.5937,-2.6046,-2.6118,-2.6225,-2.6295,-2.633,-2.633,-2.6349,-2.6349,-2.6314,-2.6349,-2.6349,-2.6349,-2.633,-2.633,-2.633,-2.6295,-2.6225,-2.6082,-2.6046,-2.599,-2.6007,-2.6007,-2.5974,-2.6046,-2.6189,-2.6241,-2.617,-2.6134,-2.6082,-2.6063,-2.599,-2.599,-2.6007,-2.5954,-2.5901,-2.5864,-2.5864,-2.5848,-2.6094,-2.6466,-2.6808,-2.7251,-2.845,-2.9821,-2.9874,-2.9847,-3.0065,-3.026,-3.0582,-3.1117,1.8432,1.8427,1.8573,1.8553,1.8341,1.7833,1.5964,1.2341,0.4745,-0.2245,-0.8226,-1.4505,-1.9753,-2.355,-2.344,-2.2833,-2.2317,-2.1902,-2.1513,-2.1147,-2.0839,-2.0575,-2.0365,-2.0164,-1.9993,-1.9867,-1.9728,-1.9551,-1.9504,-1.9441,-1.9251,-1.9203,-1.9642,-1.9856,-2.0327,-2.1155,-2.2155,-2.311,-2.3766,-2.4059,-2.412,-2.4078,-2.4051,-2.4009,-2.3909,-2.3909,-2.3909,-2.3925,-2.3952,-2.3952,-2.4094,-2.4234,-2.4343,-2.457,-2.4708,-2.4806,-2.4846,-2.4886,-2.4966,-2.5084,-2.5084,-2.5084,-2.5084,-2.5278,-2.5454,-2.5642,-2.5754,-2.5901,-2.5937,-2.5974,-2.5974,-2.5957,-2.5974,-2.5974,-2.5974,-2.5994,-2.5974,-2.5974,-2.5937,-2.5954,-2.5864,-2.5791,-2.5717,-2.5696,-2.5659,-2.5621,-2.5584,-2.5567,-2.5663,-2.5811,-2.5885,-2.5864,-2.5828,-2.5828,-2.577,-2.5696,-2.5696,-2.5659,-2.5637,-2.5584,-2.5567,-2.5594,-2.5643,-2.6209,-2.6848,-2.7057,-2.7237,-2.8371,-2.9441,-2.9412,-2.946,-2.9614,-2.9971,-3.0416,-3.1121,2.0011,2.0182,2.0317,2.04,2.0289,2.0081,1.9483,1.7805,0.8779,0.0509,-0.5703,-1.165,-1.6709,-2.0633,-2.1021,-2.0528,-2.0063,-1.9701,-1.9397,-1.9166,-1.8775,-1.8541,-1.845,-1.8399,-1.818,-1.8173,-1.8177,-1.8099,-1.8193,-1.8168,-1.8108,-1.8153,-1.8164,-1.8368,-1.8906,-1.9543,-2.0426,-2.1193,-2.2265,-2.2981,-2.3216,-2.3319,-2.329,-2.326,-2.3216,-2.326,-2.326,-2.329,-2.3363,-2.3406,-2.3508,-2.3653,-2.4028,-2.4067,-2.4177,-2.4245,-2.4343,-2.4441,-2.4523,-2.463,-2.467,-2.471,-2.4726,-2.4791,-2.491,-2.5185,-2.5378,-2.5492,-2.553,-2.5567,-2.5567,-2.5567,-2.5567,-2.553,-2.5567,-2.5551,-2.5567,-2.5567,-2.553,-2.5546,-2.554,-2.5464,-2.5448,-2.5426,-2.5404,-2.531,-2.524,-2.5201,-2.5169,-2.5346,-2.5422,-2.5476,-2.5492,-2.5454,-2.5416,-2.5394,-2.5355,-2.5333,-2.5294,-2.524,-2.5185,-2.5313,-2.5511,-2.6022,-2.6618,-2.6999,-2.7391,-2.8397,-2.898,-2.8919,-2.9013,-2.9171,-2.9595,-3.0148,-3.1246,2.1495,2.1647,2.2021,2.2208,2.2294,2.2202,2.1765,2.0787,1.6545,0.8491,-0.0062,-0.3941,-0.9694,-1.6817,-1.7415,-1.7124,-1.7105,-1.6858,-1.6837,-1.6609,-1.636,-1.6236,-1.6283,-1.6183,-1.6203,-1.6338,-1.6431,-1.6583,-1.6722,-1.6747,-1.6786,-1.6778,-1.687,-1.7096,-1.7349,-1.8009,-1.8808,-1.952,-2.0492,-2.1583,-2.2215,-2.2515,-2.2694,-2.2603,-2.2558,-2.2603,-2.2649,-2.2694,-2.277,-2.2875,-2.2979,-2.3364,-2.3953,-2.3686,-2.358,-2.3606,-2.3679,-2.3852,-2.4009,-2.4094,-2.4177,-2.4177,-2.4177,-2.4177,-2.4343,-2.4726,-2.4966,-2.5084,-2.5123,-2.5107,-2.5107,-2.5123,-2.5123,-2.5123,-2.5107,-2.5107,-2.5107,-2.5107,-2.5107,-2.5139,-2.5187,-2.5187,-2.5132,-2.5108,-2.514,-2.5045,-2.4894,-2.4782,-2.4686,-2.4735,-2.4879,-2.4934,-2.5123,-2.5123,-2.5084,-2.5029,-2.5005,-2.5045,-2.5021,-2.4926,-2.4831,-2.4909,-2.5067,-2.5676,-2.6217,-2.6782,-2.7422,-2.8124,-2.8529,-2.8529,-2.8637,-2.8855,-2.9384,-2.9982,-3.1284,2.2805,2.3008,2.3412,2.3636,2.3683,2.3666,2.3389,2.2703,2.108,1.5214,0.6546,0.2056,-0.4378,-1.1949,-1.2916,-1.3303,-1.34,-1.3518,-1.357,-1.3643,-1.364,-1.375,-1.3747,-1.3917,-1.4076,-1.4246,-1.462,-1.4869,-1.5116,-1.5306,-1.5363,-1.5487,-1.562,-1.5776,-1.5925,-1.67,-1.7385,-1.8088,-1.8904,-1.9904,-2.0994,-2.1404,-2.1785,-2.1752,-2.1799,-2.1846,-2.1894,-2.1894,-2.2063,-2.2249,-2.2388,-2.2764,-2.3138,-2.3081,-2.2832,-2.2804,-2.2937,-2.3231,-2.3421,-2.3523,-2.3581,-2.3581,-2.3668,-2.3711,-2.3711,-2.4036,-2.4287,-2.4395,-2.4533,-2.4574,-2.4533,-2.4549,-2.4523,-2.4523,-2.4508,-2.4508,-2.4549,-2.4574,-2.463,-2.4686,-2.4717,-2.4789,-2.4733,-2.4661,-2.4636,-2.4539,-2.4441,-2.4359,-2.4234,-2.4135,-2.4245,-2.4369,-2.4492,-2.4717,-2.4789,-2.4717,-2.463,-2.4686,-2.4686,-2.4605,-2.4508,-2.4498,-2.4699,-2.5524,-2.6253,-2.6932,-2.7566,-2.8122,-2.8227,-2.8255,-2.8394,-2.8563,-2.9162,-2.9823,-3.1042,2.3915,2.4204,2.4525,2.4677,2.4664,2.4632,2.4446,2.4063,2.3304,1.9787,1.3527,0.6841,-0.0317,-0.5479,-0.8184,-0.8815,-0.9305,-0.963,-1.0008,-1.0384,-1.0524,-1.0837,-1.1225,-1.1532,-1.1874,-1.2329,-1.2743,-1.3107,-1.346,-1.3648,-1.3893,-1.4168,-1.4411,-1.4549,-1.5005,-1.5533,-1.6209,-1.6907,-1.7703,-1.8523,-1.9396,-2.0215,-2.0693,-2.0845,-2.0832,-2.0845,-2.0944,-2.1055,-2.1215,-2.141,-2.1684,-2.2066,-2.2297,-2.2273,-2.2104,-2.2006,-2.2275,-2.2498,-2.2663,-2.2814,-2.2859,-2.2963,-2.3098,-2.3142,-2.3127,-2.3304,-2.3551,-2.3724,-2.3852,-2.4021,-2.3994,-2.4009,-2.3967,-2.394,-2.3925,-2.3967,-2.3994,-2.4036,-2.4135,-2.4219,-2.425,-2.4322,-2.4265,-2.4234,-2.412,-2.4021,-2.3937,-2.3867,-2.3739,-2.3653,-2.3638,-2.3709,-2.3809,-2.4024,-2.4311,-2.4307,-2.4204,-2.4204,-2.4204,-2.4204,-2.4177,-2.4109,-2.4567,-2.5604,-2.6337,-2.681,-2.7483,-2.8076,-2.8084,-2.7974,-2.8149,-2.8412,-2.9134,-2.9803,-3.0701,2.4725,2.4977,2.5065,2.5066,2.5059,2.4911,2.459,2.3973,2.2755,2.0173,1.657,1.2968,0.6849,-0.1056,-0.2583,-0.3789,-0.5112,-0.5693,-0.6383,-0.6838,-0.7431,-0.7942,-0.854,-0.9211,-0.9819,-1.0386,-1.0948,-1.1373,-1.176,-1.1975,-1.2288,-1.2638,-1.2938,-1.3188,-1.3484,-1.4063,-1.4712,-1.5504,-1.6268,-1.7081,-1.7981,-1.8848,-1.9799,-1.9952,-1.9952,-2.0003,-2.0042,-2.0194,-2.0295,-2.0547,-2.0845,-2.1171,-2.1331,-2.145,-2.1315,-2.1281,-2.154,-2.1799,-2.1921,-2.2016,-2.2109,-2.217,-2.2249,-2.231,-2.2356,-2.2495,-2.2709,-2.2844,-2.3068,-2.345,-2.3508,-2.3551,-2.3566,-2.3523,-2.3523,-2.3566,-2.3595,-2.3595,-2.3638,-2.3681,-2.3696,-2.3711,-2.3711,-2.3638,-2.3537,-2.3435,-2.3289,-2.3216,-2.3216,-2.3157,-2.3068,-2.3113,-2.3157,-2.3539,-2.3874,-2.3827,-2.3724,-2.3724,-2.3724,-2.3739,-2.3696,-2.3668,-2.4267,-2.5287,-2.5888,-2.6311,-2.7082,-2.7896,-2.7821,-2.776,-2.794,-2.8293,-2.9018,-2.9704,-3.0492]}]]